[[{"header":{"parameterUnit":"m.s-1","parameterCategory":1,"la1":31.0,"la2":29.5877,"lo1":-88.7671,"lo2":-86.6584,"dy":0.0162,"dx":0.0185,"nx":115,"ny":88,"refTime":"2023-10-07T00:00:00:Z","depth":0,"parameterNumber":2,"parameterNumberName":"U-component_of_WINDS"},"data":[0.0,0.0,0.0,0.0,0.0,0.0,0.0,0.0,0.0,0.0,0.0,0.0,0.0,0.0,0.0,0.0,0.0,0.0,0.0,0.0,0.0,0.0,0.0,0.0,0.0,0.0,0.0,0.0,0.0,0.0,0.0,0.0,0.0,0.0,0.0,0.0,0.0,0.0,0.0,0.0,0.0,0.0,0.0,0.0,0.0,0.0,0.0,0.0,0.0,0.0,0.0,0.0,0.0,0.0,0.0,0.0,0.0,0.0,0.0,0.0,0.0,0.0,0.0,0.0,0.0,0.0,0.0,0.0,0.0,0.0,0.0,0.0,0.0,0.0,0.0,0.0,0.0,0.0,0.0,0.0,0.0,0.0,0.0,0.0,0.0,0.0,0.0,0.0,0.0,0.0,0.0,0.0,0.0,0.0,0.0,0.0,0.0,0.0,0.0,0.0,0.0,0.0,0.0,0.0,0.0,0.0,0.0,0.0,0.0,0.0,0.0,0.0,0.0,0.0,0.0,0.0,0.0,0.0,0.0,0.0,0.0,0.0,0.0,0.0,0.0,0.0,0.0,0.0,0.0,0.0,0.0,0.0,0.0,0.0,0.0,0.0,0.0,0.0,0.0,0.0,0.0,0.0,0.0,0.0,0.0,0.0,0.0,0.0,0.0,0.0,0.0,0.0,0.0,0.0,0.0,0.0,0.0,0.0,0.0,0.0,0.0,0.0,0.0,0.0,0.0,0.0,0.0,0.0,0.0,0.0,0.0,0.0,0.0,0.0,0.0,0.0,0.0,0.0,0.0,0.0,0.0,0.0,0.0,0.0,0.0,0.0,0.0,0.0,0.0,0.0,0.0,0.0,0.0,0.0,0.0,0.0,0.0,0.0,0.0,0.0,0.0,0.0,0.0,0.0,0.0,0.0,0.0,0.0,0.0,0.0,0.0,0.0,0.0,0.0,0.0,0.0,0.0,0.0,0.0,0.0,0.0,0.0,0.0,0.0,0.0,0.0,0.0,0.0,0.0,0.0,0.0,0.0,0.0,0.0,0.0,0.0,0.0,0.0,0.0,0.0,0.0,0.0,0.0,0.0,0.0,0.0,0.0,0.0,0.0,0.0,0.0,0.0,0.0,0.0,0.0,0.0,0.0,0.0,0.0,0.0,0.0,0.0,0.0,0.0,0.0,0.0,0.0,0.0,0.0,0.0,0.0,0.0,0.0,0.0,0.0,0.0,0.0,0.0,0.0,0.0,0.0,0.0,0.0,0.0,0.0,0.0,0.0,0.0,0.0,0.0,0.0,0.0,0.0,0.0,0.0,0.0,0.0,0.0,0.0,0.0,0.0,0.0,0.0,0.0,0.0,0.0,0.0,0.0,0.0,0.0,0.0,0.0,0.0,0.0,0.0,0.0,0.0,0.0,0.0,0.0,0.0,0.0,0.0,0.0,0.0,0.0,0.0,0.0,0.0,0.0,0.0,0.0,0.0,0.0,0.0,0.0,0.0,0.0,0.0,0.0,0.0,0.0,0.0,0.0,0.0,0.0,0.0,0.0,0.0,0.0,0.0,0.0,0.0,0.0,0.0,0.0,0.0,0.0,0.0,0.0,0.0,0.0,0.0,0.0,0.0,0.0,0.0,0.0,0.0,0.0,0.0,0.0,0.0,0.0,0.0,0.0,0.0,0.0,0.0,0.0,0.0,0.0,0.0,0.0,0.0,0.0,0.0,0.0,0.0,0.0,0.0,0.0,0.0,0.0,0.0,0.0,0.0,0.0,0.0,0.0,0.0,0.0,0.0,0.0,0.0,0.0,0.0,0.0,0.0,0.0,0.0,0.0,0.0,0.0,0.0,0.0,0.0,0.0,0.0,0.0,0.0,0.0,0.0,0.0,0.0,0.0,0.0,0.0,0.0,0.0,0.0,0.0,0.0,0.0,0.0,0.0,0.0,0.0,0.0,0.0,0.0,0.0,0.0,0.0,0.0,0.0,0.0,0.0,0.0,0.0,0.0,0.0,0.0,0.0,0.0,0.0,0.0,0.0,0.0,0.0,0.0,0.0,0.0,0.0,0.0,0.0,0.0,0.0,0.0,0.0,0.0,0.0,0.0,0.0,0.0,0.0,0.0,0.0,0.0,0.0,0.0,0.0,0.0,0.0,0.0,0.0,0.0,0.0,0.0,0.0,0.0,0.0,0.0,0.0,0.0,0.0,0.0,0.0,0.0,0.0,0.0,0.0,0.0,0.0,0.0,0.0,0.0,0.0,0.0,0.0,0.0,0.0,0.0,0.0,0.0,0.0,0.0,0.0,0.0,0.0,0.0,0.0,0.0,0.0,0.0,0.0,0.0,0.0,0.0,0.0,0.0,0.0,0.0,0.0,0.0,0.0,0.0,0.0,0.0,0.0,0.0,0.0,0.0,0.0,0.0,0.0,0.0,0.0,0.0,0.0,0.0,0.0,0.0,0.0,0.0,0.0,0.0,0.0,0.0,0.0,0.0,0.0,0.0,0.0,0.0,0.0,0.0,0.0,0.0,0.0,0.0,0.0,0.0,0.0,0.0,0.0,0.0,0.0,0.0,0.0,0.0,0.0,0.0,0.0,0.0,0.0,0.0,0.0,0.0,0.0,0.0,0.0,0.0,0.0,0.0,0.0,0.0,0.0,0.0,0.0,0.0,0.0,0.0,0.0,0.0,0.0,0.0,0.0,0.0,0.0,0.0,0.0,0.0,0.0,0.0,0.0,0.0,0.0,0.0,0.0,0.0,0.0,0.0,0.0,0.0,0.0,0.0,0.0,0.0,0.0,0.0,0.0,0.0,0.0,0.0,0.0,0.0,0.0,0.0,0.0,0.0,0.0,0.0,0.0,0.0,0.0,0.0,0.0,0.0,0.0,0.0,0.0,0.0,0.0,0.0,0.0,0.0,0.0,0.0,0.0,0.0,0.0,0.0,0.0,0.0,0.0,0.0,0.0,0.0,0.0,0.0,0.0,0.0,0.0,0.0,0.0,0.0,0.0,0.0,0.0,0.0,0.0,0.0,0.0,0.0,0.0,0.0,0.0,0.0,0.0,0.0,0.0,0.0,0.0,0.0,0.0,0.0,0.0,0.0,0.0,0.0,0.0,0.0,0.0,0.0,0.0,0.0,0.0,0.0,0.0,0.0,0.0,0.0,0.0,0.0,0.0,0.0,0.0,0.0,0.0,0.0,0.0,0.0,0.0,0.0,0.0,0.0,0.0,0.0,0.0,0.0,0.0,0.0,0.0,0.0,0.0,0.0,0.0,0.0,0.0,0.0,0.0,0.0,0.0,0.0,0.0,0.0,0.0,0.0,0.0,0.0,0.0,0.0,0.0,0.0,0.0,0.0,0.0,0.0,0.0,0.0,0.0,0.0,0.0,0.0,0.0,0.0,0.0,0.0,0.0,0.0,0.0,0.0,0.0,0.0,0.0,0.0,0.0,0.0,0.0,0.0,0.0,0.0,0.0,0.0,0.0,0.0,0.0,0.0,0.0,0.0,0.0,0.0,0.0,0.0,0.0,0.0,0.0,0.0,0.0,0.0,0.0,0.0,0.0,0.0,0.0,0.0,0.0,0.0,0.0,0.0,0.0,0.0,0.0,0.0,0.0,0.0,0.0,0.0,0.0,0.0,0.0,0.0,0.0,0.0,0.0,0.0,0.0,0.0,0.0,0.0,0.0,0.0,0.0,0.0,0.0,0.0,0.0,0.0,0.0,0.0,0.0,0.0,0.0,0.0,0.0,0.0,0.0,0.0,0.0,0.0,0.0,0.0,0.0,0.0,0.0,0.0,0.0,0.0,0.0,0.0,0.0,0.0,0.0,0.0,0.0,0.0,0.0,0.0,0.0,0.0,0.0,0.0,0.0,0.0,0.0,0.0,0.0,0.0,0.0,0.0,0.0,0.0,0.0,0.0,0.0,0.0,0.0,0.0,0.0,0.0,0.0,0.0,0.0,0.0,0.0,0.0,0.0,0.0,0.0,0.0,0.0,0.0,0.0,0.0,0.0,0.0,0.0,0.0,0.0,0.0,0.0,0.0,0.0,0.0,0.0,0.0,0.0,0.0,0.0,0.0,0.0,0.0,0.0,0.0,0.0,0.0,0.0,0.0,0.0,0.0,0.0,0.0,0.0,0.0,0.0,0.0,0.0,0.0,0.0,0.0,0.0,0.0,0.0,0.0,0.0,0.0,0.0,0.0,0.0,0.0,0.0,0.0,0.0,0.0,0.0,0.0,0.0,0.0,0.0,0.0,0.0,0.0,0.0,0.0,0.0,5.653,0.0,0.0,0.0,0.0,0.0,0.0,0.0,0.0,0.0,0.0,0.0,0.0,0.0,0.0,0.0,0.0,0.0,0.0,0.0,0.0,0.0,0.0,0.0,0.0,0.0,0.0,0.0,0.0,0.0,0.0,0.0,0.0,0.0,0.0,0.0,0.0,0.0,0.0,0.0,0.0,0.0,0.0,0.0,0.0,0.0,0.0,0.0,0.0,0.0,0.0,0.0,0.0,0.0,0.0,0.0,0.0,0.0,0.0,0.0,0.0,0.0,0.0,0.0,0.0,0.0,0.0,0.0,0.0,0.0,0.0,0.0,0.0,0.0,0.0,0.0,0.0,0.0,0.0,0.0,0.0,0.0,0.0,0.0,0.0,0.0,0.0,0.0,0.0,0.0,0.0,0.0,0.0,0.0,0.0,0.0,0.0,0.0,0.0,0.0,0.0,0.0,0.0,0.0,0.0,0.0,0.0,0.0,0.0,0.0,0.0,5.7621,5.727,5.7601,5.7623,5.7226,0.0,0.0,0.0,0.0,0.0,0.0,0.0,0.0,0.0,0.0,0.0,0.0,0.0,0.0,0.0,0.0,0.0,0.0,0.0,0.0,0.0,0.0,0.0,0.0,0.0,0.0,0.0,0.0,0.0,0.0,0.0,0.0,0.0,0.0,0.0,0.0,0.0,0.0,0.0,0.0,0.0,0.0,0.0,0.0,0.0,0.0,0.0,0.0,0.0,0.0,0.0,0.0,0.0,0.0,0.0,0.0,0.0,0.0,0.0,0.0,0.0,0.0,0.0,0.0,0.0,0.0,0.0,0.0,0.0,0.0,0.0,0.0,0.0,0.0,0.0,0.0,0.0,0.0,0.0,0.0,0.0,0.0,0.0,0.0,0.0,0.0,0.0,0.0,0.0,0.0,0.0,0.0,0.0,0.0,0.0,0.0,0.0,0.0,0.0,0.0,0.0,0.0,0.0,0.0,0.0,0.0,0.0,0.0,0.0,0.0,0.0,0.0,5.7986,5.7882,5.7471,0.0,0.0,0.0,0.0,0.0,0.0,0.0,0.0,0.0,0.0,0.0,0.0,0.0,0.0,0.0,0.0,0.0,0.0,0.0,0.0,0.0,0.0,0.0,0.0,0.0,0.0,0.0,0.0,0.0,0.0,0.0,0.0,0.0,0.0,0.0,0.0,0.0,0.0,0.0,0.0,0.0,0.0,0.0,0.0,0.0,0.0,0.0,0.0,0.0,0.0,0.0,0.0,0.0,0.0,0.0,0.0,0.0,0.0,0.0,0.0,0.0,0.0,0.0,0.0,0.0,0.0,0.0,0.0,0.0,0.0,0.0,0.0,0.0,0.0,0.0,0.0,0.0,0.0,0.0,0.0,0.0,0.0,0.0,0.0,0.0,0.0,0.0,0.0,0.0,0.0,0.0,0.0,0.0,0.0,0.0,0.0,0.0,0.0,0.0,0.0,0.0,0.0,0.0,0.0,0.0,0.0,0.0,0.0,0.0,0.0,5.8597,5.7855,5.8571,0.0,5.668,0.0,0.0,0.0,0.0,0.0,0.0,0.0,0.0,0.0,0.0,0.0,0.0,0.0,0.0,0.0,0.0,0.0,0.0,0.0,0.0,0.0,0.0,0.0,0.0,0.0,0.0,0.0,0.0,0.0,0.0,0.0,0.0,0.0,0.0,0.0,0.0,0.0,0.0,0.0,0.0,0.0,0.0,0.0,0.0,0.0,0.0,0.0,0.0,0.0,0.0,0.0,0.0,0.0,0.0,0.0,0.0,0.0,0.0,0.0,0.0,0.0,0.0,0.0,0.0,0.0,0.0,0.0,0.0,0.0,0.0,0.0,0.0,0.0,0.0,0.0,0.0,0.0,0.0,0.0,0.0,0.0,0.0,0.0,0.0,0.0,0.0,0.0,0.0,0.0,0.0,0.0,0.0,0.0,0.0,0.0,0.0,0.0,0.0,0.0,0.0,0.0,0.0,0.0,0.0,0.0,0.0,0.0,0.0,0.0,0.0,5.8168,5.7816,5.8142,5.7697,0.0,0.0,0.0,0.0,0.0,0.0,0.0,0.0,0.0,0.0,0.0,0.0,0.0,0.0,0.0,0.0,0.0,0.0,0.0,0.0,0.0,0.0,0.0,0.0,0.0,0.0,0.0,0.0,0.0,0.0,0.0,0.0,0.0,0.0,0.0,0.0,0.0,0.0,0.0,0.0,0.0,0.0,0.0,0.0,0.0,0.0,0.0,0.0,0.0,0.0,0.0,0.0,0.0,0.0,0.0,0.0,0.0,0.0,0.0,0.0,0.0,0.0,0.0,0.0,0.0,0.0,0.0,0.0,0.0,0.0,0.0,0.0,0.0,0.0,0.0,0.0,0.0,0.0,0.0,0.0,0.0,0.0,0.0,0.0,0.0,0.0,0.0,0.0,0.0,0.0,0.0,0.0,0.0,0.0,0.0,0.0,0.0,0.0,0.0,0.0,0.0,0.0,0.0,0.0,0.0,0.0,0.0,0.0,0.0,0.0,5.7621,5.8168,5.8163,5.8175,5.7588,5.6427,0.0,0.0,0.0,0.0,0.0,0.0,0.0,0.0,0.0,0.0,0.0,0.0,0.0,0.0,0.0,0.0,0.0,0.0,0.0,0.0,0.0,0.0,0.0,0.0,0.0,0.0,0.0,0.0,0.0,0.0,0.0,0.0,0.0,0.0,0.0,0.0,0.0,0.0,0.0,0.0,0.0,0.0,0.0,0.0,0.0,0.0,0.0,0.0,0.0,0.0,0.0,0.0,0.0,0.0,0.0,0.0,0.0,0.0,0.0,0.0,0.0,0.0,0.0,0.0,0.0,0.0,0.0,0.0,0.0,0.0,0.0,0.0,0.0,0.0,0.0,0.0,0.0,0.0,0.0,0.0,0.0,0.0,0.0,0.0,0.0,0.0,0.0,0.0,0.0,0.0,0.0,0.0,0.0,0.0,0.0,0.0,0.0,0.0,0.0,0.0,0.0,0.0,0.0,0.0,0.0,0.0,0.0,0.0,5.6645,5.8168,5.9022,5.8967,5.9027,5.8226,0.0,0.0,0.0,0.0,0.0,0.0,0.0,0.0,0.0,0.0,0.0,0.0,0.0,0.0,0.0,0.0,0.0,0.0,0.0,0.0,0.0,0.0,0.0,0.0,0.0,0.0,0.0,0.0,0.0,0.0,0.0,0.0,0.0,0.0,0.0,0.0,0.0,0.0,0.0,0.0,0.0,0.0,0.0,0.0,0.0,0.0,0.0,0.0,0.0,0.0,0.0,0.0,0.0,0.0,0.0,0.0,0.0,0.0,0.0,0.0,0.0,0.0,0.0,0.0,0.0,0.0,0.0,0.0,0.0,0.0,0.0,0.0,0.0,0.0,0.0,0.0,0.0,0.0,0.0,0.0,0.0,0.0,0.0,0.0,0.0,0.0,0.0,0.0,0.0,0.0,0.0,0.0,0.0,0.0,0.0,0.0,0.0,0.0,0.0,0.0,0.0,0.0,0.0,0.0,0.0,0.0,0.0,0.0,0.0,5.6645,5.7699,5.828,5.8265,5.827,5.7713,0.0,0.0,0.0,0.0,0.0,0.0,0.0,0.0,0.0,0.0,0.0,0.0,0.0,0.0,0.0,0.0,0.0,0.0,0.0,0.0,0.0,0.0,0.0,0.0,0.0,0.0,0.0,0.0,0.0,0.0,0.0,0.0,0.0,0.0,0.0,0.0,0.0,0.0,0.0,0.0,0.0,0.0,0.0,0.0,0.0,0.0,0.0,0.0,0.0,0.0,0.0,0.0,0.0,0.0,0.0,0.0,0.0,0.0,0.0,0.0,0.0,0.0,0.0,0.0,0.0,0.0,0.0,0.0,0.0,0.0,0.0,0.0,0.0,0.0,0.0,0.0,0.0,0.0,0.0,0.0,0.0,0.0,0.0,0.0,0.0,0.0,0.0,0.0,0.0,0.0,0.0,0.0,0.0,0.0,0.0,0.0,0.0,0.0,0.0,0.0,0.0,0.0,0.0,0.0,0.0,0.0,0.0,0.0,0.0,5.7387,0.0,5.8241,5.8231,5.8202,5.769,0.0,0.0,0.0,0.0,0.0,0.0,0.0,0.0,0.0,0.0,0.0,0.0,0.0,0.0,0.0,0.0,0.0,0.0,0.0,0.0,0.0,0.0,0.0,0.0,0.0,0.0,0.0,0.0,0.0,0.0,0.0,0.0,0.0,0.0,0.0,0.0,0.0,0.0,0.0,0.0,0.0,0.0,0.0,0.0,0.0,0.0,0.0,0.0,0.0,0.0,0.0,0.0,0.0,0.0,0.0,0.0,0.0,0.0,0.0,0.0,0.0,0.0,0.0,0.0,0.0,0.0,0.0,0.0,0.0,0.0,0.0,0.0,0.0,0.0,0.0,0.0,0.0,0.0,0.0,0.0,0.0,0.0,0.0,0.0,0.0,0.0,0.0,0.0,0.0,0.0,0.0,0.0,0.0,0.0,0.0,0.0,0.0,0.0,0.0,0.0,0.0,0.0,0.0,0.0,0.0,0.0,0.0,0.0,5.7426,5.8987,5.9104,5.9104,5.9104,5.9065,5.8285,0.0,0.0,0.0,0.0,0.0,0.0,0.0,0.0,0.0,0.0,0.0,0.0,0.0,0.0,0.0,0.0,0.0,0.0,0.0,0.0,0.0,0.0,0.0,0.0,0.0,0.0,0.0,0.0,0.0,0.0,0.0,0.0,0.0,0.0,0.0,0.0,0.0,0.0,0.0,0.0,0.0,0.0,0.0,0.0,0.0,0.0,0.0,0.0,0.0,0.0,0.0,0.0,0.0,0.0,0.0,0.0,0.0,0.0,0.0,0.0,0.0,0.0,0.0,0.0,0.0,0.0,0.0,0.0,0.0,0.0,0.0,0.0,0.0,0.0,0.0,0.0,0.0,0.0,0.0,0.0,0.0,0.0,0.0,0.0,0.0,0.0,0.0,0.0,0.0,0.0,0.0,0.0,0.0,0.0,0.0,0.0,0.0,0.0,0.0,0.0,0.0,0.0,0.0,0.0,0.0,0.0,0.0,0.0,0.0,5.9065,5.969,6.0002,5.9963,5.9417,5.8558,0.0,0.0,0.0,0.0,0.0,0.0,0.0,0.0,0.0,0.0,0.0,0.0,0.0,0.0,0.0,0.0,0.0,0.0,0.0,0.0,0.0,0.0,0.0,0.0,0.0,0.0,0.0,0.0,0.0,0.0,0.0,0.0,0.0,0.0,0.0,0.0,0.0,0.0,0.0,0.0,0.0,0.0,0.0,0.0,0.0,0.0,0.0,0.0,0.0,0.0,0.0,0.0,0.0,0.0,0.0,0.0,0.0,0.0,0.0,0.0,0.0,0.0,0.0,0.0,0.0,0.0,0.0,0.0,0.0,0.0,0.0,0.0,0.0,0.0,0.0,0.0,0.0,0.0,0.0,0.0,0.0,0.0,0.0,0.0,0.0,0.0,0.0,0.0,0.0,0.0,0.0,0.0,0.0,0.0,0.0,0.0,0.0,0.0,0.0,0.0,0.0,0.0,0.0,0.0,0.0,0.0,0.0,0.0,0.0,6.0041,6.0588,6.09,6.09,6.0354,5.9378,5.7855,0.0,0.0,0.0,0.0,0.0,0.0,0.0,0.0,0.0,0.0,0.0,0.0,0.0,0.0,0.0,0.0,0.0,0.0,0.0,0.0,0.0,0.0,0.0,0.0,0.0,0.0,0.0,0.0,0.0,0.0,0.0,0.0,0.0,0.0,0.0,0.0,0.0,0.0,0.0,0.0,0.0,0.0,0.0,0.0,0.0,0.0,0.0,0.0,0.0,0.0,0.0,0.0,0.0,0.0,0.0,0.0,0.0,0.0,0.0,0.0,0.0,0.0,0.0,0.0,0.0,0.0,0.0,0.0,0.0,0.0,0.0,0.0,0.0,0.0,0.0,0.0,0.0,0.0,0.0,0.0,0.0,0.0,0.0,0.0,0.0,0.0,0.0,0.0,0.0,0.0,0.0,0.0,0.0,0.0,0.0,0.0,0.0,0.0,0.0,0.0,0.0,0.0,0.0,0.0,0.0,0.0,0.0,0.0,6.1837,6.1915,6.1915,6.1876,6.1759,6.051,0.0,0.0,0.0,0.0,0.0,0.0,0.0,0.0,0.0,0.0,0.0,0.0,0.0,0.0,0.0,0.0,0.0,0.0,0.0,0.0,0.0,0.0,0.0,0.0,0.0,0.0,0.0,0.0,0.0,0.0,0.0,0.0,0.0,0.0,0.0,0.0,0.0,0.0,0.0,0.0,0.0,0.0,0.0,0.0,0.0,0.0,0.0,0.0,0.0,0.0,0.0,0.0,0.0,0.0,0.0,0.0,0.0,0.0,0.0,0.0,0.0,0.0,0.0,0.0,0.0,0.0,0.0,0.0,0.0,0.0,0.0,0.0,0.0,0.0,0.0,0.0,0.0,0.0,0.0,0.0,0.0,0.0,0.0,0.0,0.0,0.0,0.0,0.0,0.0,0.0,0.0,0.0,0.0,0.0,0.0,0.0,0.0,0.0,0.0,0.0,0.0,0.0,0.0,0.0,0.0,0.0,0.0,0.0,0.0,6.3516,6.4258,6.4297,6.3633,6.2384,6.1095,0.0,0.0,0.0,0.0,0.0,0.0,0.0,0.0,0.0,0.0,0.0,0.0,0.0,0.0,0.0,0.0,0.0,0.0,0.0,0.0,0.0,0.0,0.0,0.0,0.0,0.0,0.0,0.0,0.0,0.0,0.0,0.0,0.0,0.0,0.0,0.0,0.0,0.0,0.0,0.0,0.0,0.0,0.0,0.0,0.0,0.0,0.0,0.0,0.0,0.0,0.0,0.0,0.0,0.0,0.0,0.0,0.0,0.0,0.0,0.0,0.0,0.0,0.0,0.0,0.0,0.0,0.0,0.0,0.0,0.0,0.0,0.0,0.0,0.0,0.0,0.0,0.0,0.0,0.0,0.0,0.0,0.0,0.0,0.0,0.0,0.0,0.0,0.0,0.0,0.0,0.0,0.0,0.0,0.0,0.0,0.0,0.0,0.0,0.0,0.0,0.0,0.0,0.0,0.0,0.0,0.0,0.0,0.0,6.2228,6.4765,6.5663,6.6014,6.5897,6.3867,6.2228,0.0,0.0,0.0,0.0,0.0,0.0,0.0,0.0,0.0,0.0,0.0,0.0,0.0,0.0,0.0,0.0,0.0,0.0,0.0,0.0,0.0,0.0,0.0,0.0,0.0,0.0,0.0,0.0,0.0,0.0,0.0,0.0,0.0,0.0,0.0,0.0,0.0,0.0,0.0,0.0,0.0,0.0,0.0,0.0,0.0,0.0,0.0,0.0,0.0,0.0,0.0,0.0,0.0,0.0,0.0,0.0,0.0,0.0,0.0,0.0,0.0,0.0,0.0,0.0,0.0,0.0,0.0,0.0,0.0,0.0,0.0,0.0,0.0,0.0,0.0,0.0,0.0,0.0,0.0,0.0,0.0,0.0,0.0,0.0,0.0,0.0,0.0,0.0,0.0,0.0,0.0,0.0,0.0,0.0,0.0,0.0,0.0,0.0,0.0,0.0,0.0,0.0,0.0,0.0,0.0,0.0,0.0,0.0,6.3047,6.5546,6.6483,6.7303,6.8005,6.578,6.3711,0.0,0.0,0.0,0.0,0.0,0.0,0.0,0.0,0.0,0.0,0.0,0.0,0.0,0.0,0.0,0.0,0.0,0.0,0.0,0.0,0.0,0.0,0.0,0.0,0.0,0.0,0.0,0.0,0.0,0.0,0.0,0.0,0.0,0.0,0.0,0.0,0.0,0.0,0.0,0.0,0.0,0.0,0.0,0.0,0.0,0.0,0.0,0.0,0.0,0.0,0.0,0.0,0.0,0.0,0.0,0.0,0.0,0.0,0.0,0.0,0.0,0.0,0.0,0.0,0.0,0.0,0.0,0.0,0.0,0.0,0.0,0.0,0.0,0.0,0.0,0.0,0.0,0.0,0.0,0.0,0.0,0.0,0.0,0.0,0.0,0.0,0.0,0.0,0.0,0.0,0.0,0.0,0.0,0.0,0.0,0.0,0.0,0.0,0.0,0.0,0.0,0.0,0.0,0.0,0.0,0.0,0.0,0.0,6.3672,6.5546,6.7029,6.7888,6.8083,6.6912,6.5155,0.0,0.0,0.0,0.0,0.0,0.0,0.0,0.0,0.0,0.0,0.0,0.0,0.0,0.0,0.0,0.0,0.0,0.0,0.0,0.0,0.0,0.0,0.0,0.0,0.0,0.0,0.0,0.0,0.0,0.0,0.0,0.0,0.0,0.0,0.0,0.0,0.0,0.0,0.0,0.0,0.0,0.0,0.0,0.0,0.0,0.0,0.0,0.0,6.1451,0.0,0.0,0.0,0.0,0.0,0.0,0.0,0.0,0.0,0.0,0.0,0.0,0.0,0.0,0.0,0.0,0.0,0.0,0.0,0.0,0.0,0.0,0.0,0.0,0.0,0.0,0.0,0.0,0.0,0.0,0.0,0.0,0.0,0.0,0.0,0.0,0.0,0.0,0.0,0.0,0.0,0.0,0.0,0.0,0.0,0.0,0.0,0.0,0.0,0.0,0.0,0.0,0.0,0.0,0.0,0.0,0.0,0.0,0.0,6.4414,6.6131,6.7849,6.8708,6.8708,6.8239,6.6639,0.0,0.0,0.0,0.0,0.0,0.0,0.0,0.0,0.0,0.0,0.0,0.0,0.0,0.0,0.0,0.0,0.0,0.0,0.0,0.0,0.0,0.0,0.0,0.0,0.0,0.0,0.0,0.0,0.0,0.0,0.0,0.0,0.0,0.0,0.0,0.0,0.0,0.0,0.0,0.0,0.0,0.0,0.0,0.0,0.0,0.0,0.0,0.0,0.0,0.0,0.0,0.0,0.0,0.0,0.0,0.0,0.0,0.0,0.0,0.0,0.0,0.0,0.0,0.0,0.0,0.0,0.0,0.0,0.0,0.0,0.0,0.0,0.0,0.0,0.0,0.0,0.0,0.0,0.0,0.0,0.0,0.0,0.0,0.0,0.0,0.0,0.0,0.0,0.0,0.0,0.0,0.0,0.0,0.0,0.0,0.0,0.0,0.0,0.0,0.0,0.0,0.0,0.0,0.0,0.0,0.0,0.0,6.254,6.5038,6.66,6.8318,6.9215,6.921,6.9176,6.7654,6.4414,0.0,0.0,0.0,0.0,0.0,0.0,0.0,0.0,0.0,0.0,0.0,0.0,0.0,0.0,0.0,0.0,0.0,0.0,0.0,0.0,0.0,0.0,0.0,0.0,0.0,0.0,0.0,0.0,0.0,0.0,0.0,0.0,0.0,0.0,0.0,0.0,0.0,0.0,5.767,5.8682,0.0,0.0,0.0,0.0,0.0,0.0,0.0,0.0,6.1573,0.0,0.0,0.0,0.0,0.0,0.0,0.0,0.0,0.0,0.0,0.0,0.0,0.0,0.0,0.0,0.0,0.0,0.0,0.0,0.0,0.0,0.0,0.0,0.0,0.0,0.0,0.0,0.0,0.0,0.0,0.0,0.0,0.0,0.0,0.0,0.0,0.0,0.0,0.0,0.0,0.0,0.0,0.0,0.0,0.0,0.0,0.0,0.0,0.0,0.0,0.0,0.0,0.0,0.0,0.0,0.0,5.9143,6.254,6.4765,6.578,6.7459,6.8312,6.834,6.83,6.7013,6.4331,0.0,0.0,0.0,0.0,0.0,0.0,0.0,0.0,0.0,0.0,0.0,0.0,0.0,0.0,0.0,0.0,0.0,0.0,0.0,0.0,0.0,0.0,0.0,0.0,0.0,0.0,0.0,0.0,0.0,0.0,0.0,0.0,0.0,0.0,0.0,0.0,0.0,0.0,0.0,6.0044,6.1106,0.0,0.0,0.0,0.0,0.0,0.0,0.0,0.0,6.158,0.0,0.0,0.0,0.0,0.0,0.0,0.0,0.0,0.0,0.0,0.0,0.0,0.0,0.0,0.0,0.0,0.0,0.0,0.0,0.0,0.0,0.0,0.0,0.0,0.0,0.0,0.0,0.0,0.0,0.0,0.0,0.0,0.0,0.0,0.0,0.0,0.0,0.0,0.0,0.0,0.0,0.0,0.0,0.0,0.0,0.0,0.0,0.0,0.0,0.0,0.0,0.0,0.0,0.0,0.0,5.93,6.254,6.4726,6.5624,6.7224,6.8078,6.8099,6.8099,6.6889,0.0,0.0,0.0,0.0,0.0,0.0,0.0,0.0,0.0,0.0,0.0,0.0,0.0,0.0,0.0,0.0,0.0,0.0,0.0,0.0,0.0,0.0,0.0,0.0,0.0,0.0,0.0,0.0,0.0,0.0,0.0,0.0,0.0,0.0,0.0,0.0,0.0,0.0,0.0,0.0,6.0827,6.2229,6.219,0.0,0.0,0.0,0.0,0.0,0.0,6.1573,6.158,0.0,0.0,0.0,0.0,0.0,0.0,0.0,0.0,0.0,0.0,0.0,0.0,0.0,0.0,0.0,0.0,0.0,0.0,0.0,0.0,0.0,0.0,0.0,0.0,0.0,0.0,0.0,0.0,0.0,0.0,0.0,0.0,0.0,0.0,0.0,0.0,0.0,0.0,0.0,0.0,0.0,0.0,0.0,0.0,0.0,0.0,0.0,0.0,0.0,0.0,0.0,0.0,0.0,0.0,0.0,5.9226,6.2549,6.4653,6.5351,6.699,6.7838,6.7819,6.7663,6.6518,0.0,0.0,0.0,0.0,0.0,0.0,0.0,0.0,0.0,0.0,0.0,0.0,0.0,0.0,0.0,0.0,0.0,0.0,0.0,0.0,0.0,0.0,0.0,0.0,0.0,0.0,0.0,0.0,0.0,0.0,0.0,0.0,0.0,0.0,0.0,0.0,0.0,0.0,0.0,0.0,0.0,6.2932,6.3058,6.3663,0.0,0.0,0.0,0.0,6.1997,6.1837,0.0,0.0,0.0,0.0,0.0,0.0,0.0,0.0,0.0,0.0,0.0,0.0,0.0,0.0,0.0,0.0,0.0,0.0,0.0,0.0,0.0,0.0,0.0,0.0,0.0,0.0,0.0,0.0,0.0,0.0,0.0,0.0,0.0,0.0,0.0,0.0,0.0,0.0,0.0,0.0,0.0,0.0,0.0,0.0,0.0,0.0,0.0,0.0,0.0,0.0,0.0,0.0,0.0,0.0,0.0,0.0,5.9246,6.2527,6.4356,6.4531,6.6092,6.6979,6.6947,6.6205,6.5246,0.0,0.0,0.0,0.0,0.0,0.0,0.0,0.0,0.0,0.0,0.0,0.0,0.0,0.0,0.0,0.0,0.0,0.0,0.0,0.0,0.0,0.0,0.0,0.0,0.0,0.0,0.0,0.0,0.0,0.0,0.0,0.0,0.0,0.0,0.0,0.0,0.0,0.0,0.0,0.0,0.0,6.3146,6.3828,6.4023,6.4062,0.0,0.0,6.3682,6.2864,6.2747,0.0,0.0,0.0,0.0,0.0,0.0,0.0,0.0,0.0,0.0,0.0,0.0,0.0,0.0,0.0,0.0,0.0,0.0,0.0,0.0,0.0,0.0,0.0,0.0,0.0,0.0,0.0,0.0,0.0,0.0,0.0,0.0,0.0,0.0,0.0,0.0,0.0,0.0,0.0,0.0,0.0,0.0,0.0,0.0,0.0,0.0,0.0,0.0,0.0,0.0,0.0,0.0,0.0,0.0,0.0,5.9101,5.9214,6.2539,6.4291,6.436,6.5946,6.6823,6.6783,6.5964,6.5043,0.0,0.0,0.0,0.0,0.0,0.0,0.0,0.0,0.0,0.0,0.0,0.0,0.0,0.0,0.0,0.0,0.0,0.0,0.0,0.0,0.0,0.0,0.0,0.0,0.0,0.0,0.0,0.0,0.0,0.0,0.0,0.0,0.0,0.0,0.0,0.0,0.0,0.0,0.0,0.0,0.0,0.0,6.4062,6.4958,0.0,0.0,0.0,6.453,6.3711,0.0,0.0,0.0,0.0,0.0,0.0,0.0,0.0,0.0,0.0,0.0,0.0,0.0,0.0,0.0,0.0,0.0,0.0,0.0,0.0,0.0,0.0,0.0,0.0,0.0,0.0,0.0,0.0,0.0,0.0,0.0,0.0,0.0,0.0,0.0,0.0,0.0,0.0,0.0,0.0,0.0,0.0,0.0,0.0,0.0,0.0,0.0,0.0,0.0,0.0,0.0,0.0,0.0,0.0,0.0,0.0,0.0,5.9178,6.2529,6.4297,6.433,6.5954,6.6823,6.6783,6.573,0.0,0.0,0.0,0.0,0.0,0.0,0.0,0.0,0.0,0.0,0.0,0.0,0.0,0.0,0.0,0.0,0.0,0.0,0.0,0.0,0.0,0.0,0.0,0.0,0.0,0.0,0.0,5.1375,0.0,0.0,0.0,0.0,0.0,0.0,0.0,0.0,0.0,0.0,0.0,0.0,0.0,0.0,6.4255,6.4423,6.5933,6.6712,0.0,0.0,6.566,6.4569,6.3711,6.3127,0.0,0.0,0.0,0.0,0.0,0.0,0.0,0.0,0.0,0.0,0.0,0.0,0.0,0.0,0.0,0.0,0.0,0.0,0.0,0.0,0.0,0.0,0.0,0.0,0.0,0.0,0.0,0.0,0.0,0.0,0.0,0.0,0.0,0.0,0.0,0.0,0.0,0.0,0.0,0.0,0.0,0.0,0.0,0.0,0.0,0.0,0.0,0.0,0.0,0.0,0.0,0.0,0.0,0.0,0.0,5.9217,6.2544,6.4326,6.4332,6.5993,6.6862,6.6783,6.5184,6.3881,0.0,0.0,0.0,0.0,0.0,0.0,0.0,0.0,0.0,0.0,0.0,0.0,0.0,0.0,0.0,0.0,0.0,0.0,0.0,0.0,0.0,0.0,0.0,0.0,0.0,0.0,0.0,0.0,0.0,0.0,0.0,0.0,0.0,0.0,0.0,0.0,0.0,0.0,0.0,0.0,0.0,6.4474,6.5307,6.6839,6.7608,0.0,0.0,6.7219,6.5582,6.4569,6.375,6.301,0.0,0.0,0.0,0.0,0.0,0.0,0.0,0.0,0.0,0.0,0.0,0.0,0.0,0.0,0.0,0.0,0.0,0.0,0.0,0.0,0.0,0.0,0.0,0.0,0.0,0.0,0.0,0.0,0.0,0.0,0.0,0.0,0.0,0.0,0.0,0.0,0.0,0.0,0.0,0.0,0.0,0.0,0.0,0.0,0.0,0.0,0.0,0.0,0.0,0.0,0.0,0.0,0.0,5.9378,5.992,6.2813,6.4789,6.582,6.6543,6.7136,6.7563,6.5379,6.4037,0.0,0.0,0.0,0.0,0.0,0.0,0.0,0.0,0.0,0.0,0.0,0.0,0.0,0.0,0.0,0.0,0.0,0.0,0.0,0.0,0.0,0.0,0.0,0.0,0.0,0.0,0.0,0.0,5.1375,5.1375,5.1375,0.0,0.0,0.0,0.0,0.0,0.0,0.0,0.0,0.0,0.0,6.4333,6.4653,6.6117,0.0,0.0,6.6985,6.6985,6.6322,6.5036,6.4023,6.3672,6.1802,0.0,0.0,0.0,0.0,0.0,0.0,0.0,0.0,0.0,0.0,0.0,0.0,0.0,0.0,0.0,0.0,0.0,0.0,0.0,0.0,0.0,0.0,0.0,0.0,0.0,0.0,0.0,0.0,0.0,0.0,0.0,0.0,0.0,0.0,0.0,0.0,0.0,0.0,0.0,0.0,0.0,0.0,0.0,0.0,0.0,0.0,0.0,0.0,0.0,0.0,0.0,0.0,5.9646,6.0778,6.3086,6.5137,6.6757,6.7093,6.7526,6.8014,6.5822,6.4318,0.0,0.0,0.0,0.0,0.0,0.0,0.0,0.0,0.0,0.0,0.0,0.0,0.0,0.0,0.0,0.0,0.0,0.0,0.0,0.0,0.0,0.0,0.0,0.0,0.0,0.0,0.0,0.0,5.1375,5.1375,5.1375,0.0,0.0,0.0,0.0,0.0,0.0,0.0,0.0,0.0,0.0,6.4223,6.4232,6.5853,6.7014,6.6751,6.6907,6.6985,6.6751,6.5465,6.4413,6.414,0.0,0.0,0.0,0.0,0.0,0.0,0.0,0.0,0.0,0.0,0.0,0.0,0.0,0.0,0.0,0.0,0.0,0.0,0.0,0.0,0.0,0.0,0.0,0.0,0.0,0.0,0.0,0.0,0.0,0.0,0.0,0.0,0.0,0.0,0.0,0.0,0.0,0.0,0.0,0.0,0.0,0.0,0.0,0.0,0.0,0.0,0.0,0.0,0.0,0.0,0.0,0.0,0.0,5.9948,6.1642,6.3399,6.5134,6.6793,6.7643,6.8083,6.8083,6.6394,6.4677,6.2932,0.0,0.0,0.0,0.0,0.0,0.0,0.0,0.0,0.0,0.0,0.0,0.0,0.0,0.0,0.0,0.0,0.0,0.0,0.0,0.0,0.0,0.0,0.0,0.0,0.0,0.0,5.1375,5.1375,5.1414,0.0,0.0,0.0,0.0,0.0,0.0,0.0,0.0,0.0,0.0,6.2056,6.4229,6.4248,6.633,6.7599,6.6829,6.7413,6.7647,6.6829,6.5972,6.5065,0.0,0.0,0.0,0.0,0.0,0.0,0.0,0.0,0.0,0.0,0.0,0.0,0.0,0.0,0.0,0.0,0.0,0.0,0.0,0.0,0.0,0.0,0.0,0.0,0.0,0.0,0.0,5.8261,5.8189,0.0,0.0,0.0,0.0,0.0,0.0,0.0,0.0,0.0,0.0,0.0,5.8274,5.8267,0.0,0.0,0.0,0.0,0.0,0.0,0.0,0.0,0.0,0.0,0.0,0.0,6.0243,6.2512,6.3662,6.5641,6.8394,6.8239,6.8379,6.8942,6.7292,6.473,6.1339,0.0,0.0,0.0,0.0,0.0,0.0,0.0,0.0,0.0,0.0,0.0,0.0,0.0,0.0,0.0,0.0,0.0,0.0,0.0,0.0,0.0,0.0,0.0,0.0,0.0,5.1375,0.0,0.0,0.0,0.0,0.0,0.0,0.0,0.0,0.0,0.0,0.0,5.9183,6.0627,6.2808,6.4481,6.501,6.6291,6.7095,0.0,0.0,0.0,0.0,0.0,0.0,0.0,0.0,0.0,0.0,0.0,0.0,0.0,0.0,6.3162,6.2633,6.2317,6.1759,6.0622,0.0,0.0,0.0,0.0,0.0,0.0,0.0,0.0,0.0,0.0,0.0,0.0,0.0,0.0,0.0,0.0,5.8488,0.0,0.0,0.0,0.0,0.0,0.0,0.0,0.0,5.8281,5.8585,5.9109,5.9095,5.9095,0.0,5.8543,5.789,0.0,0.0,0.0,0.0,0.0,0.0,0.0,0.0,6.08,6.3296,6.4502,6.6488,6.9208,6.914,6.9283,6.9801,6.7604,6.4632,6.099,5.9173,5.7231,0.0,0.0,0.0,0.0,0.0,0.0,0.0,0.0,0.0,0.0,0.0,0.0,0.0,0.0,0.0,0.0,0.0,0.0,0.0,0.0,0.0,0.0,0.0,5.1999,0.0,0.0,0.0,0.0,0.0,0.0,0.0,0.0,0.0,5.6606,5.8324,6.008,6.1486,6.3204,6.4565,6.5373,0.0,0.0,0.0,0.0,0.0,0.0,0.0,6.5861,6.5527,6.456,6.3897,6.4123,6.4443,6.4645,6.4645,0.0,0.0,6.3637,6.3422,6.3008,6.1603,6.1056,6.0583,5.9729,5.9534,5.9534,0.0,0.0,0.0,0.0,0.0,0.0,0.0,0.0,5.92,5.9256,0.0,5.9215,0.0,0.0,0.0,0.0,0.0,0.0,0.0,0.0,5.9129,5.9143,5.9189,5.9222,5.9195,5.9178,5.9183,5.8765,5.7962,5.7142,0.0,0.0,0.0,0.0,0.0,0.0,6.1586,6.4023,6.5839,6.7637,6.9338,7.0234,7.065,7.0543,6.7381,6.4453,6.1837,6.0119,5.8402,5.6645,5.4966,0.0,0.0,0.0,0.0,0.0,0.0,0.0,0.0,0.0,0.0,0.0,0.0,0.0,0.0,0.0,0.0,0.0,0.0,0.0,0.0,5.2195,0.0,0.0,0.0,0.0,0.0,0.0,0.0,0.0,0.0,0.0,5.6883,5.8953,6.0783,6.1686,0.0,0.0,0.0,0.0,6.6805,6.6791,6.6822,6.6822,6.6783,6.6778,6.6511,6.5698,0.0,0.0,6.4411,6.4957,6.5542,6.5556,6.618,6.6258,6.458,6.4325,6.4023,6.3164,6.2384,6.1525,6.0783,6.071,6.067,6.5129,0.0,0.0,0.0,0.0,6.2658,6.2608,6.2546,6.2619,6.2289,6.1666,6.1127,0.0,0.0,0.0,0.0,0.0,0.0,5.9205,6.0002,6.0032,6.0321,6.0878,6.0886,6.0861,6.0867,6.0305,5.9924,5.966,5.8814,5.776,5.6571,0.0,0.0,0.0,0.0,6.2162,6.4101,6.587,6.7663,6.9372,7.0232,7.0384,6.9801,6.7615,6.5234,6.2735,6.1564,5.9612,5.6762,5.6138,0.0,0.0,0.0,0.0,0.0,0.0,0.0,0.0,0.0,0.0,0.0,0.0,0.0,0.0,0.0,0.0,0.0,0.0,0.0,5.2273,5.3132,5.3717,0.0,0.0,0.0,0.0,0.0,0.0,0.0,0.0,0.0,6.0142,6.0852,6.187,0.0,0.0,6.5524,6.6331,6.6634,6.679,6.6823,0.0,0.0,0.0,6.6829,6.6795,6.655,6.6511,6.6204,6.534,6.5926,6.6472,6.6478,6.6727,6.6696,6.6227,6.5633,6.496,6.414,6.3735,6.3473,6.3238,6.3196,6.3149,6.7975,6.6143,6.516,6.4462,6.4099,6.4087,6.4052,6.4014,6.404,6.3741,6.3247,6.2435,6.1607,6.0776,5.9625,0.0,0.0,0.0,6.0065,6.0893,6.0893,6.1151,6.1564,6.1573,6.1573,6.1588,6.1095,6.0717,6.0411,5.9865,5.8883,5.7577,0.0,0.0,5.9503,6.1198,6.2746,6.412,6.6555,6.8312,6.9393,7.0585,7.0611,6.9411,6.8044,6.6092,6.3633,6.2345,6.0588,5.8207,5.7113,5.5903,0.0,0.0,0.0,0.0,0.0,0.0,0.0,0.0,0.0,0.0,0.0,5.1375,5.1375,0.0,0.0,0.0,5.2234,5.278,5.3639,5.4186,0.0,0.0,0.0,0.0,0.0,0.0,0.0,5.8714,5.9768,6.0866,6.2052,6.2496,6.3242,6.4646,6.5269,6.5893,6.6706,0.0,6.6834,6.6834,6.6834,6.6839,6.6848,6.6883,6.6878,6.6898,6.6898,6.6742,6.6266,6.6575,6.6887,6.6878,6.6887,6.6895,6.6901,6.6461,6.5858,6.4999,6.4836,6.4726,6.4375,6.4295,6.4293,7.0323,6.9202,6.6876,6.5358,6.4527,6.4414,6.4364,6.4294,6.4259,6.4143,6.404,6.3249,6.2402,6.149,6.0028,0.0,0.0,6.0488,6.0871,6.1573,6.1603,6.1603,6.1595,6.1578,6.1578,6.1603,6.1603,6.1222,6.0542,6.0503,6.0059,5.9225,5.9278,5.965,6.0351,6.2013,6.3364,6.4309,6.7579,6.938,6.9614,7.117,7.1167,6.945,6.863,6.6951,6.4414,6.2774,6.1447,6.0388,5.8089,5.6723,5.6528,0.0,0.0,0.0,0.0,0.0,0.0,0.0,0.0,0.0,0.0,0.0,0.0,0.0,0.0,0.0,5.36,0.0,5.5318,5.5435,0.0,0.0,0.0,5.7894,5.7894,5.8675,5.9534,6.0315,0.0,0.0,0.0,0.0,6.4726,6.5586,6.5703,6.5976,6.6797,6.6904,6.6878,6.6878,6.6917,6.6883,6.6895,6.6891,6.6895,6.6914,6.6914,6.6875,6.6869,6.6865,6.6898,6.6887,6.6883,6.6887,6.6904,6.6856,6.6644,6.5829,6.5695,6.5469,6.4805,6.4648,6.4687,7.1698,7.0238,6.9587,6.8795,6.7956,6.7217,6.6903,6.6819,6.6174,6.5552,6.4892,6.4065,6.2935,6.1568,6.1175,6.1112,6.1322,6.1322,6.1424,6.1603,6.1603,6.1595,6.1578,6.1568,6.1586,6.1573,6.1603,6.1487,6.1307,6.1315,6.119,6.1032,6.1588,6.1684,6.1273,6.2935,6.4519,6.601,6.8193,6.9972,7.1322,7.1783,7.1167,6.945,6.9176,6.7576,6.4453,6.3906,6.2657,6.0505,5.9183,5.7933,5.6645,5.5357,0.0,0.0,0.0,0.0,0.0,0.0,0.0,0.0,0.0,5.3405,5.3366,0.0,5.3483,0.0,5.4498,5.5357,5.6216,5.684,0.0,0.0,5.8675,5.8792,5.8792,5.9573,6.0163,6.0393,6.155,6.2766,6.3872,6.476,6.5625,6.6445,6.6601,6.668,6.6875,6.6913,6.691,6.6901,6.6887,6.6917,6.6887,6.6904,6.6914,6.6914,6.6914,6.6914,6.6914,6.6913,6.6913,6.6911,6.6911,6.6912,6.6913,6.6912,6.6833,6.6638,6.6601,6.6562,6.6328,6.625,6.6249,7.2392,7.1156,7.1115,7.0797,7.0239,6.8953,6.8186,6.7752,6.7285,6.6586,6.5732,6.4934,6.3896,6.2746,6.2698,6.2726,6.2734,6.2695,6.2734,6.2678,6.2327,6.2162,6.2153,6.1802,6.1578,6.1595,6.1586,6.1586,6.1595,6.1556,6.1539,6.1588,6.2363,6.2717,6.2666,6.3936,6.5272,6.662,6.8798,7.0609,7.1951,7.1975,7.1167,6.9489,6.9411,6.7966,6.4999,6.4492,6.3438,6.1642,6.0354,5.9261,5.8324,5.6762,5.5669,0.0,0.0,0.0,0.0,0.0,0.0,0.0,0.0,0.0,0.0,0.0,5.4303,0.0,5.5942,5.6801,5.7621,5.8128,5.8562,5.9042,5.9433,5.9667,5.9667,6.0799,6.1577,6.1564,6.2755,6.3899,6.4756,6.531,6.5898,6.6758,6.6914,6.6914,6.6914,6.6914,6.6914,6.6911,6.6906,6.6901,6.6901,6.6911,6.6914,6.6914,6.6914,6.6914,6.6914,6.6914,6.6914,6.6914,6.6911,6.6906,6.6906,6.6912,6.6914,6.6914,6.6914,6.6914,6.6908,6.6906,6.6901,7.2842,7.2043,7.1872,7.1745,7.1587,7.0066,6.887,6.7946,6.7697,6.7115,6.6314,6.5609,6.4869,6.4091,6.407,6.4101,6.4101,6.4101,6.4101,6.4062,6.3361,6.301,6.2854,6.2114,6.1685,6.1607,6.1568,6.1568,6.1568,6.1549,6.1567,6.1684,6.2471,6.3326,6.4298,6.5125,6.6047,6.71,6.9557,7.124,7.1988,7.1981,7.1212,6.9645,6.945,6.8279,6.5858,6.4921,6.4062,6.3164,6.1486,6.0588,6.051,5.8246,5.6918,0.0,5.5513,0.0,0.0,0.0,0.0,0.0,0.0,0.0,0.0,5.4658,5.5283,5.6809,5.7586,5.8367,5.9187,5.9265,5.9347,5.9595,6.0266,6.0774,6.093,6.2258,6.3152,6.3178,6.3954,6.4789,6.5468,6.5664,6.6094,6.6758,6.6914,6.6914,6.6914,6.6914,6.6914,6.6914,6.6914,6.6914,6.6914,6.6914,6.6914,6.6914,6.6914,6.6913,6.6914,6.6914,6.6914,6.6914,6.6904,6.6883,6.6917,6.6904,6.6912,6.6914,6.6875,6.6871,6.6887,6.6878,6.6883,7.3664,7.2807,7.2017,7.1704,7.1661,7.127,7.0227,6.8674,6.7299,6.619,6.5444,6.5348,6.4844,6.413,6.4087,6.4081,6.4101,6.4101,6.4101,6.4101,6.3945,6.3517,6.2893,6.2737,6.2309,6.1607,6.1568,6.1568,6.1568,6.1539,6.1868,6.2585,6.3353,6.4531,6.598,0.0,0.0,0.0,7.1018,7.1786,7.1988,7.199,7.1506,7.0504,6.9762,0.0,6.6678,6.578,6.4965,6.4062,6.2384,0.0,0.0,0.0,0.0,0.0,0.0,0.0,0.0,0.0,0.0,0.0,5.8309,5.8147,5.8133,5.8144,5.827,5.8621,5.8778,5.9246,6.0066,6.0132,6.071,6.208,6.2414,6.2773,6.3476,6.3867,6.4062,6.4061,6.4803,6.539,6.5625,6.6211,6.668,6.6836,6.6914,6.6914,6.6914,6.6914,6.6914,6.6914,6.6914,6.6914,6.6914,6.6914,6.6914,6.6914,6.6904,6.6891,6.6891,6.6901,6.6906,6.6906,6.6904,6.6895,6.6878,6.6883,6.6891,6.6887,6.6848,6.6848,6.6917,6.6912,6.6878,7.4236,0.0,7.2521,7.2103,0.0,7.112,7.0407,6.9515,6.8235,6.6988,6.5887,6.5892,6.57,6.5336,6.5372,6.5395,6.5387,6.5387,6.5387,6.5387,6.4958,6.453,6.4101,6.3283,6.2698,6.2231,6.1802,6.1568,6.1607,6.1957,6.2352,6.2807,6.4001,6.5241,6.6508,6.8652,7.02,7.1115,7.247,7.3225,7.3264,7.289,7.2218,7.1363,0.0,0.0,0.0,0.0,0.0,0.0,0.0,0.0,0.0,0.0,0.0,6.0995,6.0223,5.9913,6.0305,5.9957,6.0116,6.0976,6.1406,6.0974,5.9304,5.9156,5.9324,5.9724,6.0115,6.074,6.1599,6.207,6.2695,6.3515,6.3631,6.3826,6.4255,6.4685,6.4919,6.5036,6.57,6.6247,6.6247,6.6599,6.6872,6.6911,6.6911,6.6911,6.6911,6.6908,6.6908,6.6914,6.6914,6.6914,6.6914,6.691,6.6904,6.6914,6.6898,6.6887,6.6917,6.6883,6.6891,6.6891,6.6891,6.6848,6.6839,6.6834,6.6834,6.6834,6.6834,6.6795,6.6834,6.6834,6.6834,7.4739,7.3416,7.327,7.271,7.1879,7.1007,7.0467,7.0118,0.0,0.0,0.0,6.6538,6.6581,6.6581,6.6657,6.668,6.6712,6.6712,6.6712,6.6673,6.5972,6.5543,6.5348,6.3984,6.3244,6.3097,6.2387,6.2075,6.2065,6.2713,6.3118,6.3378,6.4712,6.6081,6.7519,7.0548,7.2264,7.2529,7.3796,7.4545,7.4569,7.39,7.3123,7.2236,7.0665,6.945,6.8591,6.7068,6.6231,6.6054,6.5232,6.4682,6.4529,6.3701,6.323,6.316,6.1875,6.1406,6.2069,6.1482,6.1713,6.3149,6.3891,6.3122,6.0298,6.01,6.0383,6.1054,6.1757,6.246,6.3163,6.3855,6.4379,6.4492,6.4544,6.4594,6.4789,6.5375,6.5844,6.5883,6.6429,6.6898,6.6859,6.6859,6.6898,6.6898,6.6898,6.6901,6.6898,6.6891,6.6895,6.6914,6.6914,6.6914,6.6911,6.6901,6.6917,6.6878,6.6891,6.6895,6.6883,6.6873,6.6873,6.6878,6.6834,6.6795,6.6795,6.6795,6.6795,6.6795,6.6912,6.7029,6.7029,6.7185,6.7264,7.5354,7.5082,7.4343,7.3534,7.2724,7.252,7.1551,6.9997,6.8471,6.7282,6.6431,6.647,6.6553,6.6581,6.6633,6.6657,6.6712,6.6712,6.6712,0.0,6.6556,6.6127,6.5387,6.5153,6.4647,6.3945,6.3789,6.3741,6.3748,6.3881,6.4273,6.4973,6.5863,6.7868,7.0782,7.285,7.43,7.509,7.4723,7.4531,7.4603,7.4478,7.3983,7.3124,7.2167,7.1245,7.0348,6.9372,6.8535,6.7851,6.6992,6.6209,6.5446,6.4626,6.4125,6.4094,6.3899,6.3821,6.3935,6.3806,6.3833,6.4067,6.4223,6.4079,6.3627,6.359,6.3627,6.3742,6.3781,6.3977,6.4133,6.4284,6.4704,6.5316,6.5434,6.5707,6.6336,6.6527,6.6648,6.6648,6.68,6.6883,6.6883,6.6883,6.6883,6.6883,6.6883,6.6878,6.6883,6.6895,6.6895,6.6887,6.6883,6.6883,6.6887,6.6883,6.6873,6.6912,6.6839,6.6805,6.6839,6.6834,6.6834,6.6834,6.6873,6.6873,6.6873,6.6795,6.6951,6.7029,6.7498,6.7888,6.7927,6.8435,6.8747,7.5905,7.5478,7.5089,7.4412,7.3562,7.3045,7.1784,7.0054,6.9305,6.8584,6.7859,6.7891,6.768,6.7321,6.7282,6.7358,6.7413,6.7413,6.7413,6.7413,6.7413,6.6946,6.6127,6.5621,6.5192,6.4803,6.4296,6.4081,6.4137,6.4531,6.5194,6.61,6.814,7.0011,7.1636,7.3783,7.5128,7.5651,7.5767,7.5897,7.5969,7.5529,7.5113,7.4726,7.3433,7.2296,7.1437,7.0562,6.9716,6.8896,6.8463,6.807,6.7672,6.6844,6.6371,6.634,6.552,6.5208,6.5638,6.5668,6.5663,6.5663,6.5663,6.5668,6.5638,6.4818,6.431,6.431,6.47,6.5013,6.5013,6.5403,6.5833,6.6209,6.6249,6.6405,6.6756,6.6834,6.6834,6.6834,6.6834,6.6834,6.6834,6.6834,6.6834,6.6873,6.6834,6.6873,6.6912,6.7273,6.7395,6.6956,6.6834,6.6834,6.6873,6.6834,6.6834,6.6834,6.6795,6.6795,6.6795,6.6834,6.6834,6.6834,6.7146,6.7459,6.7498,6.7932,6.8127,6.8245,6.8479,6.8791,6.8903,6.9489,6.9723,7.6319,7.5754,7.5754,7.5271,7.436,7.3471,7.2133,7.0672,7.0699,7.0311,6.9592,6.9273,6.8769,6.8203,6.8177,6.8214,6.8299,6.831,6.8271,6.831,6.8271,6.792,6.7257,6.64,6.6011,6.5894,6.5104,6.4704,6.4749,6.5492,6.64,6.7588,7.0149,7.1684,7.2219,7.4373,7.5681,7.6171,7.6926,7.7215,7.7101,7.6462,7.6089,7.582,7.4609,7.3476,7.2617,7.1945,7.1092,7.0079,6.9996,6.9806,6.9394,6.8757,6.8396,6.8279,6.7185,6.6717,6.7297,6.718,6.7102,6.7102,6.6907,6.6795,6.6717,6.5624,6.4882,6.496,6.5507,6.5858,6.5936,6.6366,6.6795,6.6795,6.6795,6.6795,6.6795,6.6795,6.6795,6.6795,6.6795,6.6834,6.7029,6.7107,6.7224,6.7459,6.7381,6.7381,6.7459,6.8005,6.8044,6.7654,6.7381,6.7459,6.7381,6.7459,6.7498,6.7381,6.742,6.7537,6.7537,6.7459,6.742,6.7576,6.7966,6.8318,6.8474,6.8864,6.9221,6.9215,6.945,6.9762,7.0035,7.0543,7.0699,7.6651,7.6609,7.657,7.605,7.512,7.4247,7.3295,7.2397,7.2442,7.2037,7.1164,6.9778,6.9157,6.9059,6.9072,6.911,6.9167,6.9167,6.9167,6.9167,6.9167,6.9128,6.8894,6.8154,6.7764,6.7598,6.6886,6.6423,6.6438,6.7178,6.838,6.9888,7.1007,7.2365,7.3873,7.4942,7.6255,7.7884,7.8113,7.7823,7.714,7.7009,7.6636,7.5898,7.5781,7.5273,7.4336,7.4257,7.3435,7.1953,7.1714,7.105,6.9645,6.9333,6.9294,6.9294,6.9098,6.9093,6.9075,6.8411,6.7982,6.7904,6.7319,6.6895,6.6873,6.6717,6.6561,6.66,6.6639,6.6639,6.6678,6.6756,6.6795,6.6795,6.6873,6.6795,6.6873,6.6795,6.6795,6.6795,6.699,6.7068,6.7849,6.7966,6.8279,6.8825,6.8825,6.8864,6.8903,6.9098,6.9255,6.9137,6.9137,6.9103,6.9025,6.9137,6.8942,6.8981,6.9098,6.8942,6.8864,6.8903,6.9098,6.8669,6.9098,6.9255,6.9294,6.9411,6.9489,6.984,7.023,7.0777,7.148,7.1714,7.1441,7.669,7.6687,7.6687,7.6167,7.5314,7.4906,7.4224,7.3403,7.345,7.3278,7.2948,7.238,7.1319,6.9925,6.9953,6.998,7.0006,7.003,6.9991,7.0006,7.0018,6.9757,6.9239,6.8872,6.8689,6.8705,6.8343,6.8124,6.8294,6.89,6.9849,7.1042,7.2308,7.3627,7.4885,7.5701,7.6782,7.809,7.8258,7.8389,7.848,7.8098,7.773,7.7422,7.6953,7.625,7.5469,7.539,7.4569,7.2948,7.2778,7.2221,7.1011,7.0465,7.0191,7.0152,6.9673,6.9393,6.9387,6.9022,6.8819,6.8819,6.8507,6.828,6.8287,6.8294,6.834,6.8228,6.7414,6.6795,6.6834,6.6795,6.6795,6.6873,6.7264,6.7576,6.7576,6.8005,6.8318,6.8318,6.8318,6.8435,6.8747,6.8864,6.902,6.9333,6.9411,6.9489,6.945,6.9801,7.0152,7.023,7.0582,7.0426,6.9723,6.9411,6.945,6.9411,6.9411,6.9411,6.9489,6.9411,6.9372,6.945,6.9879,7.0152,7.0191,7.066,7.0933,7.0972,7.105,7.1597,7.1948,7.1987,7.1792,7.671,7.6687,7.6687,7.6283,7.5643,7.5643,7.5115,7.4293,7.4302,7.4188,7.4014,7.4109,7.319,7.1606,7.1262,7.1198,7.1173,7.0927,7.0849,7.0823,7.0836,7.0486,6.9928,6.9655,6.955,6.9511,6.9253,6.9267,6.9536,7.0269,7.1076,7.1995,7.353,7.4673,7.5391,7.6206,7.7213,7.8318,7.8546,7.9159,8.0064,7.9538,7.8901,7.8476,7.7656,7.6875,7.6289,7.625,7.5585,7.4095,7.3803,7.3236,7.2378,7.1519,7.1045,7.1,7.0447,7.0082,7.0075,6.9826,6.9662,6.9614,6.9458,6.9311,6.9319,6.9366,6.9373,6.9263,6.8216,6.7526,6.7498,6.7498,6.7498,6.7576,6.8122,6.8474,6.8513,6.9059,6.9333,6.9411,6.9215,6.9489,6.9723,6.9957,7.0191,7.023,7.0191,7.0113,7.0152,7.066,7.105,7.1089,7.1597,7.1441,7.0348,7.023,7.0113,7.0113,7.023,7.027,7.0113,7.0113,7.0152,7.066,7.0894,7.1011,7.105,7.1636,7.1909,7.1987,7.1987,7.1948,7.1987,7.1987,7.1987,7.6633,7.6687,7.6687,7.6632,7.6534,7.6496,7.5968,7.5044,7.5111,7.4749,7.4169,7.4189,7.4109,7.3929,7.32,7.2896,7.2769,7.2068,7.1757,7.1743,7.169,7.1651,7.1562,7.0848,7.0512,7.0577,6.9953,6.9818,7.0448,7.1148,7.1947,7.281,7.4402,7.5214,7.5488,7.6263,7.7467,7.8971,7.9364,8.0279,8.1672,8.1217,8.0032,7.8711,7.7695,7.7187,7.7109,7.7109,7.668,7.5781,7.4904,7.4101,7.3275,7.2378,7.1864,7.1799,7.1767,7.1714,7.1594,7.0961,7.0532,7.0454,6.9908,6.9372,6.9545,6.9545,6.9553,6.9397,6.9358,6.9217,6.9249,6.9054,6.9059,6.9098,6.9255,6.9372,6.9333,6.9528,6.9411,6.9528,6.9645,6.9957,7.0582,7.1363,7.1597,7.1675,7.1792,7.1714,7.1636,7.1792,7.1831,7.1831,7.1909,7.1948,7.187,7.148,7.1597,7.1519,7.1324,7.1675,7.1831,7.187,7.1792,7.1753,7.1714,7.1753,7.187,7.1948,7.1987,7.1987,7.1987,7.1987,7.1987,7.1987,7.1987,7.6633,7.6687,7.6687,7.6671,7.6612,7.6612,7.6355,7.5933,7.6001,7.589,7.572,7.5741,7.5778,7.5754,7.4956,7.4312,7.3783,7.3449,7.3294,7.3317,7.3301,7.3301,7.3278,7.2983,7.2842,7.2818,7.2531,7.2485,7.2763,7.309,7.3622,7.4325,7.4925,7.5503,7.6105,7.6979,7.8069,7.9248,7.992,8.0881,8.1937,8.1396,8.0687,8.0078,7.875,7.7773,7.7226,7.7226,7.6797,7.5937,7.5069,7.4193,7.3359,7.2456,7.1982,7.1884,7.1901,7.1924,7.1858,7.1565,7.137,7.1321,7.1087,7.0863,7.0912,7.0922,7.097,7.094,7.0949,7.0965,7.0778,7.0089,6.9393,6.9471,6.9913,7.023,7.0348,7.0699,7.105,7.105,7.105,7.1245,7.1402,7.1792,7.1987,7.1987,7.1987,7.1987,7.1987,7.1987,7.1987,7.1987,7.1987,7.1987,7.1987,7.1987,7.1987,7.1948,7.1909,7.187,7.1948,7.1987,7.187,7.187,7.1987,7.1987,7.1948,7.1948,7.1987,7.1987,7.1987,7.1987,7.1987,7.1987,7.1987,7.6652,7.6669,7.6687,7.6671,7.6612,7.6612,7.651,7.6421,7.6444,7.6488,7.6591,7.6652,7.6691,7.663,7.6143,7.5599,7.4939,7.4467,7.4195,7.42,7.42,7.42,7.42,7.4195,7.4172,7.4188,7.4188,7.4195,7.4239,7.4395,7.4808,7.5255,7.5503,7.604,7.6853,7.7578,7.8457,7.9562,8.0357,8.113,8.1909,8.1648,8.1217,8.082,7.9647,7.8476,7.7656,7.7344,7.6953,7.6287,7.5501,7.4513,7.3398,7.2456,7.1976,7.1909,7.1885,7.1867,7.1887,7.1827,7.1817,7.1778,7.1817,7.1817,7.1817,7.1838,7.1848,7.1848,7.1858,7.1867,7.1681,7.0871,7.0216,7.027,7.0753,7.1072,7.1111,7.1579,7.1858,7.1864,7.187,7.1948,7.1987,7.1987,7.1987,7.1987,7.1987,7.1987,7.1987,7.1987,7.1987,7.1987,7.1987,7.1987,7.1987,7.1987,7.1987,7.1987,7.1987,7.1987,7.1987,7.1987,7.1987,7.1987,7.1987,7.1987,7.1987,7.1987,7.1987,7.1987,7.1987,7.1987,7.1987,7.1987,7.1987,7.6749,7.6786,7.6726,7.673,7.6612,7.669,7.6588,7.6537,7.6475,7.6637,7.6859,7.6746,7.6924,7.6808,7.6786,7.6687,7.6376,7.5133,7.4472,7.4472,7.4395,7.4434,7.4434,7.4472,7.4489,7.4444,7.4289,7.4312,7.4472,7.5055,7.5447,7.5488,7.6156,7.6846,7.7674,7.7982,7.8863,8.0107,8.0676,8.1208,8.196,8.2093,8.1786,8.1095,8.0188,7.9336,7.8515,7.7656,7.7187,7.7061,7.6277,7.5099,7.3476,7.2534,7.2008,7.1924,7.1906,7.1897,7.1827,7.1817,7.1817,7.1817,7.1817,7.1817,7.1817,7.1817,7.1817,7.1827,7.1827,7.1827,7.1827,7.1711,7.1653,7.1846,7.1737,7.1745,7.1815,7.1854,7.1901,7.1924,7.1937,7.1987,7.1987,7.1987,7.1987,7.1987,7.1987,7.1987,7.1987,7.1987,7.1987,7.1987,7.1987,7.1987,7.1987,7.1987,7.1987,7.1987,7.1987,7.1987,7.1987,7.1987,7.1987,7.1987,7.1987,7.1987,7.1987,7.1987,7.1987,7.1987,7.1987,7.1987,7.1987,7.1987,7.1987,7.8008,7.7622,7.8126,7.762,7.6704,7.7169,7.7395,7.7287,7.7287,7.7643,7.8154,7.8253,7.8318,7.8224,7.7797,7.7544,7.7503,7.6454,7.591,7.5871,7.5871,7.5871,7.5871,7.591,7.5949,7.5927,7.5927,7.5927,7.591,7.6104,7.6205,7.6341,7.6947,7.7403,7.7814,7.8889,7.9925,8.0417,8.117,8.1719,8.2026,8.2143,8.2039,8.1792,8.1015,8.0195,7.9336,7.7969,7.7265,7.7176,7.6355,7.5099,7.3632,7.3041,7.2594,7.201,7.1915,7.1897,7.1827,7.1817,7.1817,7.1817,7.1817,7.1817,7.1817,7.1817,7.1817,7.1817,7.1817,7.1817,7.1817,7.1817,7.1838,7.1906,7.1885,7.1885,7.1885,7.1885,7.1893,7.1909,7.193,7.1943,7.1937,7.1943,7.1987,7.1987,7.1987,7.1987,7.1987,7.1982,7.1987,7.1987,7.1987,7.1987,7.1982,7.1976,7.1976,7.1976,7.1976,7.1982,7.1982,7.1982,7.1982,7.1987,7.1987,7.1987,7.1987,7.1987,7.1987,7.1987,7.1987,7.1987,7.1987,7.1987,7.1987,7.8718,7.8434,7.8878,7.8469,7.7495,7.8037,7.8185,7.8177,7.8177,7.851,7.8921,7.9006,7.905,7.8959,7.8282,7.7914,7.7875,7.7059,7.6671,7.6671,7.669,7.669,7.6708,7.6669,7.6687,7.6687,7.6687,7.6669,7.6708,7.6941,7.7059,7.7173,7.7798,7.837,7.8665,7.968,8.0445,8.0919,8.1524,8.1904,8.1998,8.2112,8.2179,8.2059,8.1438,8.0586,7.9687,7.8356,7.753,7.713,7.6345,7.5321,7.429,7.3666,7.299,7.2487,7.2071,7.1858,7.1827,7.1817,7.1817,7.1817,7.1817,7.1817,7.1817,7.1817,7.1817,7.1817,7.1817,7.1817,7.1817,7.1817,7.1827,7.1877,7.1858,7.1867,7.1867,7.1867,7.1906,7.1915,7.1893,7.1909,7.1916,7.1924,7.1969,7.1969,7.1969,7.1969,7.1969,7.1969,7.1969,7.1976,7.1943,7.1937,7.1969,7.1963,7.1924,7.1924,7.1924,7.1924,7.1963,7.1963,7.1963,7.1969,7.1969,7.1948,7.1948,7.1948,7.1948,7.1948,7.1987,7.1987,7.1987,7.1987,7.2026,7.9144,7.9149,7.9227,7.9144,7.8889,7.8983,7.9076,7.9067,7.9067,7.9144,7.9245,7.9385,7.9315,7.9067,7.8646,7.824,7.7853,7.7175,7.669,7.6671,7.6652,7.6672,7.6691,7.669,7.6729,7.6863,7.6863,7.6884,7.7118,7.766,7.7933,7.796,7.8665,7.9376,7.9903,8.0299,8.0865,8.1491,8.1737,8.1852,8.1975,8.2065,8.2123,8.2176,8.1523,8.0781,7.9922,7.8894,7.801,7.7218,7.6404,7.5897,7.5462,7.4251,7.3537,7.315,7.2383,7.2014,7.1866,7.1817,7.1817,7.1817,7.1817,7.1817,7.1817,7.1817,7.1817,7.1817,7.1817,7.1817,7.1817,7.1817,7.1817,7.1817,7.1827,7.1827,7.1817,7.1866,7.1877,7.1887,7.1916,7.1916,7.1885,7.1893,7.1893,7.1893,7.1901,7.1901,7.1901,7.1901,7.1893,7.1909,7.1924,7.1924,7.1955,7.1932,7.1924,7.194,7.1901,7.1901,7.1909,7.194,7.194,7.1909,7.1916,7.1897,7.1903,7.193,7.1903,7.1909,7.1948,7.1987,7.1987,7.1987,7.2221,8.0484,8.0004,8.0585,8.0135,7.9168,7.9594,7.9903,7.9879,7.9879,8.0227,8.0691,8.0846,8.0779,8.0787,7.9997,7.936,7.8684,7.793,7.7134,7.6588,7.651,7.6591,7.6632,7.6652,7.7001,7.7506,7.7583,7.7894,7.8416,7.8612,7.8727,7.8734,7.9555,8.0034,8.0251,8.0909,8.1296,8.1591,8.1713,8.1796,8.1869,8.2012,8.2094,8.2092,8.1959,8.1433,8.0585,7.9212,7.802,7.7218,7.6945,7.6438,7.5852,7.5305,7.4474,7.3423,7.2986,7.2491,7.1944,7.1817,7.1817,7.1817,7.1817,7.1817,7.1817,7.1817,7.1817,7.1817,7.1817,7.1817,7.1817,7.1817,7.1817,7.1817,7.1817,7.1817,7.1817,7.1817,7.1817,7.1827,7.1856,7.1877,7.1897,7.1897,7.1897,7.1876,7.1885,7.1885,7.1885,7.1885,7.1876,7.1885,7.1901,7.1901,7.1893,7.1897,7.1887,7.1906,7.1915,7.1924,7.1924,7.1893,7.1893,7.1893,7.1893,7.187,7.1893,7.1924,7.1909,7.1891,7.1909,7.1948,7.1987,7.2026,7.2456,8.1233,8.0769,8.131,8.0962,8.015,8.0575,8.0769,8.0769,8.0769,8.1001,8.1465,8.1504,8.1528,8.1437,8.0624,8.0028,7.947,7.8757,7.8076,7.7705,7.7605,7.7456,7.7306,7.7405,7.793,7.8318,7.8395,7.8646,7.9033,7.9343,7.9515,7.9757,8.073,8.1271,8.1451,8.2122,8.2432,8.2225,8.2173,8.2164,8.1854,8.1968,8.2077,8.2084,8.2117,8.1725,8.0456,7.9122,7.8015,7.7302,7.7062,7.6828,7.6399,7.5969,7.5176,7.3813,7.3415,7.2764,7.2022,7.1817,7.1817,7.1817,7.1817,7.1817,7.1817,7.1817,7.1817,7.1817,7.1817,7.1817,7.1817,7.1817,7.1817,7.1817,7.1817,7.1817,7.1817,7.1817,7.1817,7.1817,7.1817,7.1866,7.1877,7.1866,7.1877,7.1848,7.1858,7.1858,7.1858,7.1867,7.1867,7.1867,7.1867,7.1867,7.1867,7.1877,7.1866,7.1877,7.1887,7.1897,7.1858,7.1867,7.1867,7.1867,7.1867,7.1858,7.1858,7.1887,7.1897,7.1893,7.1884,7.1909,7.1987,7.2339,7.2768,8.162,8.162,8.1542,8.1504,8.1426,8.1504,8.1426,8.1465,8.1426,8.1465,8.1504,8.1504,8.1504,8.1465,8.0807,8.0304,8.0111,7.9439,7.9091,7.8873,7.8834,7.8704,7.8286,7.8563,7.8934,7.9166,7.9227,7.9299,7.9703,8.0245,8.0531,8.0948,8.2161,8.2819,8.2857,8.3554,8.3631,8.3153,8.3057,8.2721,8.2242,8.2176,8.2207,8.2077,8.2179,8.1467,8.0224,7.9047,7.8188,7.729,7.7173,7.7056,7.6939,7.6281,7.556,7.4671,7.3865,7.3027,7.2139,7.1934,7.1817,7.1817,7.1817,7.1817,7.1817,7.1817,7.1817,7.1817,7.1817,7.1817,7.1817,7.1817,7.1817,7.1817,7.1817,7.1817,7.1817,7.1817,7.1817,7.1817,7.1817,7.1817,7.1817,7.1817,7.1817,7.1838,7.1838,7.1838,7.1838,7.1838,7.1838,7.1838,7.1827,7.1827,7.1827,7.1817,7.1817,7.1827,7.1827,7.1827,7.1827,7.1838,7.1827,7.1827,7.1838,7.1838,7.1827,7.1866,7.1866,7.1897,7.1909,7.1937,7.2026,7.2651,7.3158,8.2509,8.2471,8.1774,8.1504,8.1504,8.1504,8.1542,8.1504,8.1504,8.1504,8.1504,8.1504,8.1504,8.1504,8.1233,8.0885,8.0304,7.9995,7.9647,7.9105,7.9685,7.984,7.9555,7.9424,7.9424,7.9811,7.9966,8.0329,8.0948,8.1644,8.2225,8.2393,8.3128,8.3824,8.3902,8.4095,8.4095,8.3837,8.3861,8.3506,8.2915,8.2728,8.2543,8.2129,8.2133,8.1687,8.0719,7.9799,7.8924,7.8152,7.7465,7.7075,7.7036,7.6833,7.6271,7.5434,7.4597,7.3758,7.2919,7.2245,7.1817,7.1817,7.1817,7.1817,7.1817,7.1817,7.1817,7.1817,7.1817,7.1817,7.1806,7.1817,7.1817,7.1806,7.1806,7.1817,7.1817,7.1817,7.1817,7.1817,7.1817,7.1817,7.1817,7.1817,7.1817,7.1817,7.1817,7.1817,7.1817,7.1817,7.1817,7.1817,7.1817,7.1817,7.1817,7.1817,7.1817,7.1817,7.1817,7.1817,7.1817,7.1817,7.1817,7.1817,7.1817,7.1817,7.1817,7.1817,7.1817,7.1858,7.1932,7.2047,7.23,7.2924,7.3705,8.3399,8.336,8.2896,8.2471,8.2161,8.2084,8.1852,8.1581,8.1504,8.1504,8.1504,8.1504,8.1504,8.1504,8.1504,8.1194,8.0923,8.0807,8.0614,8.0343,8.0653,8.0807,8.0923,8.0807,8.0885,8.0962,8.1271,8.1697,8.2238,8.2896,8.336,8.3476,8.425,8.4637,8.4792,8.5024,8.5036,8.4727,8.4688,8.4311,8.3623,8.3211,8.2725,8.2139,8.205,8.1763,8.0852,8.0007,7.9208,7.834,7.7541,7.7051,7.7059,7.7004,7.6556,7.5767,7.5357,7.4333,7.3347,7.2674,7.2245,7.1856,7.1817,7.1817,7.1817,7.1806,7.1794,7.1794,7.1782,7.177,7.1731,7.1731,7.177,7.177,7.177,7.1782,7.1794,7.1806,7.1817,7.1817,7.1817,7.1817,7.1817,7.1817,7.1817,7.1817,7.1817,7.1817,7.1817,7.1817,7.1817,7.1817,7.1817,7.1817,7.1817,7.1817,7.1817,7.1817,7.1817,7.1817,7.1817,7.1817,7.1817,7.1817,7.1817,7.1817,7.1817,7.1817,7.1817,7.1887,7.1963,7.2164,7.2651,7.3471,7.429,8.4289,8.425,8.4173,8.367,8.3051,8.2973,8.2625,8.2006,8.189,8.2122,8.1929,8.1929,8.2161,8.2006,8.2045,8.1929,8.1929,8.1968,8.1968,8.1968,8.1968,8.2045,8.2161,8.2432,8.2509,8.2045,8.2548,8.2935,8.3206,8.3824,8.4405,8.4598,8.5333,8.5836,8.5939,8.63,8.6339,8.5643,8.5514,8.5177,8.4413,8.3829,8.3232,8.2419,8.2065,8.1816,8.107,8.0318,7.945,7.8492,7.7646,7.7209,7.7024,7.6946,7.6731,7.5913,7.5775,7.5023,7.4077,7.3453,7.2986,7.2206,7.2245,7.2284,7.2312,7.2444,7.2471,7.2381,7.2368,7.2354,7.2107,7.2354,7.2302,7.2224,7.2146,7.2121,7.2147,7.2145,7.2284,7.1817,7.1817,7.1817,7.1817,7.1817,7.1817,7.1817,7.1817,7.1817,7.1817,7.1817,7.1817,7.1817,7.1817,7.1817,7.1817,7.1856,7.1856,7.1973,7.1934,7.1973,7.1934,7.1817,7.1817,7.1817,7.1817,7.1817,7.1817,7.1817,7.1827,7.1877,7.2197,7.2561,7.3236,7.4056,7.4837,8.5101,8.5062,8.4366,8.4018,8.3902,8.3902,8.3747,8.3708,8.3515,8.367,8.3592,8.3631,8.3515,8.3554,8.367,8.3631,8.3438,8.336,8.3476,8.3476,8.3438,8.3438,8.3476,8.367,8.3747,8.3747,8.3979,8.4057,8.4057,8.4675,8.5526,8.6223,8.6958,8.7345,8.7383,8.7577,8.719,8.6494,8.63,8.5862,8.5307,8.4854,8.41,8.294,8.2403,8.1998,8.1663,8.1,8.0208,7.9337,7.8531,7.7751,7.7217,7.705,7.6894,7.6621,7.6153,7.5558,7.5012,7.4505,7.4194,7.3999,7.3804,7.3832,7.3847,7.3834,7.3613,7.3664,7.3664,7.3781,7.3858,7.3572,7.3781,7.3781,7.3688,7.3703,7.3717,7.36,7.3169,7.2351,7.2078,7.1895,7.2,7.1961,7.1806,7.1817,7.1817,7.1817,7.1817,7.1817,7.1817,7.1817,7.1817,7.1817,7.1817,7.1895,7.1973,7.2245,7.2284,7.2284,7.2206,7.1895,7.1817,7.2284,7.2089,7.1817,7.1817,7.1817,7.1973,7.2139,7.2557,7.2996,7.3855,7.4669,7.5266,8.5991,8.5952,8.5526,8.514,8.4753,8.4714,8.4482,8.4134,8.4095,8.4095,8.4095,8.4095,8.4095,8.4095,8.4095,8.4095,8.4134,8.4095,8.4095,8.4095,8.4095,8.4095,8.425,8.4521,8.4675,8.4985,8.5488,8.5449,8.4946,8.6068,8.6803,8.7345,8.8157,8.8544,8.8428,8.8079,8.777,8.7267,8.6842,8.6455,8.5964,8.5669,8.4591,8.3367,8.2766,8.237,8.182,8.1219,8.0624,8.0,7.8948,7.8207,7.7701,7.7272,7.6999,7.6921,7.6571,7.6103,7.578,7.5246,7.4895,7.4427,7.4455,7.4392,7.4366,7.4261,7.4389,7.432,7.4266,7.4266,7.4188,7.4305,7.4266,7.4266,7.4305,7.432,7.4296,7.4272,7.3794,7.312,7.286,7.2679,7.2444,7.23,7.1911,7.1806,7.1856,7.1934,7.2011,7.205,7.2167,7.2128,7.2206,7.2362,7.2401,7.2479,7.2557,7.2752,7.283,7.283,7.2947,7.2869,7.3025,7.3375,7.2908,7.2206,7.1856,7.1895,7.2128,7.244,7.2949,7.354,7.4414,7.5209,7.584,8.661,8.661,8.661,8.6184,8.5643,8.5565,8.5217,8.4675,8.4675,8.4714,8.4598,8.4637,8.4675,8.4637,8.4675,8.4637,8.4598,8.4675,8.4753,8.4792,8.4792,8.4675,8.483,8.5178,8.5681,8.6184,8.688,8.719,8.6455,8.7345,8.8079,8.8582,8.9201,8.9433,8.9279,8.8931,8.8466,8.7925,8.7345,8.688,8.6455,8.5759,8.4752,8.3363,8.3136,8.265,8.1929,8.1415,8.0999,8.0481,7.9637,7.8702,7.8246,7.7662,7.7194,7.7038,7.6999,7.661,7.622,7.5986,7.5713,7.5273,7.4976,7.4963,7.4962,7.5074,7.4856,7.4706,7.4783,7.4861,7.4994,7.4783,7.4822,7.4822,7.4878,7.4761,7.4933,7.4989,7.5066,7.4499,7.3884,7.3542,7.3366,7.3198,7.2926,7.2899,7.2951,7.2924,7.2963,7.283,7.283,7.2713,7.2752,7.2986,7.3142,7.3336,7.3492,7.3676,7.3765,7.3765,7.396,7.4116,7.4233,7.4116,7.357,7.2869,7.244,7.2323,7.2919,7.3347,7.3542,7.406,7.4987,7.5716,7.631,8.661,8.661,8.661,8.6532,8.6416,8.6377,8.6377,8.6261,8.6184,8.63,8.6107,8.6223,8.6184,8.6145,8.6145,8.6223,8.6223,8.6107,8.6029,8.5991,8.6029,8.6029,8.6223,8.6339,8.6803,8.7267,8.777,8.7809,8.7809,8.8621,8.9356,8.9859,9.0052,9.0246,9.0246,8.9898,8.9743,8.9008,8.8157,8.7383,8.6648,8.5888,8.4994,8.4172,8.3423,8.2786,8.2164,8.177,8.1447,8.0871,8.0663,7.9741,7.8624,7.8246,7.7701,7.7272,7.6999,7.696,7.6765,7.6676,7.6637,7.63,7.6365,7.6519,7.6241,7.6155,7.6104,7.6415,7.6298,7.6182,7.6104,7.6259,7.6337,7.6221,7.6026,7.6104,7.6182,7.5733,7.581,7.5772,7.515,7.4678,7.4389,7.4209,7.4067,7.4042,7.4016,7.3951,7.3834,7.3625,7.3531,7.3414,7.3442,7.3637,7.3999,7.4194,7.4505,7.4689,7.4767,7.4806,7.4973,7.509,7.4739,7.4505,7.4116,7.4077,7.4038,7.4077,7.4166,7.4283,7.4466,7.4934,7.5519,7.6165,7.6741,8.661,8.661,8.661,8.661,8.661,8.661,8.661,8.661,8.661,8.661,8.661,8.661,8.661,8.661,8.661,8.661,8.661,8.661,8.661,8.661,8.661,8.661,8.6687,8.7074,8.7654,8.8106,8.8814,8.9395,8.9472,8.9627,9.013,9.04,9.0865,9.1135,9.0981,9.0633,9.0246,8.9588,8.866,8.777,8.7228,8.6546,8.5706,8.4948,8.4117,8.3289,8.2631,8.2064,8.1809,8.133,8.1112,8.0259,7.9196,7.8546,7.7896,7.7116,7.6975,7.6975,7.6948,7.6975,7.6923,7.6897,7.6869,7.6731,7.676,7.6743,7.6687,7.6687,7.6687,7.6687,7.6687,7.6687,7.6687,7.6687,7.6687,7.6687,7.6687,7.6687,7.6493,7.6493,7.6376,7.5827,7.5238,7.4826,7.4607,7.452,7.4442,7.4378,7.4275,7.408,7.408,7.4116,7.4209,7.434,7.4755,7.509,7.5519,7.578,7.6052,7.6064,7.6025,7.5947,7.5635,7.5713,7.5791,7.5791,7.5713,7.5207,7.47,7.5012,7.5402,7.5791,7.6142,7.6454,7.6916,8.6803,8.661,8.661,8.661,8.661,8.661,8.661,8.661,8.661,8.661,8.661,8.661,8.661,8.661,8.661,8.661,8.661,8.661,8.661,8.661,8.6648,8.6764,8.7112,8.7654,8.8118,8.8532,8.9627,9.0323,9.0594,9.0749,9.0749,9.0749,9.129,9.16,9.1522,9.1135,9.0671,9.0207,8.924,8.8582,8.8118,8.7383,8.6571,8.573,8.4793,8.385,8.3097,8.2318,8.189,8.1735,8.1415,8.0722,7.9856,7.9066,7.83,7.7508,7.717,7.6936,7.6949,7.6949,7.6897,7.6869,7.6825,7.676,7.6704,7.6687,7.6687,7.6687,7.6687,7.6687,7.6687,7.6687,7.6687,7.6687,7.6687,7.6687,7.6687,7.6687,7.6687,7.6648,7.657,7.6609,7.6005,7.54,7.5105,7.4981,7.4919,7.4856,7.4856,7.4831,7.5001,7.5171,7.5275,7.539,7.5624,7.6015,7.6495,7.6637,7.687,7.6909,7.6688,7.6688,7.6571,7.6804,7.6999,7.6804,7.6337,7.5752,7.5246,7.5752,7.622,7.6415,7.6688,7.6921,7.7011,8.7345,8.661,8.6648,8.6648,8.661,8.661,8.661,8.661,8.661,8.661,8.661,8.6648,8.6726,8.6726,8.688,8.688,8.6726,8.6648,8.6842,8.6842,8.6687,8.7267,8.7731,8.8196,8.8776,8.982,9.0478,9.0942,9.1367,9.1367,9.1484,9.1638,9.1638,9.1677,9.1677,9.1484,9.1097,9.0671,9.0014,8.9588,8.9008,8.8196,8.7332,8.6441,8.5119,8.3829,8.3058,8.2416,8.195,8.1931,8.1753,8.1259,8.0396,7.9764,7.8961,7.8168,7.7399,7.7205,7.7142,7.6986,7.684,7.6809,7.676,7.6687,7.6687,7.6687,7.6687,7.6687,7.6687,7.6687,7.6687,7.6687,7.6687,7.6687,7.6687,7.6687,7.6687,7.6687,7.6687,7.6687,7.6687,7.6687,7.6687,7.6044,7.5849,7.5766,7.586,7.5821,7.6008,7.6047,7.6295,7.6427,7.6504,7.6591,7.6621,7.6832,7.6738,7.6741,7.691,7.6962,7.6909,7.6987,7.6987,7.6999,7.6999,7.6999,7.696,7.6454,7.622,7.6688,7.696,7.6843,7.6843,7.696,7.7011,8.8505,8.8157,8.7615,8.7112,8.661,8.661,8.661,8.661,8.661,8.661,8.6648,8.7112,8.7422,8.7538,8.8041,8.8196,8.8196,8.8196,8.8157,8.8196,8.8312,8.8428,8.8776,8.9201,8.982,9.0439,9.0865,9.129,9.1638,9.1716,9.1716,9.1716,9.1716,9.1716,9.1716,9.1716,9.1445,9.1174,9.071,9.0207,8.9782,8.8582,8.7758,8.741,8.587,8.4682,8.3854,8.3058,8.2475,8.2009,8.1911,8.1442,8.0854,8.0357,7.9734,7.8902,7.8092,7.7704,7.7431,7.7175,7.6832,7.676,7.6726,7.6687,7.6687,7.6687,7.6687,7.6687,7.6687,7.6687,7.6687,7.6687,7.6687,7.6687,7.6687,7.6687,7.6687,7.6687,7.6669,7.6708,7.6687,7.6687,7.6687,7.6609,7.6609,7.6609,7.6704,7.676,7.6777,7.6793,7.6793,7.6793,7.6809,7.6832,7.686,7.6838,7.6848,7.6864,7.6894,7.6936,7.6923,7.6923,7.6923,7.6987,7.6999,7.6999,7.6999,7.6999,7.6999,7.6999,7.6999,7.696,7.6999,7.6987,7.6999,8.9395,8.9124,8.8544,8.7809,8.7035,8.6687,8.661,8.661,8.661,8.6803,8.7035,8.7886,8.8273,8.8466,8.8814,8.9124,8.9047,8.9047,8.9124,8.9085,8.9047,8.9317,8.9704,9.0052,9.04,9.0826,9.1251,9.1716,9.1716,9.1716,9.1716,9.1716,9.1716,9.1716,9.1716,9.1716,9.1716,9.1522,9.1213,9.0787,9.0555,8.9511,8.8505,8.8197,8.6737,8.5297,8.4277,8.3387,8.265,8.2145,8.1854,8.16,8.117,8.072,8.0364,7.9687,7.9026,7.8409,7.796,7.7321,7.6799,7.6726,7.6687,7.6687,7.6687,7.6687,7.6687,7.6687,7.6687,7.6687,7.6687,7.6687,7.6687,7.6687,7.6687,7.6687,7.6687,7.6687,7.6708,7.669,7.6708,7.669,7.6708,7.6708,7.6669,7.6687,7.6687,7.6743,7.6743,7.6704,7.6704,7.6743,7.6704,7.6743,7.6764,7.6743,7.6777,7.6816,7.6848,7.6894,7.6883,7.6883,7.691,7.6923,7.6936,7.6987,7.6999,7.6999,7.6999,7.6999,7.6999,7.6987,7.6962,7.6962,7.6962,8.9936,8.924,8.9201,8.8698,8.7925,8.6996,8.6726,8.688,8.6842,8.7228,8.7963,8.8776,8.9163,8.9201,8.9472,8.9627,8.9588,8.9511,8.9511,8.9588,8.9704,8.9859,9.0207,9.0633,9.0942,9.1522,9.1716,9.1716,9.1716,9.1716,9.1716,9.1716,9.1716,9.1716,9.1716,9.1716,9.1716,9.1716,9.16,9.1561,9.129,9.0478,8.9704,8.8764,8.7539,8.6064,8.4436,8.3695,8.2903,8.2087,8.1931,8.1776,8.1678,8.1056,8.0724,8.0565,7.9753,7.8975,7.8154,7.7209,7.6764,7.6687,7.6687,7.6687,7.6687,7.6687,7.6687,7.6687,7.6687,7.6687,7.6687,7.6687,7.6687,7.6669,7.6708,7.6669,7.6651,7.6651,7.6671,7.6652,7.6691,7.6691,7.671,7.669,7.6708,7.6708,7.6687,7.6687,7.6687,7.6687,7.6687,7.6687,7.6687,7.6687,7.6726,7.6726,7.6726,7.6782,7.6799,7.6848,7.684,7.6869,7.6883,7.691,7.6923,7.6987,7.6987,7.6999,7.6999,7.696,7.6987,7.6975,7.6936,7.6922,7.6936,9.1097,9.0787,9.0246,8.982,8.9472,8.866,8.8312,8.8312,8.835,8.8505,8.8892,8.9627,9.0014,9.013,9.0516,9.0749,9.0787,9.0865,9.0865,9.0826,9.071,9.0981,9.1213,9.1213,9.1367,9.16,9.1716,9.1716,9.1716,9.1716,9.1716,9.1716,9.1716,9.1716,9.1716,9.1716,9.1716,9.1716,9.1716,9.1677,9.16,9.0865,9.0052,8.924,8.8055,8.6494,8.4456,8.3823,8.3174,8.2126,8.1892,8.1892,8.1892,8.1426,8.1406,8.1247,8.0625,7.9498,7.8332,7.7304,7.6726,7.6687,7.6687,7.6687,7.6687,7.6687,7.6687,7.6687,7.6687,7.6687,7.6687,7.6687,7.6669,7.669,7.6671,7.6652,7.6633,7.6633,7.6614,7.6594,7.6632,7.6632,7.6614,7.6633,7.6652,7.6671,7.6671,7.6708,7.6708,7.6669,7.6687,7.6687,7.6687,7.6687,7.6687,7.6687,7.6687,7.6726,7.6743,7.676,7.6793,7.684,7.6869,7.6883,7.691,7.6936,7.6948,7.696,7.6921,7.6921,7.6923,7.6936,7.6908,7.6894,7.6908,9.1716,9.1638,9.1097,9.0865,9.0671,8.9665,8.9201,8.924,8.9472,8.9627,8.9782,9.0478,9.0865,9.1019,9.1406,9.1716,9.1716,9.1677,9.1677,9.1716,9.1677,9.16,9.1638,9.1716,9.1638,9.1716,9.1716,9.1716,9.1716,9.1716,9.1716,9.1716,9.1716,9.1716,9.1716,9.1716,9.1716,9.1716,9.1716,9.1716,9.1561,9.1097,9.0323,8.9395,8.8377,8.7139,8.5075,8.3971,8.3563,8.2378,8.1892,8.1892,8.1892,8.1892,8.1929,8.1692,8.0753,7.9703,7.8659,7.7321,7.686,7.6687,7.6687,7.6687,7.6687,7.6687,7.6687,7.6687,7.6687,7.6687,7.6687,7.6687,7.669,7.6691,7.6672,7.6652,7.6632,7.6573,7.6553,7.6553,7.6591,7.6553,7.6553,7.6612,7.6632,7.6614,7.6633,7.6652,7.6671,7.669,7.6651,7.6669,7.6669,7.6687,7.6687,7.6687,7.6687,7.6687,7.6687,7.6726,7.676,7.6793,7.6825,7.6855,7.6883,7.691,7.6948,7.6921,7.6897,7.6897,7.6879,7.6864,7.6848,7.6864,7.6879,9.1677,9.1716,9.1677,9.161,9.1406,9.0024,8.9395,8.9395,9.0091,9.0439,9.0478,9.129,9.1522,9.1638,9.1716,9.1716,9.1716,9.1716,9.1716,9.1716,9.1716,9.1716,9.1716,9.1716,9.1716,9.1716,9.1716,9.1716,9.1716,9.1716,9.1716,9.1716,9.1716,9.1716,9.1716,9.1716,9.1716,9.1716,9.1716,9.1716,9.16,9.16,9.071,8.9782,8.8931,8.7345,8.5552,8.4273,8.3363,8.2514,8.1892,8.1892,8.1892,8.1892,8.1947,8.1547,8.0465,7.9812,7.9081,7.7726,7.6954,7.6764,7.6687,7.6687,7.6687,7.6687,7.6687,7.6687,7.6687,7.6687,7.6669,7.669,7.6691,7.6672,7.6632,7.6612,7.6591,7.657,7.6531,7.651,7.6488,7.6488,7.6488,7.651,7.6648,7.6531,7.6553,7.6553,7.6573,7.6652,7.6633,7.6632,7.6651,7.6669,7.6669,7.6669,7.6669,7.6708,7.6708,7.6708,7.6743,7.676,7.6793,7.6825,7.684,7.6869,7.691,7.691,7.6883,7.6825,7.6855,7.6799,7.6816,7.6777,7.6793,9.15,9.15,9.1462,9.1462,9.1385,9.096,9.0827,9.0942,9.1156,9.1233,9.129,9.1561,9.1716,9.1716,9.1716,9.1716,9.1716,9.1716,9.1716,9.1716,9.1716,9.1716,9.1716,9.1716,9.1716,9.1716,9.1716,9.1716,9.1716,9.1716,9.1716,9.1716,9.1716,9.1716,9.1716,9.1716,9.1754,9.1793,9.1832,9.1832,9.1793,9.1832,9.0981,9.0246,8.9395,8.7809,8.6288,8.4663,8.3646,8.2844,8.2164,8.1931,8.1892,8.1892,8.1947,8.189,8.0971,8.0085,7.9369,7.8293,7.7365,7.6842,7.6687,7.6687,7.6687,7.6687,7.6687,7.6669,7.6708,7.6708,7.6671,7.6691,7.6652,7.6612,7.657,7.6549,7.6488,7.6488,7.6466,7.6466,7.6444,7.6598,7.656,7.6637,7.6698,7.6544,7.6544,7.666,7.6566,7.6648,7.6591,7.6555,7.6575,7.6633,7.6652,7.6614,7.6671,7.669,7.669,7.669,7.6708,7.6743,7.676,7.6777,7.6809,7.6879,7.6908,7.6894,7.6848,7.6871,7.686,7.6764,7.6726,7.6821,7.686,9.1374,9.1374,9.1336,9.1336,9.1303,9.127,9.1329,9.1406,9.1454,9.1492,9.1552,9.162,9.1659,9.1659,9.1687,9.1716,9.1716,9.1716,9.1716,9.1716,9.1716,9.1716,9.1716,9.1716,9.1716,9.1716,9.1716,9.1716,9.1754,9.1716,9.1716,9.1716,9.1716,9.1716,9.1793,9.2064,9.2296,9.2296,9.2257,9.2218,9.2218,9.2141,9.1484,9.0555,8.9704,8.835,8.6803,8.514,8.3909,8.3019,8.2281,8.1892,8.1892,8.1911,8.1908,8.1797,8.115,8.0225,7.9431,7.8543,7.7637,7.6998,7.6764,7.6708,7.6708,7.6708,7.6708,7.669,7.669,7.6671,7.6633,7.6632,7.6591,7.6488,7.6466,7.6444,7.6421,7.6397,7.6397,7.6397,7.6475,7.6668,7.6746,7.6823,7.7132,7.7543,7.7775,7.7775,7.7373,7.6892,7.666,7.6488,7.651,7.657,7.663,7.6806,7.6806,7.6846,7.6691,7.671,7.669,7.6747,7.686,7.6838,7.6777,7.7003,7.733,7.6971,7.686,7.7075,7.7446,7.7544,7.7427,7.7039,7.7117,9.1275,9.1275,9.1236,9.1168,9.1059,9.0989,9.0944,9.0989,9.1187,9.1368,9.1368,9.1539,9.157,9.1629,9.1659,9.1687,9.1716,9.1716,9.1716,9.1716,9.1716,9.1716,9.1716,9.1716,9.1716,9.1716,9.1754,9.1832,9.1909,9.2141,9.2335,9.1909,9.2064,9.218,9.2141,9.276,9.307,9.3108,9.3224,9.3302,9.307,9.2837,9.2257,9.0903,8.9782,8.8582,8.6958,8.5398,8.39,8.3152,8.2475,8.2048,8.1911,8.189,8.1887,8.1787,8.1314,8.0598,7.9843,7.907,7.8198,7.752,7.692,7.7039,7.7156,7.6806,7.669,7.6652,7.6652,7.6652,7.6612,7.6553,7.651,7.6466,7.6444,7.6421,7.6421,7.6397,7.6397,7.6475,7.6746,7.6939,7.7326,7.7442,7.7867,7.8564,7.8718,7.868,7.837,7.7582,7.7349,7.7001,7.714,7.7318,7.7279,7.7379,7.7179,7.7069,7.7038,7.7195,7.7564,7.7331,7.698,7.7308,7.7714,7.7753,7.787,7.7658,7.7775,7.828,7.8533,7.8554,7.8224,7.7758,7.7681,9.0991,9.0991,9.0877,9.08,9.0761,9.0681,9.0607,9.0645,9.08,9.0989,9.1206,9.1341,9.1438,9.157,9.16,9.1629,9.1649,9.1687,9.1716,9.1716,9.1716,9.1716,9.1716,9.1716,9.1716,9.1716,9.1793,9.2102,9.2528,9.307,9.3534,9.3534,9.3418,9.3147,9.2644,9.3418,9.3882,9.3804,9.4462,9.4423,9.4075,9.3379,9.2605,9.1832,9.0981,8.9665,8.8196,8.688,8.532,8.4064,8.3154,8.2514,8.1931,8.1947,8.1926,8.1865,8.167,8.1031,8.0409,7.983,7.9269,7.8823,7.8398,7.8108,7.77,7.7059,7.673,7.6691,7.6632,7.6591,7.657,7.6488,7.6466,7.6444,7.6421,7.6397,7.6397,7.6397,7.6397,7.6707,7.704,7.7403,7.779,7.8254,7.868,7.8873,7.895,7.895,7.9105,7.868,7.8757,7.8525,7.8394,7.8433,7.8239,7.8061,7.7906,7.8046,7.8154,7.8297,7.8395,7.8224,7.803,7.8476,7.8805,7.8707,7.8668,7.8805,7.9038,7.9484,7.9389,7.929,7.9248,7.8878,7.8762,9.0679,9.0638,9.0597,9.0555,9.0432,9.0389,9.0394,9.0398,9.0474,9.0597,9.0838,9.1064,9.1275,9.1406,9.1477,9.15,9.1561,9.162,9.1659,9.1659,9.1649,9.1716,9.1716,9.1716,9.1716,9.1754,9.218,9.2644,9.3186,9.3688,9.4114,9.4269,9.4191,9.3921,9.3379,9.4037,9.4578,9.423,9.539,9.5623,9.5081,9.4269,9.334,9.2683,9.1484,9.0323,8.9279,8.7925,8.6377,8.4945,8.3906,8.267,8.2087,8.1911,8.189,8.1908,8.1774,8.1502,8.0919,8.0551,8.0242,7.9718,7.9272,7.8709,7.8512,7.793,7.7232,7.7113,7.6648,7.6549,7.6466,7.6444,7.6444,7.6421,7.6397,7.6397,7.6397,7.6397,7.6707,7.721,7.7597,7.8123,7.8564,7.9235,7.9699,8.0304,8.015,8.0034,7.9995,7.9801,7.9879,7.984,7.9569,7.9144,7.8718,7.868,7.8694,7.8912,7.9192,7.8989,7.8878,7.8998,7.9096,7.931,7.9427,7.9367,7.9406,7.9602,8.0087,8.0533,8.0262,7.9925,7.9919,8.0013,8.0013,9.0269,9.0383,9.034,9.0295,9.0205,9.0121,9.0113,9.0143,9.0159,9.025,9.0383,9.0721,9.0991,9.1136,9.1241,9.1341,9.1406,9.15,9.157,9.16,9.1591,9.1591,9.162,9.1659,9.1774,9.219,9.276,9.3186,9.365,9.4385,9.4888,9.4578,9.4356,9.4162,9.4037,9.4578,9.5352,9.512,9.57,9.659,9.6087,9.5236,9.4153,9.2915,9.1716,9.0749,8.9754,8.8594,8.719,8.5797,8.446,8.3191,8.2456,8.2242,8.2009,8.2028,8.1911,8.1504,8.1077,8.0903,8.0417,7.9874,7.9602,7.9386,7.9261,7.8812,7.8154,7.7611,7.7124,7.6892,7.6846,7.6823,7.6784,7.6784,7.6784,7.6784,7.6784,7.6784,7.7287,7.7829,7.8293,7.8796,7.9376,8.0048,8.0666,8.131,8.1504,8.1504,8.1349,8.0962,8.0769,8.0614,8.0343,7.9879,7.9531,7.9531,7.9699,7.9816,8.0019,7.9625,7.9476,7.9886,8.0002,7.9791,7.9872,8.0087,8.0165,8.028,8.0825,8.1291,8.1053,8.0671,8.0841,8.0933,8.1204,8.9641,9.025,9.0159,9.0067,9.0029,8.9935,8.9877,8.9877,9.002,9.0029,9.0121,9.0257,9.0517,9.0877,9.1136,9.1241,9.1275,9.1374,9.14,9.1431,9.147,9.1431,9.1539,9.1693,9.1994,9.2634,9.3466,9.4269,9.4578,9.5545,9.6241,9.6125,9.6164,9.5816,9.5274,9.5777,9.6087,9.5777,9.5971,9.6822,9.659,9.5777,9.4888,9.3921,9.3031,9.1754,9.0489,8.9367,8.8014,8.6559,8.5033,8.3768,8.3095,8.2806,8.2592,8.2184,8.2068,8.1835,8.1543,8.1369,8.096,8.0937,8.0722,8.0523,8.0299,8.0004,7.9385,7.8921,7.851,7.8394,7.8332,7.8254,7.8216,7.8216,7.8216,7.8216,7.8216,7.8239,7.8433,7.8873,7.9299,7.9685,7.9995,8.0614,8.1117,8.1504,8.1504,8.1504,8.1504,8.1504,8.1504,8.1271,8.1001,8.1194,8.1039,8.0769,8.0821,8.0885,8.0846,8.0585,8.0609,8.1058,8.1081,8.0616,8.0794,8.1131,8.1148,8.0816,8.1143,8.1507,8.1538,8.149,8.1581,8.1542,8.1567]},{"header":{"parameterUnit":"m.s-1","parameterCategory":1,"la1":31.0,"la2":29.5877,"lo1":-88.7671,"lo2":-86.6584,"dy":0.0162,"dx":0.0185,"nx":115,"ny":88,"refTime":"2023-10-07T00:00:00:Z","depth":0,"parameterNumber":3,"parameterNumberName":"V-component_of_WINDS"},"data":[0.0,0.0,0.0,0.0,0.0,0.0,0.0,0.0,0.0,0.0,0.0,0.0,0.0,0.0,0.0,0.0,0.0,0.0,0.0,0.0,0.0,0.0,0.0,0.0,0.0,0.0,0.0,0.0,0.0,0.0,0.0,0.0,0.0,0.0,0.0,0.0,0.0,0.0,0.0,0.0,0.0,0.0,0.0,0.0,0.0,0.0,0.0,0.0,0.0,0.0,0.0,0.0,0.0,0.0,0.0,0.0,0.0,0.0,0.0,0.0,0.0,0.0,0.0,0.0,0.0,0.0,0.0,0.0,0.0,0.0,0.0,0.0,0.0,0.0,0.0,0.0,0.0,0.0,0.0,0.0,0.0,0.0,0.0,0.0,0.0,0.0,0.0,0.0,0.0,0.0,0.0,0.0,0.0,0.0,0.0,0.0,0.0,0.0,0.0,0.0,0.0,0.0,0.0,0.0,0.0,0.0,0.0,0.0,0.0,0.0,0.0,0.0,0.0,0.0,0.0,0.0,0.0,0.0,0.0,0.0,0.0,0.0,0.0,0.0,0.0,0.0,0.0,0.0,0.0,0.0,0.0,0.0,0.0,0.0,0.0,0.0,0.0,0.0,0.0,0.0,0.0,0.0,0.0,0.0,0.0,0.0,0.0,0.0,0.0,0.0,0.0,0.0,0.0,0.0,0.0,0.0,0.0,0.0,0.0,0.0,0.0,0.0,0.0,0.0,0.0,0.0,0.0,0.0,0.0,0.0,0.0,0.0,0.0,0.0,0.0,0.0,0.0,0.0,0.0,0.0,0.0,0.0,0.0,0.0,0.0,0.0,0.0,0.0,0.0,0.0,0.0,0.0,0.0,0.0,0.0,0.0,0.0,0.0,0.0,0.0,0.0,0.0,0.0,0.0,0.0,0.0,0.0,0.0,0.0,0.0,0.0,0.0,0.0,0.0,0.0,0.0,0.0,0.0,0.0,0.0,0.0,0.0,0.0,0.0,0.0,0.0,0.0,0.0,0.0,0.0,0.0,0.0,0.0,0.0,0.0,0.0,0.0,0.0,0.0,0.0,0.0,0.0,0.0,0.0,0.0,0.0,0.0,0.0,0.0,0.0,0.0,0.0,0.0,0.0,0.0,0.0,0.0,0.0,0.0,0.0,0.0,0.0,0.0,0.0,0.0,0.0,0.0,0.0,0.0,0.0,0.0,0.0,0.0,0.0,0.0,0.0,0.0,0.0,0.0,0.0,0.0,0.0,0.0,0.0,0.0,0.0,0.0,0.0,0.0,0.0,0.0,0.0,0.0,0.0,0.0,0.0,0.0,0.0,0.0,0.0,0.0,0.0,0.0,0.0,0.0,0.0,0.0,0.0,0.0,0.0,0.0,0.0,0.0,0.0,0.0,0.0,0.0,0.0,0.0,0.0,0.0,0.0,0.0,0.0,0.0,0.0,0.0,0.0,0.0,0.0,0.0,0.0,0.0,0.0,0.0,0.0,0.0,0.0,0.0,0.0,0.0,0.0,0.0,0.0,0.0,0.0,0.0,0.0,0.0,0.0,0.0,0.0,0.0,0.0,0.0,0.0,0.0,0.0,0.0,0.0,0.0,0.0,0.0,0.0,0.0,0.0,0.0,0.0,0.0,0.0,0.0,0.0,0.0,0.0,0.0,0.0,0.0,0.0,0.0,0.0,0.0,0.0,0.0,0.0,0.0,0.0,0.0,0.0,0.0,0.0,0.0,0.0,0.0,0.0,0.0,0.0,0.0,0.0,0.0,0.0,0.0,0.0,0.0,0.0,0.0,0.0,0.0,0.0,0.0,0.0,0.0,0.0,0.0,0.0,0.0,0.0,0.0,0.0,0.0,0.0,0.0,0.0,0.0,0.0,0.0,0.0,0.0,0.0,0.0,0.0,0.0,0.0,0.0,0.0,0.0,0.0,0.0,0.0,0.0,0.0,0.0,0.0,0.0,0.0,0.0,0.0,0.0,0.0,0.0,0.0,0.0,0.0,0.0,0.0,0.0,0.0,0.0,0.0,0.0,0.0,0.0,0.0,0.0,0.0,0.0,0.0,0.0,0.0,0.0,0.0,0.0,0.0,0.0,0.0,0.0,0.0,0.0,0.0,0.0,0.0,0.0,0.0,0.0,0.0,0.0,0.0,0.0,0.0,0.0,0.0,0.0,0.0,0.0,0.0,0.0,0.0,0.0,0.0,0.0,0.0,0.0,0.0,0.0,0.0,0.0,0.0,0.0,0.0,0.0,0.0,0.0,0.0,0.0,0.0,0.0,0.0,0.0,0.0,0.0,0.0,0.0,0.0,0.0,0.0,0.0,0.0,0.0,0.0,0.0,0.0,0.0,0.0,0.0,0.0,0.0,0.0,0.0,0.0,0.0,0.0,0.0,0.0,0.0,0.0,0.0,0.0,0.0,0.0,0.0,0.0,0.0,0.0,0.0,0.0,0.0,0.0,0.0,0.0,0.0,0.0,0.0,0.0,0.0,0.0,0.0,0.0,0.0,0.0,0.0,0.0,0.0,0.0,0.0,0.0,0.0,0.0,0.0,0.0,0.0,0.0,0.0,0.0,0.0,0.0,0.0,0.0,0.0,0.0,0.0,0.0,0.0,0.0,0.0,0.0,0.0,0.0,0.0,0.0,0.0,0.0,0.0,0.0,0.0,0.0,0.0,0.0,0.0,0.0,0.0,0.0,0.0,0.0,0.0,0.0,0.0,0.0,0.0,0.0,0.0,0.0,0.0,0.0,0.0,0.0,0.0,0.0,0.0,0.0,0.0,0.0,0.0,0.0,0.0,0.0,0.0,0.0,0.0,0.0,0.0,0.0,0.0,0.0,0.0,0.0,0.0,0.0,0.0,0.0,0.0,0.0,0.0,0.0,0.0,0.0,0.0,0.0,0.0,0.0,0.0,0.0,0.0,0.0,0.0,0.0,0.0,0.0,0.0,0.0,0.0,0.0,0.0,0.0,0.0,0.0,0.0,0.0,0.0,0.0,0.0,0.0,0.0,0.0,0.0,0.0,0.0,0.0,0.0,0.0,0.0,0.0,0.0,0.0,0.0,0.0,0.0,0.0,0.0,0.0,0.0,0.0,0.0,0.0,0.0,0.0,0.0,0.0,0.0,0.0,0.0,0.0,0.0,0.0,0.0,0.0,0.0,0.0,0.0,0.0,0.0,0.0,0.0,0.0,0.0,0.0,0.0,0.0,0.0,0.0,0.0,0.0,0.0,0.0,0.0,0.0,0.0,0.0,0.0,0.0,0.0,0.0,0.0,0.0,0.0,0.0,0.0,0.0,0.0,0.0,0.0,0.0,0.0,0.0,0.0,0.0,0.0,0.0,0.0,0.0,0.0,0.0,0.0,0.0,0.0,0.0,0.0,0.0,0.0,0.0,0.0,0.0,0.0,0.0,0.0,0.0,0.0,0.0,0.0,0.0,0.0,0.0,0.0,0.0,0.0,0.0,0.0,0.0,0.0,0.0,0.0,0.0,0.0,0.0,0.0,0.0,0.0,0.0,0.0,0.0,0.0,0.0,0.0,0.0,0.0,0.0,0.0,0.0,0.0,0.0,0.0,0.0,0.0,0.0,0.0,0.0,0.0,0.0,0.0,0.0,0.0,0.0,0.0,0.0,0.0,0.0,0.0,0.0,0.0,0.0,0.0,0.0,0.0,0.0,0.0,0.0,0.0,0.0,0.0,0.0,0.0,0.0,0.0,0.0,0.0,0.0,0.0,0.0,0.0,0.0,0.0,0.0,0.0,0.0,0.0,0.0,0.0,0.0,0.0,0.0,0.0,0.0,0.0,0.0,0.0,0.0,0.0,0.0,0.0,0.0,0.0,0.0,0.0,0.0,0.0,0.0,0.0,0.0,0.0,0.0,0.0,0.0,0.0,0.0,0.0,0.0,0.0,0.0,0.0,0.0,0.0,0.0,0.0,0.0,0.0,0.0,0.0,0.0,0.0,0.0,0.0,0.0,0.0,0.0,0.0,0.0,0.0,0.0,0.0,0.0,0.0,0.0,0.0,0.0,0.0,0.0,0.0,0.0,0.0,0.0,0.0,0.0,0.0,0.0,0.0,0.0,0.0,0.0,0.0,0.0,0.0,0.0,0.0,0.0,0.0,0.0,0.0,0.0,0.0,0.0,0.0,0.0,0.0,0.0,0.0,0.0,0.0,0.0,0.0,0.0,0.0,0.0,0.0,0.0,0.0,0.0,0.0,0.0,0.0,0.0,0.0,0.0,0.0,0.0,0.0,0.0,0.0,0.0,-0.2839,0.0,0.0,0.0,0.0,0.0,0.0,0.0,0.0,0.0,0.0,0.0,0.0,0.0,0.0,0.0,0.0,0.0,0.0,0.0,0.0,0.0,0.0,0.0,0.0,0.0,0.0,0.0,0.0,0.0,0.0,0.0,0.0,0.0,0.0,0.0,0.0,0.0,0.0,0.0,0.0,0.0,0.0,0.0,0.0,0.0,0.0,0.0,0.0,0.0,0.0,0.0,0.0,0.0,0.0,0.0,0.0,0.0,0.0,0.0,0.0,0.0,0.0,0.0,0.0,0.0,0.0,0.0,0.0,0.0,0.0,0.0,0.0,0.0,0.0,0.0,0.0,0.0,0.0,0.0,0.0,0.0,0.0,0.0,0.0,0.0,0.0,0.0,0.0,0.0,0.0,0.0,0.0,0.0,0.0,0.0,0.0,0.0,0.0,0.0,0.0,0.0,0.0,0.0,0.0,0.0,0.0,0.0,0.0,0.0,0.0,-0.2012,-0.2,-0.2515,-0.2894,-0.2999,0.0,0.0,0.0,0.0,0.0,0.0,0.0,0.0,0.0,0.0,0.0,0.0,0.0,0.0,0.0,0.0,0.0,0.0,0.0,0.0,0.0,0.0,0.0,0.0,0.0,0.0,0.0,0.0,0.0,0.0,0.0,0.0,0.0,0.0,0.0,0.0,0.0,0.0,0.0,0.0,0.0,0.0,0.0,0.0,0.0,0.0,0.0,0.0,0.0,0.0,0.0,0.0,0.0,0.0,0.0,0.0,0.0,0.0,0.0,0.0,0.0,0.0,0.0,0.0,0.0,0.0,0.0,0.0,0.0,0.0,0.0,0.0,0.0,0.0,0.0,0.0,0.0,0.0,0.0,0.0,0.0,0.0,0.0,0.0,0.0,0.0,0.0,0.0,0.0,0.0,0.0,0.0,0.0,0.0,0.0,0.0,0.0,0.0,0.0,0.0,0.0,0.0,0.0,0.0,0.0,0.0,0.0,0.0,0.0,0.0,0.0,0.0,-0.2658,-0.316,-0.3515,0.0,0.0,0.0,0.0,0.0,0.0,0.0,0.0,0.0,0.0,0.0,0.0,0.0,0.0,0.0,0.0,0.0,0.0,0.0,0.0,0.0,0.0,0.0,0.0,0.0,0.0,0.0,0.0,0.0,0.0,0.0,0.0,0.0,0.0,0.0,0.0,0.0,0.0,0.0,0.0,0.0,0.0,0.0,0.0,0.0,0.0,0.0,0.0,0.0,0.0,0.0,0.0,0.0,0.0,0.0,0.0,0.0,0.0,0.0,0.0,0.0,0.0,0.0,0.0,0.0,0.0,0.0,0.0,0.0,0.0,0.0,0.0,0.0,0.0,0.0,0.0,0.0,0.0,0.0,0.0,0.0,0.0,0.0,0.0,0.0,0.0,0.0,0.0,0.0,0.0,0.0,0.0,0.0,0.0,0.0,0.0,0.0,0.0,0.0,0.0,0.0,0.0,0.0,0.0,0.0,0.0,0.0,0.0,0.0,0.0,-0.2046,-0.202,-0.2685,0.0,-0.471,0.0,0.0,0.0,0.0,0.0,0.0,0.0,0.0,0.0,0.0,0.0,0.0,0.0,0.0,0.0,0.0,0.0,0.0,0.0,0.0,0.0,0.0,0.0,0.0,0.0,0.0,0.0,0.0,0.0,0.0,0.0,0.0,0.0,0.0,0.0,0.0,0.0,0.0,0.0,0.0,0.0,0.0,0.0,0.0,0.0,0.0,0.0,0.0,0.0,0.0,0.0,0.0,0.0,0.0,0.0,0.0,0.0,0.0,0.0,0.0,0.0,0.0,0.0,0.0,0.0,0.0,0.0,0.0,0.0,0.0,0.0,0.0,0.0,0.0,0.0,0.0,0.0,0.0,0.0,0.0,0.0,0.0,0.0,0.0,0.0,0.0,0.0,0.0,0.0,0.0,0.0,0.0,0.0,0.0,0.0,0.0,0.0,0.0,0.0,0.0,0.0,0.0,0.0,0.0,0.0,0.0,0.0,0.0,0.0,0.0,-0.2031,-0.2019,-0.2666,-0.3655,0.0,0.0,0.0,0.0,0.0,0.0,0.0,0.0,0.0,0.0,0.0,0.0,0.0,0.0,0.0,0.0,0.0,0.0,0.0,0.0,0.0,0.0,0.0,0.0,0.0,0.0,0.0,0.0,0.0,0.0,0.0,0.0,0.0,0.0,0.0,0.0,0.0,0.0,0.0,0.0,0.0,0.0,0.0,0.0,0.0,0.0,0.0,0.0,0.0,0.0,0.0,0.0,0.0,0.0,0.0,0.0,0.0,0.0,0.0,0.0,0.0,0.0,0.0,0.0,0.0,0.0,0.0,0.0,0.0,0.0,0.0,0.0,0.0,0.0,0.0,0.0,0.0,0.0,0.0,0.0,0.0,0.0,0.0,0.0,0.0,0.0,0.0,0.0,0.0,0.0,0.0,0.0,0.0,0.0,0.0,0.0,0.0,0.0,0.0,0.0,0.0,0.0,0.0,0.0,0.0,0.0,0.0,0.0,0.0,0.0,-0.2012,-0.2031,-0.2158,-0.2794,-0.3522,-0.4441,0.0,0.0,0.0,0.0,0.0,0.0,0.0,0.0,0.0,0.0,0.0,0.0,0.0,0.0,0.0,0.0,0.0,0.0,0.0,0.0,0.0,0.0,0.0,0.0,0.0,0.0,0.0,0.0,0.0,0.0,0.0,0.0,0.0,0.0,0.0,0.0,0.0,0.0,0.0,0.0,0.0,0.0,0.0,0.0,0.0,0.0,0.0,0.0,0.0,0.0,0.0,0.0,0.0,0.0,0.0,0.0,0.0,0.0,0.0,0.0,0.0,0.0,0.0,0.0,0.0,0.0,0.0,0.0,0.0,0.0,0.0,0.0,0.0,0.0,0.0,0.0,0.0,0.0,0.0,0.0,0.0,0.0,0.0,0.0,0.0,0.0,0.0,0.0,0.0,0.0,0.0,0.0,0.0,0.0,0.0,0.0,0.0,0.0,0.0,0.0,0.0,0.0,0.0,0.0,0.0,0.0,0.0,0.0,-0.1978,-0.2031,-0.219,-0.2575,-0.2964,-0.3306,0.0,0.0,0.0,0.0,0.0,0.0,0.0,0.0,0.0,0.0,0.0,0.0,0.0,0.0,0.0,0.0,0.0,0.0,0.0,0.0,0.0,0.0,0.0,0.0,0.0,0.0,0.0,0.0,0.0,0.0,0.0,0.0,0.0,0.0,0.0,0.0,0.0,0.0,0.0,0.0,0.0,0.0,0.0,0.0,0.0,0.0,0.0,0.0,0.0,0.0,0.0,0.0,0.0,0.0,0.0,0.0,0.0,0.0,0.0,0.0,0.0,0.0,0.0,0.0,0.0,0.0,0.0,0.0,0.0,0.0,0.0,0.0,0.0,0.0,0.0,0.0,0.0,0.0,0.0,0.0,0.0,0.0,0.0,0.0,0.0,0.0,0.0,0.0,0.0,0.0,0.0,0.0,0.0,0.0,0.0,0.0,0.0,0.0,0.0,0.0,0.0,0.0,0.0,0.0,0.0,0.0,0.0,0.0,0.0,-0.1978,-0.2015,-0.2162,-0.2544,-0.2417,-0.2646,0.0,0.0,0.0,0.0,0.0,0.0,0.0,0.0,0.0,0.0,0.0,0.0,0.0,0.0,0.0,0.0,0.0,0.0,0.0,0.0,0.0,0.0,0.0,0.0,0.0,0.0,0.0,0.0,0.0,0.0,0.0,0.0,0.0,0.0,0.0,0.0,0.0,0.0,0.0,0.0,0.0,0.0,0.0,0.0,0.0,0.0,0.0,0.0,0.0,0.0,0.0,0.0,0.0,0.0,0.0,0.0,0.0,0.0,0.0,0.0,0.0,0.0,0.0,0.0,0.0,0.0,0.0,0.0,0.0,0.0,0.0,0.0,0.0,0.0,0.0,0.0,0.0,0.0,0.0,0.0,0.0,0.0,0.0,0.0,0.0,0.0,0.0,0.0,0.0,0.0,0.0,0.0,0.0,0.0,0.0,0.0,0.0,0.0,0.0,0.0,0.0,0.0,0.0,0.0,0.0,0.0,0.0,0.0,0.0,-0.2004,0.0,-0.2161,-0.2415,-0.216,-0.2267,0.0,0.0,0.0,0.0,0.0,0.0,0.0,0.0,0.0,0.0,0.0,0.0,0.0,0.0,0.0,0.0,0.0,0.0,0.0,0.0,0.0,0.0,0.0,0.0,0.0,0.0,0.0,0.0,0.0,0.0,0.0,0.0,0.0,0.0,0.0,0.0,0.0,0.0,0.0,0.0,0.0,0.0,0.0,0.0,0.0,0.0,0.0,0.0,0.0,0.0,0.0,0.0,0.0,0.0,0.0,0.0,0.0,0.0,0.0,0.0,0.0,0.0,0.0,0.0,0.0,0.0,0.0,0.0,0.0,0.0,0.0,0.0,0.0,0.0,0.0,0.0,0.0,0.0,0.0,0.0,0.0,0.0,0.0,0.0,0.0,0.0,0.0,0.0,0.0,0.0,0.0,0.0,0.0,0.0,0.0,0.0,0.0,0.0,0.0,0.0,0.0,0.0,0.0,0.0,0.0,0.0,0.0,0.0,-0.2005,-0.206,-0.2064,-0.2064,-0.2064,-0.2063,-0.2035,0.0,0.0,0.0,0.0,0.0,0.0,0.0,0.0,0.0,0.0,0.0,0.0,0.0,0.0,0.0,0.0,0.0,0.0,0.0,0.0,0.0,0.0,0.0,0.0,0.0,0.0,0.0,0.0,0.0,0.0,0.0,0.0,0.0,0.0,0.0,0.0,0.0,0.0,0.0,0.0,0.0,0.0,0.0,0.0,0.0,0.0,0.0,0.0,0.0,0.0,0.0,0.0,0.0,0.0,0.0,0.0,0.0,0.0,0.0,0.0,0.0,0.0,0.0,0.0,0.0,0.0,0.0,0.0,0.0,0.0,0.0,0.0,0.0,0.0,0.0,0.0,0.0,0.0,0.0,0.0,0.0,0.0,0.0,0.0,0.0,0.0,0.0,0.0,0.0,0.0,0.0,0.0,0.0,0.0,0.0,0.0,0.0,0.0,0.0,0.0,0.0,0.0,0.0,0.0,0.0,0.0,0.0,0.0,0.0,-0.2063,-0.2084,-0.2095,-0.2094,-0.2075,-0.2045,0.0,0.0,0.0,0.0,0.0,0.0,0.0,0.0,0.0,0.0,0.0,0.0,0.0,0.0,0.0,0.0,0.0,0.0,0.0,0.0,0.0,0.0,0.0,0.0,0.0,0.0,0.0,0.0,0.0,0.0,0.0,0.0,0.0,0.0,0.0,0.0,0.0,0.0,0.0,0.0,0.0,0.0,0.0,0.0,0.0,0.0,0.0,0.0,0.0,0.0,0.0,0.0,0.0,0.0,0.0,0.0,0.0,0.0,0.0,0.0,0.0,0.0,0.0,0.0,0.0,0.0,0.0,0.0,0.0,0.0,0.0,0.0,0.0,0.0,0.0,0.0,0.0,0.0,0.0,0.0,0.0,0.0,0.0,0.0,0.0,0.0,0.0,0.0,0.0,0.0,0.0,0.0,0.0,0.0,0.0,0.0,0.0,0.0,0.0,0.0,0.0,0.0,0.0,0.0,0.0,0.0,0.0,0.0,0.0,-0.2097,-0.2116,-0.2127,-0.2127,-0.2108,-0.2074,-0.202,0.0,0.0,0.0,0.0,0.0,0.0,0.0,0.0,0.0,0.0,0.0,0.0,0.0,0.0,0.0,0.0,0.0,0.0,0.0,0.0,0.0,0.0,0.0,0.0,0.0,0.0,0.0,0.0,0.0,0.0,0.0,0.0,0.0,0.0,0.0,0.0,0.0,0.0,0.0,0.0,0.0,0.0,0.0,0.0,0.0,0.0,0.0,0.0,0.0,0.0,0.0,0.0,0.0,0.0,0.0,0.0,0.0,0.0,0.0,0.0,0.0,0.0,0.0,0.0,0.0,0.0,0.0,0.0,0.0,0.0,0.0,0.0,0.0,0.0,0.0,0.0,0.0,0.0,0.0,0.0,0.0,0.0,0.0,0.0,0.0,0.0,0.0,0.0,0.0,0.0,0.0,0.0,0.0,0.0,0.0,0.0,0.0,0.0,0.0,0.0,0.0,0.0,0.0,0.0,0.0,0.0,0.0,0.0,-0.2159,-0.2162,-0.2162,-0.2161,-0.2157,-0.2113,0.0,0.0,0.0,0.0,0.0,0.0,0.0,0.0,0.0,0.0,0.0,0.0,0.0,0.0,0.0,0.0,0.0,0.0,0.0,0.0,0.0,0.0,0.0,0.0,0.0,0.0,0.0,0.0,0.0,0.0,0.0,0.0,0.0,0.0,0.0,0.0,0.0,0.0,0.0,0.0,0.0,0.0,0.0,0.0,0.0,0.0,0.0,0.0,0.0,0.0,0.0,0.0,0.0,0.0,0.0,0.0,0.0,0.0,0.0,0.0,0.0,0.0,0.0,0.0,0.0,0.0,0.0,0.0,0.0,0.0,0.0,0.0,0.0,0.0,0.0,0.0,0.0,0.0,0.0,0.0,0.0,0.0,0.0,0.0,0.0,0.0,0.0,0.0,0.0,0.0,0.0,0.0,0.0,0.0,0.0,0.0,0.0,0.0,0.0,0.0,0.0,0.0,0.0,0.0,0.0,0.0,0.0,0.0,0.0,-0.2218,-0.2244,-0.2245,-0.2222,-0.2178,-0.2133,0.0,0.0,0.0,0.0,0.0,0.0,0.0,0.0,0.0,0.0,0.0,0.0,0.0,0.0,0.0,0.0,0.0,0.0,0.0,0.0,0.0,0.0,0.0,0.0,0.0,0.0,0.0,0.0,0.0,0.0,0.0,0.0,0.0,0.0,0.0,0.0,0.0,0.0,0.0,0.0,0.0,0.0,0.0,0.0,0.0,0.0,0.0,0.0,0.0,0.0,0.0,0.0,0.0,0.0,0.0,0.0,0.0,0.0,0.0,0.0,0.0,0.0,0.0,0.0,0.0,0.0,0.0,0.0,0.0,0.0,0.0,0.0,0.0,0.0,0.0,0.0,0.0,0.0,0.0,0.0,0.0,0.0,0.0,0.0,0.0,0.0,0.0,0.0,0.0,0.0,0.0,0.0,0.0,0.0,0.0,0.0,0.0,0.0,0.0,0.0,0.0,0.0,0.0,0.0,0.0,0.0,0.0,0.0,-0.2173,-0.2262,-0.2293,-0.2305,-0.2301,-0.223,-0.2173,0.0,0.0,0.0,0.0,0.0,0.0,0.0,0.0,0.0,0.0,0.0,0.0,0.0,0.0,0.0,0.0,0.0,0.0,0.0,0.0,0.0,0.0,0.0,0.0,0.0,0.0,0.0,0.0,0.0,0.0,0.0,0.0,0.0,0.0,0.0,0.0,0.0,0.0,0.0,0.0,0.0,0.0,0.0,0.0,0.0,0.0,0.0,0.0,0.0,0.0,0.0,0.0,0.0,0.0,0.0,0.0,0.0,0.0,0.0,0.0,0.0,0.0,0.0,0.0,0.0,0.0,0.0,0.0,0.0,0.0,0.0,0.0,0.0,0.0,0.0,0.0,0.0,0.0,0.0,0.0,0.0,0.0,0.0,0.0,0.0,0.0,0.0,0.0,0.0,0.0,0.0,0.0,0.0,0.0,0.0,0.0,0.0,0.0,0.0,0.0,0.0,0.0,0.0,0.0,0.0,0.0,0.0,0.0,-0.2202,-0.2289,-0.2322,-0.235,-0.2375,-0.2297,-0.2225,0.0,0.0,0.0,0.0,0.0,0.0,0.0,0.0,0.0,0.0,0.0,0.0,0.0,0.0,0.0,0.0,0.0,0.0,0.0,0.0,0.0,0.0,0.0,0.0,0.0,0.0,0.0,0.0,0.0,0.0,0.0,0.0,0.0,0.0,0.0,0.0,0.0,0.0,0.0,0.0,0.0,0.0,0.0,0.0,0.0,0.0,0.0,0.0,0.0,0.0,0.0,0.0,0.0,0.0,0.0,0.0,0.0,0.0,0.0,0.0,0.0,0.0,0.0,0.0,0.0,0.0,0.0,0.0,0.0,0.0,0.0,0.0,0.0,0.0,0.0,0.0,0.0,0.0,0.0,0.0,0.0,0.0,0.0,0.0,0.0,0.0,0.0,0.0,0.0,0.0,0.0,0.0,0.0,0.0,0.0,0.0,0.0,0.0,0.0,0.0,0.0,0.0,0.0,0.0,0.0,0.0,0.0,0.0,-0.2223,-0.2289,-0.2341,-0.2371,-0.2378,-0.2337,-0.2275,0.0,0.0,0.0,0.0,0.0,0.0,0.0,0.0,0.0,0.0,0.0,0.0,0.0,0.0,0.0,0.0,0.0,0.0,0.0,0.0,0.0,0.0,0.0,0.0,0.0,0.0,0.0,0.0,0.0,0.0,0.0,0.0,0.0,0.0,0.0,0.0,0.0,0.0,0.0,0.0,0.0,0.0,0.0,0.0,0.0,0.0,0.0,0.0,-0.4297,0.0,0.0,0.0,0.0,0.0,0.0,0.0,0.0,0.0,0.0,0.0,0.0,0.0,0.0,0.0,0.0,0.0,0.0,0.0,0.0,0.0,0.0,0.0,0.0,0.0,0.0,0.0,0.0,0.0,0.0,0.0,0.0,0.0,0.0,0.0,0.0,0.0,0.0,0.0,0.0,0.0,0.0,0.0,0.0,0.0,0.0,0.0,0.0,0.0,0.0,0.0,0.0,0.0,0.0,0.0,0.0,0.0,0.0,0.0,-0.2249,-0.2309,-0.2369,-0.2399,-0.2399,-0.2383,-0.2327,0.0,0.0,0.0,0.0,0.0,0.0,0.0,0.0,0.0,0.0,0.0,0.0,0.0,0.0,0.0,0.0,0.0,0.0,0.0,0.0,0.0,0.0,0.0,0.0,0.0,0.0,0.0,0.0,0.0,0.0,0.0,0.0,0.0,0.0,0.0,0.0,0.0,0.0,0.0,0.0,0.0,0.0,0.0,0.0,0.0,0.0,0.0,0.0,0.0,0.0,0.0,0.0,0.0,0.0,0.0,0.0,0.0,0.0,0.0,0.0,0.0,0.0,0.0,0.0,0.0,0.0,0.0,0.0,0.0,0.0,0.0,0.0,0.0,0.0,0.0,0.0,0.0,0.0,0.0,0.0,0.0,0.0,0.0,0.0,0.0,0.0,0.0,0.0,0.0,0.0,0.0,0.0,0.0,0.0,0.0,0.0,0.0,0.0,0.0,0.0,0.0,0.0,0.0,0.0,0.0,0.0,0.0,-0.2184,-0.2271,-0.2326,-0.2386,-0.2417,-0.2568,-0.2416,-0.2363,-0.2249,0.0,0.0,0.0,0.0,0.0,0.0,0.0,0.0,0.0,0.0,0.0,0.0,0.0,0.0,0.0,0.0,0.0,0.0,0.0,0.0,0.0,0.0,0.0,0.0,0.0,0.0,0.0,0.0,0.0,0.0,0.0,0.0,0.0,0.0,0.0,0.0,0.0,0.0,-0.5045,-0.5134,0.0,0.0,0.0,0.0,0.0,0.0,0.0,0.0,-0.3631,0.0,0.0,0.0,0.0,0.0,0.0,0.0,0.0,0.0,0.0,0.0,0.0,0.0,0.0,0.0,0.0,0.0,0.0,0.0,0.0,0.0,0.0,0.0,0.0,0.0,0.0,0.0,0.0,0.0,0.0,0.0,0.0,0.0,0.0,0.0,0.0,0.0,0.0,0.0,0.0,0.0,0.0,0.0,0.0,0.0,0.0,0.0,0.0,0.0,0.0,0.0,0.0,0.0,0.0,0.0,0.0,-0.2065,-0.2184,-0.2262,-0.2297,-0.2356,-0.2535,-0.2834,-0.2833,-0.2779,-0.2387,0.0,0.0,0.0,0.0,0.0,0.0,0.0,0.0,0.0,0.0,0.0,0.0,0.0,0.0,0.0,0.0,0.0,0.0,0.0,0.0,0.0,0.0,0.0,0.0,0.0,0.0,0.0,0.0,0.0,0.0,0.0,0.0,0.0,0.0,0.0,0.0,0.0,0.0,0.0,-0.5253,-0.5212,0.0,0.0,0.0,0.0,0.0,0.0,0.0,0.0,-0.3497,0.0,0.0,0.0,0.0,0.0,0.0,0.0,0.0,0.0,0.0,0.0,0.0,0.0,0.0,0.0,0.0,0.0,0.0,0.0,0.0,0.0,0.0,0.0,0.0,0.0,0.0,0.0,0.0,0.0,0.0,0.0,0.0,0.0,0.0,0.0,0.0,0.0,0.0,0.0,0.0,0.0,0.0,0.0,0.0,0.0,0.0,0.0,0.0,0.0,0.0,0.0,0.0,0.0,0.0,0.0,-0.2071,-0.2184,-0.226,-0.2292,-0.2348,-0.2526,-0.2973,-0.2973,-0.292,0.0,0.0,0.0,0.0,0.0,0.0,0.0,0.0,0.0,0.0,0.0,0.0,0.0,0.0,0.0,0.0,0.0,0.0,0.0,0.0,0.0,0.0,0.0,0.0,0.0,0.0,0.0,0.0,0.0,0.0,0.0,0.0,0.0,0.0,0.0,0.0,0.0,0.0,0.0,0.0,-0.4787,-0.4898,-0.4894,0.0,0.0,0.0,0.0,0.0,0.0,-0.3631,-0.3497,0.0,0.0,0.0,0.0,0.0,0.0,0.0,0.0,0.0,0.0,0.0,0.0,0.0,0.0,0.0,0.0,0.0,0.0,0.0,0.0,0.0,0.0,0.0,0.0,0.0,0.0,0.0,0.0,0.0,0.0,0.0,0.0,0.0,0.0,0.0,0.0,0.0,0.0,0.0,0.0,0.0,0.0,0.0,0.0,0.0,0.0,0.0,0.0,0.0,0.0,0.0,0.0,0.0,0.0,0.0,-0.1939,-0.1911,-0.2117,-0.2282,-0.2339,-0.2665,-0.3109,-0.3102,-0.3341,0.0,0.0,0.0,0.0,0.0,0.0,0.0,0.0,0.0,0.0,0.0,0.0,0.0,0.0,0.0,0.0,0.0,0.0,0.0,0.0,0.0,0.0,0.0,0.0,0.0,0.0,0.0,0.0,0.0,0.0,0.0,0.0,0.0,0.0,0.0,0.0,0.0,0.0,0.0,0.0,0.0,-0.4401,-0.4824,-0.4591,0.0,0.0,0.0,0.0,-0.4335,-0.3782,0.0,0.0,0.0,0.0,0.0,0.0,0.0,0.0,0.0,0.0,0.0,0.0,0.0,0.0,0.0,0.0,0.0,0.0,0.0,0.0,0.0,0.0,0.0,0.0,0.0,0.0,0.0,0.0,0.0,0.0,0.0,0.0,0.0,0.0,0.0,0.0,0.0,0.0,0.0,0.0,0.0,0.0,0.0,0.0,0.0,0.0,0.0,0.0,0.0,0.0,0.0,0.0,0.0,0.0,0.0,0.0,-0.1163,-0.1228,-0.1545,-0.2253,-0.2308,-0.2632,-0.3362,-0.3325,-0.3705,0.0,0.0,0.0,0.0,0.0,0.0,0.0,0.0,0.0,0.0,0.0,0.0,0.0,0.0,0.0,0.0,0.0,0.0,0.0,0.0,0.0,0.0,0.0,0.0,0.0,0.0,0.0,0.0,0.0,0.0,0.0,0.0,0.0,0.0,0.0,0.0,0.0,0.0,0.0,0.0,0.0,-0.4139,-0.4463,-0.4477,-0.448,0.0,0.0,-0.4313,-0.4258,-0.425,0.0,0.0,0.0,0.0,0.0,0.0,0.0,0.0,0.0,0.0,0.0,0.0,0.0,0.0,0.0,0.0,0.0,0.0,0.0,0.0,0.0,0.0,0.0,0.0,0.0,0.0,0.0,0.0,0.0,0.0,0.0,0.0,0.0,0.0,0.0,0.0,0.0,0.0,0.0,0.0,0.0,0.0,0.0,0.0,0.0,0.0,0.0,0.0,0.0,0.0,0.0,0.0,0.0,0.0,0.0,0.0,0.0775,-0.0,-0.0842,-0.1404,-0.2015,-0.2625,-0.35,-0.3457,-0.3836,0.0,0.0,0.0,0.0,0.0,0.0,0.0,0.0,0.0,0.0,0.0,0.0,0.0,0.0,0.0,0.0,0.0,0.0,0.0,0.0,0.0,0.0,0.0,0.0,0.0,0.0,0.0,0.0,0.0,0.0,0.0,0.0,0.0,0.0,0.0,0.0,0.0,0.0,0.0,0.0,0.0,0.0,-0.448,-0.4542,0.0,0.0,0.0,-0.4512,-0.4455,0.0,0.0,0.0,0.0,0.0,0.0,0.0,0.0,0.0,0.0,0.0,0.0,0.0,0.0,0.0,0.0,0.0,0.0,0.0,0.0,0.0,0.0,0.0,0.0,0.0,0.0,0.0,0.0,0.0,0.0,0.0,0.0,0.0,0.0,0.0,0.0,0.0,0.0,0.0,0.0,0.0,0.0,0.0,0.0,0.0,0.0,0.0,0.0,0.0,0.0,0.0,0.0,0.0,0.0,0.0,0.0,0.0,0.2196,0.1091,0.0,-0.0842,-0.1727,-0.2625,-0.35,-0.3445,0.0,0.0,0.0,0.0,0.0,0.0,0.0,0.0,0.0,0.0,0.0,0.0,0.0,0.0,0.0,0.0,0.0,0.0,0.0,0.0,0.0,0.0,0.0,0.0,0.0,0.0,0.0,-0.1794,0.0,0.0,0.0,0.0,0.0,0.0,0.0,0.0,0.0,0.0,0.0,0.0,0.0,0.0,-0.393,-0.4364,-0.461,-0.4665,0.0,0.0,-0.4591,-0.4515,-0.4455,-0.4414,0.0,0.0,0.0,0.0,0.0,0.0,0.0,0.0,0.0,0.0,0.0,0.0,0.0,0.0,0.0,0.0,0.0,0.0,0.0,0.0,0.0,0.0,0.0,0.0,0.0,0.0,0.0,0.0,0.0,0.0,0.0,0.0,0.0,0.0,0.0,0.0,0.0,0.0,0.0,0.0,0.0,0.0,0.0,0.0,0.0,0.0,0.0,0.0,0.0,0.0,0.0,0.0,0.0,0.0,0.0,0.2197,0.2047,0.1123,-0.0702,-0.1728,-0.2627,-0.35,-0.3416,-0.3627,0.0,0.0,0.0,0.0,0.0,0.0,0.0,0.0,0.0,0.0,0.0,0.0,0.0,0.0,0.0,0.0,0.0,0.0,0.0,0.0,0.0,0.0,0.0,0.0,0.0,0.0,0.0,0.0,0.0,0.0,0.0,0.0,0.0,0.0,0.0,0.0,0.0,0.0,0.0,0.0,0.0,-0.352,-0.3994,-0.4527,-0.4728,0.0,0.0,-0.47,-0.4586,-0.4515,-0.4458,-0.4406,0.0,0.0,0.0,0.0,0.0,0.0,0.0,0.0,0.0,0.0,0.0,0.0,0.0,0.0,0.0,0.0,0.0,0.0,0.0,0.0,0.0,0.0,0.0,0.0,0.0,0.0,0.0,0.0,0.0,0.0,0.0,0.0,0.0,0.0,0.0,0.0,0.0,0.0,0.0,0.0,0.0,0.0,0.0,0.0,0.0,0.0,0.0,0.0,0.0,0.0,0.0,0.0,0.0,0.2074,0.2223,0.2193,0.1414,-0.0287,-0.1597,-0.2638,-0.3541,-0.3426,-0.3636,0.0,0.0,0.0,0.0,0.0,0.0,0.0,0.0,0.0,0.0,0.0,0.0,0.0,0.0,0.0,0.0,0.0,0.0,0.0,0.0,0.0,0.0,0.0,0.0,0.0,0.0,0.0,0.0,-0.1794,-0.1794,-0.1794,0.0,0.0,0.0,0.0,0.0,0.0,0.0,0.0,0.0,0.0,-0.3231,-0.3813,-0.4189,0.0,0.0,-0.4684,-0.4684,-0.4638,-0.4548,-0.4477,-0.4452,-0.4322,0.0,0.0,0.0,0.0,0.0,0.0,0.0,0.0,0.0,0.0,0.0,0.0,0.0,0.0,0.0,0.0,0.0,0.0,0.0,0.0,0.0,0.0,0.0,0.0,0.0,0.0,0.0,0.0,0.0,0.0,0.0,0.0,0.0,0.0,0.0,0.0,0.0,0.0,0.0,0.0,0.0,0.0,0.0,0.0,0.0,0.0,0.0,0.0,0.0,0.0,0.0,0.0,0.2213,0.2255,0.2203,0.1563,0.0146,-0.1464,-0.2653,-0.3118,-0.3162,-0.3511,0.0,0.0,0.0,0.0,0.0,0.0,0.0,0.0,0.0,0.0,0.0,0.0,0.0,0.0,0.0,0.0,0.0,0.0,0.0,0.0,0.0,0.0,0.0,0.0,0.0,0.0,0.0,0.0,-0.1794,-0.1794,-0.1794,0.0,0.0,0.0,0.0,0.0,0.0,0.0,0.0,0.0,0.0,-0.3085,-0.3647,-0.4028,-0.4246,-0.4668,-0.4679,-0.4684,-0.4668,-0.4578,-0.4504,-0.4485,0.0,0.0,0.0,0.0,0.0,0.0,0.0,0.0,0.0,0.0,0.0,0.0,0.0,0.0,0.0,0.0,0.0,0.0,0.0,0.0,0.0,0.0,0.0,0.0,0.0,0.0,0.0,0.0,0.0,0.0,0.0,0.0,0.0,0.0,0.0,0.0,0.0,0.0,0.0,0.0,0.0,0.0,0.0,0.0,0.0,0.0,0.0,0.0,0.0,0.0,0.0,0.0,0.0,0.2486,0.2153,0.2214,0.1706,0.0729,-0.1328,-0.2378,-0.2378,-0.2609,-0.339,-0.4401,0.0,0.0,0.0,0.0,0.0,0.0,0.0,0.0,0.0,0.0,0.0,0.0,0.0,0.0,0.0,0.0,0.0,0.0,0.0,0.0,0.0,0.0,0.0,0.0,0.0,0.0,-0.1794,-0.1794,-0.1795,0.0,0.0,0.0,0.0,0.0,0.0,0.0,0.0,0.0,0.0,-0.2574,-0.2945,-0.3367,-0.3912,-0.4283,-0.4673,-0.4714,-0.473,-0.4673,-0.4613,-0.4692,0.0,0.0,0.0,0.0,0.0,0.0,0.0,0.0,0.0,0.0,0.0,0.0,0.0,0.0,0.0,0.0,0.0,0.0,0.0,0.0,0.0,0.0,0.0,0.0,0.0,0.0,0.0,0.1526,0.127,0.0,0.0,0.0,0.0,0.0,0.0,0.0,0.0,0.0,0.0,0.0,0.089,0.1271,0.0,0.0,0.0,0.0,0.0,0.0,0.0,0.0,0.0,0.0,0.0,0.0,0.2894,0.2866,0.2501,0.1719,0.0746,-0.0596,-0.1641,-0.2408,-0.2644,-0.3109,-0.3617,0.0,0.0,0.0,0.0,0.0,0.0,0.0,0.0,0.0,0.0,0.0,0.0,0.0,0.0,0.0,0.0,0.0,0.0,0.0,0.0,0.0,0.0,0.0,0.0,0.0,-0.1794,0.0,0.0,0.0,0.0,0.0,0.0,0.0,0.0,0.0,0.0,0.0,-0.2067,-0.2117,-0.2331,-0.2533,-0.298,-0.3184,-0.3516,0.0,0.0,0.0,0.0,0.0,0.0,0.0,0.0,0.0,0.0,0.0,0.0,0.0,0.0,-0.3172,-0.3557,-0.2857,-0.2157,-0.2249,0.0,0.0,0.0,0.0,0.0,0.0,0.0,0.0,0.0,0.0,0.0,0.0,0.0,0.0,0.0,0.0,0.1787,0.0,0.0,0.0,0.0,0.0,0.0,0.0,0.0,0.0254,0.1023,0.1935,0.2322,0.2322,0.0,0.115,0.0126,0.0,0.0,0.0,0.0,0.0,0.0,0.0,0.0,0.3452,0.3594,0.2957,0.2177,0.1208,-0.0151,-0.1361,-0.2438,-0.2656,-0.2681,-0.2796,-0.2325,-0.1999,0.0,0.0,0.0,0.0,0.0,0.0,0.0,0.0,0.0,0.0,0.0,0.0,0.0,0.0,0.0,0.0,0.0,0.0,0.0,0.0,0.0,0.0,0.0,-0.1816,0.0,0.0,0.0,0.0,0.0,0.0,0.0,0.0,0.0,-0.1977,-0.2037,-0.2098,-0.2147,-0.2207,-0.2396,-0.2711,0.0,0.0,0.0,0.0,0.0,0.0,0.0,-0.3164,-0.3578,-0.3383,-0.3349,-0.3501,-0.3377,-0.3246,-0.3246,0.0,0.0,-0.3057,-0.263,-0.22,-0.2151,-0.2132,-0.2248,-0.2086,-0.2079,-0.2079,0.0,0.0,0.0,0.0,0.0,0.0,0.0,0.0,0.401,0.3754,0.0,0.3103,0.0,0.0,0.0,0.0,0.0,0.0,0.0,0.0,0.1161,0.2065,0.2843,0.2974,0.2714,0.2196,0.2067,0.1667,0.0885,-0.0873,0.0,0.0,0.0,0.0,0.0,0.0,0.4037,0.4477,0.3595,0.2805,0.227,0.0306,-0.1387,-0.2463,-0.2353,-0.2251,-0.2159,-0.2099,-0.2039,-0.1978,-0.1919,0.0,0.0,0.0,0.0,0.0,0.0,0.0,0.0,0.0,0.0,0.0,0.0,0.0,0.0,0.0,0.0,0.0,0.0,0.0,0.0,-0.1823,0.0,0.0,0.0,0.0,0.0,0.0,0.0,0.0,0.0,0.0,-0.1862,-0.193,-0.2123,-0.2019,0.0,0.0,0.0,0.0,-0.3063,-0.3354,-0.3502,-0.3502,-0.35,-0.277,-0.2613,-0.3299,0.0,0.0,-0.3235,-0.3262,-0.3292,-0.3006,-0.3034,-0.3038,-0.2961,-0.2527,-0.2236,-0.2206,-0.2178,-0.2148,-0.2123,-0.1987,-0.1986,0.3698,0.0,0.0,0.0,0.0,0.4931,0.5065,0.5335,0.4928,0.4629,0.4583,0.3873,0.0,0.0,0.0,0.0,0.0,0.0,0.1292,0.2095,0.2359,0.2897,0.3457,0.3324,0.3056,0.2924,0.2369,0.2093,0.1823,0.1283,0.126,0.1852,0.0,0.0,0.0,0.0,0.4211,0.4482,0.374,0.3102,0.2423,0.0613,-0.0921,-0.2438,-0.2361,-0.2278,-0.2191,-0.215,-0.2082,-0.1982,-0.196,0.0,0.0,0.0,0.0,0.0,0.0,0.0,0.0,0.0,0.0,0.0,0.0,0.0,0.0,0.0,0.0,0.0,0.0,0.0,-0.1825,-0.1855,-0.1876,0.0,0.0,0.0,0.0,0.0,0.0,0.0,0.0,0.0,-0.1312,-0.0929,-0.081,0.0,0.0,-0.1716,-0.2171,-0.2472,-0.2478,-0.2625,0.0,0.0,0.0,-0.248,-0.2333,-0.2615,-0.2613,-0.2457,-0.2567,-0.259,-0.2612,-0.2467,-0.2039,-0.1746,-0.1734,-0.2005,-0.2268,-0.224,-0.1391,-0.0692,-0.069,-0.0965,-0.1378,0.3116,0.3756,0.3843,0.4366,0.5045,0.5184,0.5604,0.6023,0.5744,0.5577,0.5394,0.4777,0.4308,0.385,0.2734,0.0,0.0,0.0,0.2491,0.3191,0.3191,0.3472,0.3765,0.3631,0.3631,0.3362,0.3068,0.2784,0.2638,0.2614,0.27,0.3017,0.0,0.0,0.4161,0.4548,0.4801,0.4765,0.4071,0.3431,0.2878,0.0308,-0.1387,-0.2424,-0.2376,-0.2308,-0.2222,-0.2177,-0.2116,-0.2033,-0.1994,-0.1952,0.0,0.0,0.0,0.0,0.0,0.0,0.0,0.0,0.0,0.0,0.0,-0.1794,-0.1794,0.0,0.0,0.0,-0.1824,-0.1843,-0.1873,-0.1892,0.0,0.0,0.0,0.0,0.0,0.0,0.0,-0.205,-0.2087,-0.1993,-0.1489,-0.0682,-0.0138,-0.0564,-0.0712,-0.0863,-0.131,0.0,-0.2334,-0.2334,-0.2334,-0.2188,-0.1896,-0.2043,-0.2189,-0.146,-0.146,-0.1456,-0.1735,-0.1889,-0.1898,-0.2189,-0.1898,-0.1606,-0.1314,-0.174,-0.23,-0.227,-0.099,0.0,0.0,-0.0421,-0.0701,0.307,0.3627,0.3944,0.4427,0.5078,0.5494,0.6056,0.6758,0.6329,0.6317,0.6166,0.5812,0.5185,0.43,0.3277,0.0,0.0,0.3435,0.359,0.3631,0.3768,0.3768,0.3902,0.4171,0.4171,0.3768,0.3768,0.361,0.3173,0.3171,0.341,0.3622,0.4015,0.4302,0.4352,0.5153,0.5404,0.5344,0.4577,0.394,0.3192,-0.0466,-0.2485,-0.2425,-0.2397,-0.2338,-0.2249,-0.2192,-0.2146,-0.2241,-0.2029,-0.1981,-0.1974,0.0,0.0,0.0,0.0,0.0,0.0,0.0,0.0,0.0,0.0,0.0,0.0,0.0,0.0,0.0,-0.1872,0.0,-0.1932,-0.1936,0.0,0.0,0.0,-0.2022,-0.2022,-0.2049,-0.2079,-0.2106,0.0,0.0,0.0,0.0,0.0,0.0,0.0,0.0,0.0,-0.1168,-0.2189,-0.2189,-0.2191,-0.2043,-0.1606,-0.1752,-0.1606,0.0,0.0,0.0,-0.0875,-0.1167,-0.146,-0.1898,-0.2043,-0.1898,-0.1168,-0.1605,-0.2182,-0.2011,-0.1003,0.0,0.0,0.0,0.0,0.3758,0.3988,0.4409,0.5112,0.5796,0.6176,0.6589,0.7023,0.6809,0.6745,0.6677,0.631,0.5368,0.4305,0.3742,0.347,0.3214,0.3214,0.3488,0.3768,0.3768,0.3902,0.4171,0.4305,0.4037,0.3631,0.3768,0.3761,0.3481,0.3348,0.3475,0.4134,0.4577,0.4855,0.5091,0.5368,0.5645,0.563,0.4768,0.3055,0.0934,-0.141,-0.2485,-0.2425,-0.2416,-0.236,-0.2251,-0.2232,-0.2188,-0.2245,-0.2067,-0.2023,-0.1978,-0.1933,0.0,0.0,0.0,0.0,0.0,0.0,0.0,0.0,0.0,-0.1865,-0.1864,0.0,-0.1868,0.0,-0.1903,-0.1933,-0.1963,-0.1985,0.0,0.0,-0.2049,-0.2053,-0.2053,-0.208,-0.197,-0.2109,-0.1209,-0.0959,-0.2091,-0.0848,0.0,0.0,0.0,0.0,0.0,-0.0292,-0.073,-0.1314,-0.1898,-0.2191,-0.1898,-0.1168,0.0,0.0,0.0,0.0,0.0,-0.0292,-0.0292,-0.0584,-0.0584,-0.0438,-0.0292,-0.0438,-0.0583,-0.0582,-0.0291,0.0,0.0,0.0,0.0289,0.3952,0.4352,0.4973,0.5572,0.6145,0.6488,0.6716,0.7121,0.7072,0.6998,0.6909,0.6252,0.559,0.4801,0.4384,0.3974,0.3837,0.3835,0.3837,0.4108,0.4085,0.4211,0.4346,0.4322,0.4171,0.3902,0.4037,0.4037,0.3902,0.39,0.4168,0.4577,0.5182,0.5625,0.5758,0.6016,0.5998,0.5829,0.4509,0.2774,0.0471,-0.157,-0.2485,-0.2427,-0.2424,-0.2373,-0.227,-0.2252,-0.2215,-0.2153,-0.2108,-0.2069,-0.2037,-0.1982,-0.1944,0.0,0.0,0.0,0.0,0.0,0.0,0.0,0.0,0.0,0.0,0.0,-0.1896,0.0,-0.1954,-0.1984,-0.2012,-0.203,-0.1917,-0.1546,-0.1556,-0.1562,-0.1562,-0.1592,-0.1747,-0.215,-0.1506,-0.0976,-0.113,-0.057,0.0,0.0,0.0,0.0,0.0,0.0,-0.0146,-0.0584,-0.1022,-0.1314,-0.1314,-0.0584,0.0,0.0,0.0,0.0,0.0,0.0,0.0,0.0,0.0584,0.1022,0.1022,0.0438,0.0,0.0,0.0,0.0,0.0876,0.1022,0.1314,0.4296,0.4564,0.5341,0.5962,0.642,0.6747,0.6935,0.7141,0.7265,0.7202,0.697,0.6173,0.5675,0.5607,0.4902,0.4482,0.4482,0.4482,0.4482,0.448,0.4431,0.4406,0.4395,0.4343,0.4313,0.4308,0.4305,0.4305,0.4305,0.4574,0.4845,0.4855,0.574,0.6237,0.6333,0.6701,0.6505,0.5723,0.4254,0.2643,0.0785,-0.1256,-0.2331,-0.2432,-0.2425,-0.2384,-0.23,-0.2267,-0.2237,-0.2206,-0.2147,-0.2116,-0.2113,-0.2034,-0.1988,0.0,-0.1939,0.0,0.0,0.0,0.0,0.0,0.0,0.0,0.0,-0.1789,-0.181,-0.1736,-0.1885,-0.1911,-0.1938,-0.194,-0.1813,-0.13,-0.092,-0.0928,-0.0931,-0.0951,-0.124,-0.1792,-0.1954,-0.1414,-0.0286,0.0,0.0,0.0,0.0,0.0,0.0,0.0,0.0,0.0,0.0,0.0,0.0,0.0,0.0,0.0,0.0,0.0292,0.0,0.0,0.0,0.0,0.1168,0.2043,0.2191,0.1168,0.0438,0.0,0.0,0.0729,0.1898,0.2189,0.2043,0.5474,0.541,0.5984,0.6431,0.69,0.7648,0.7846,0.7673,0.7668,0.7395,0.7023,0.6436,0.5958,0.5611,0.5184,0.4762,0.4482,0.4482,0.4482,0.4482,0.4471,0.4442,0.4398,0.4387,0.4357,0.4308,0.4305,0.4305,0.4305,0.4708,0.5005,0.5338,0.5961,0.6356,0.6789,0.0,0.0,0.0,0.4033,0.2664,0.0785,-0.0471,-0.156,-0.2462,-0.2436,0.0,-0.2328,-0.2297,-0.2127,-0.2237,-0.2178,0.0,0.0,0.0,0.0,0.0,0.0,0.0,0.0,0.0,0.0,0.0,-0.1145,-0.1396,-0.1903,-0.1523,-0.1144,-0.1151,-0.1154,-0.1163,-0.118,-0.1706,-0.1987,-0.1897,-0.0953,-0.0137,-0.0138,-0.0139,-0.028,-0.0419,-0.0424,-0.0285,0.0,0.0,0.0,0.0,0.0,0.0,0.0,0.0,0.0,0.0,0.0,0.0,0.0,0.0,0.0,0.0,0.1168,0.1752,0.1752,0.1314,0.1022,0.1022,0.1168,0.1606,0.2189,0.2043,0.1752,0.1898,0.1896,0.1896,0.2191,0.2337,0.2189,0.6169,0.0,0.6504,0.6784,0.0,0.7946,0.8333,0.8228,0.8076,0.7632,0.6925,0.649,0.6037,0.5716,0.5288,0.5003,0.4572,0.4572,0.4572,0.4572,0.4542,0.4512,0.4482,0.4425,0.4384,0.4352,0.4322,0.4305,0.4308,0.4876,0.5318,0.5495,0.6163,0.6713,0.699,0.6762,0.6142,0.4973,0.3957,0.2877,0.1599,0.0318,-0.1103,-0.2492,0.0,0.0,0.0,0.0,0.0,0.0,0.0,0.0,0.0,0.0,0.0,-0.1597,-0.1183,-0.1046,-0.0921,-0.0654,-0.0262,0.0,0.0134,-0.0532,-0.1941,-0.1678,-0.1165,-0.0521,-0.0525,-0.053,-0.0538,-0.0135,0.0137,0.0,0.0416,0.0557,0.0561,0.0564,0.0567,0.0568,0.0573,0.0578,0.0578,0.0581,0.0584,0.0584,0.0584,0.0584,0.0584,0.0876,0.0876,0.0,0.0,0.0,0.0,0.073,0.1168,0.0,0.146,0.1898,0.2191,0.2043,0.1752,0.1752,0.1752,0.1896,0.2188,0.2334,0.2334,0.2334,0.2334,0.2333,0.2334,0.2334,0.2334,0.6703,0.6585,0.6894,0.7001,0.7079,0.8247,0.8808,0.8765,0.0,0.0,0.0,0.67,0.6264,0.5825,0.5392,0.5101,0.4665,0.4665,0.4665,0.4662,0.4613,0.4583,0.457,0.4474,0.4422,0.4274,0.4362,0.4341,0.4476,0.5211,0.5522,0.5684,0.6516,0.6945,0.7096,0.6638,0.5846,0.4913,0.4029,0.3092,0.2441,0.0967,-0.0479,-0.2049,-0.2313,-0.2425,-0.2395,-0.2342,-0.159,-0.0144,-0.0569,-0.0847,-0.0563,-0.1112,-0.1242,-0.0689,-0.0135,0.0268,0.0406,0.0537,0.0808,0.1378,0.1394,0.0551,-0.1316,-0.1443,-0.0922,0.0133,0.0269,0.0273,0.0276,0.1254,0.2108,0.2252,0.1831,0.1409,0.1414,0.1426,0.1437,0.1438,0.1449,0.146,0.1459,0.1459,0.146,0.146,0.146,0.1314,0.146,0.1752,0.1606,0.0,0.0,0.0,0.0584,0.1314,0.2191,0.2189,0.1752,0.1606,0.2043,0.2335,0.2335,0.2189,0.2334,0.2333,0.2333,0.2333,0.2333,0.2333,0.2337,0.2341,0.2341,0.2346,0.2349,0.7256,0.723,0.7158,0.7405,0.7644,0.8423,0.9261,0.9682,0.8711,0.7815,0.6982,0.6986,0.6555,0.5825,0.5683,0.5392,0.4665,0.4665,0.4665,0.0,0.4654,0.4624,0.4572,0.4556,0.4521,0.4471,0.4461,0.4597,0.5017,0.5308,0.5764,0.6256,0.6777,0.7133,0.7439,0.7175,0.6337,0.5251,0.4243,0.3417,0.2605,0.1463,0.0484,-0.0319,-0.1732,-0.2488,-0.2457,-0.2423,-0.1645,-0.0148,-0.0146,0.0433,0.1714,0.1692,0.1399,0.0979,0.0976,0.0975,0.1116,0.1671,0.209,0.2097,0.2102,0.1678,0.0833,0.0694,0.0833,0.0974,0.0974,0.0977,0.0979,0.1262,0.1694,0.2138,0.2142,0.2151,0.2027,0.2178,0.2036,0.2036,0.2187,0.2043,0.2043,0.2043,0.2043,0.2043,0.2043,0.2189,0.2043,0.1606,0.1606,0.1898,0.2043,0.2043,0.1898,0.2043,0.2335,0.2337,0.2188,0.2041,0.2188,0.2334,0.2334,0.2334,0.2335,0.2335,0.2335,0.2333,0.2338,0.2341,0.2357,0.2371,0.2372,0.239,0.2401,0.7643,0.76,0.7561,0.7657,0.7894,0.8645,0.9291,0.9845,0.897,0.8117,0.7582,0.7285,0.6666,0.589,0.5886,0.5449,0.4714,0.4714,0.4714,0.4714,0.4714,0.4681,0.4624,0.4589,0.4559,0.4531,0.4496,0.4762,0.5048,0.5504,0.599,0.6365,0.7162,0.7667,0.7529,0.7267,0.6738,0.5622,0.4468,0.348,0.2653,0.1648,0.0819,0.0,-0.0801,-0.1104,-0.1091,-0.1848,-0.1217,0.1203,0.1344,0.1485,0.1772,0.2042,0.2173,0.1882,0.1859,0.185,0.1862,0.215,0.2293,0.2293,0.2293,0.215,0.1862,0.1839,0.1824,0.1824,0.1835,0.1844,0.1844,0.1855,0.1868,0.2312,0.2313,0.2319,0.2331,0.2334,0.2334,0.2334,0.2334,0.2334,0.2334,0.2334,0.2334,0.2335,0.2334,0.2335,0.2337,0.2055,0.1912,0.2192,0.2334,0.2334,0.2335,0.2334,0.2334,0.2334,0.2333,0.2333,0.2333,0.2334,0.2334,0.2334,0.2345,0.2356,0.2357,0.2224,0.223,0.2234,0.2242,0.2252,0.2406,0.2427,0.2435,0.819,0.7962,0.7962,0.8077,0.8144,0.8696,0.9336,0.9932,0.9151,0.8477,0.8237,0.7587,0.6773,0.6117,0.5965,0.5518,0.4926,0.4777,0.4774,0.4777,0.4774,0.4749,0.4703,0.4643,0.4616,0.4608,0.4695,0.4808,0.5238,0.573,0.6101,0.6806,0.7838,0.8167,0.7591,0.7653,0.7121,0.5995,0.4705,0.3709,0.2692,0.1835,0.083,0.0,0.0,0.0,0.0,-0.1099,-0.0465,0.2294,0.2444,0.2285,0.1666,0.2101,0.2388,0.2384,0.2346,0.233,0.2497,0.2493,0.249,0.249,0.2483,0.2333,0.233,0.2292,0.2266,0.2268,0.2288,0.23,0.2303,0.2318,0.2333,0.2333,0.2333,0.2333,0.2333,0.2333,0.2333,0.2333,0.2333,0.2334,0.2341,0.2343,0.2348,0.2356,0.2353,0.2353,0.2356,0.2375,0.2376,0.2363,0.2353,0.2356,0.2353,0.2356,0.2357,0.2353,0.2354,0.2358,0.2358,0.2356,0.2354,0.236,0.2373,0.2386,0.2391,0.2405,0.2266,0.2417,0.2425,0.2436,0.2446,0.2463,0.2469,0.8395,0.8052,0.8048,0.8497,0.9057,0.9116,0.9487,1.0014,0.9376,0.8845,0.858,0.7642,0.6811,0.6194,0.6043,0.5591,0.4837,0.4837,0.4837,0.4837,0.4837,0.4834,0.4818,0.4766,0.4739,0.4875,0.497,0.5373,0.5667,0.6173,0.6735,0.7346,0.8247,0.8405,0.7927,0.8208,0.7678,0.613,0.512,0.4079,0.2694,0.1848,0.0836,0.0,0.0,0.0,0.0,-0.0162,0.0641,0.2356,0.2504,0.2481,0.2432,0.2421,0.242,0.242,0.2413,0.2564,0.3016,0.2987,0.2968,0.2965,0.2939,0.2775,0.2335,0.233,0.2324,0.2326,0.2327,0.2327,0.2328,0.2331,0.2333,0.2333,0.2335,0.2333,0.2335,0.2333,0.2333,0.2333,0.2339,0.2342,0.2369,0.2373,0.2384,0.2403,0.2403,0.2405,0.2406,0.2413,0.2418,0.2414,0.2414,0.2262,0.226,0.2414,0.2408,0.2409,0.2413,0.2408,0.2405,0.2406,0.2413,0.2398,0.2413,0.2418,0.242,0.2424,0.2427,0.2439,0.2453,0.2472,0.2496,0.2504,0.2495,0.8399,0.806,0.806,0.851,0.9081,0.9197,0.9607,1.0153,0.9507,0.8997,0.8795,0.7927,0.7181,0.6579,0.6274,0.5969,0.5663,0.5358,0.5355,0.5663,0.5511,0.5337,0.5449,0.5118,0.4954,0.5256,0.5379,0.5661,0.5975,0.6634,0.7341,0.7937,0.8558,0.8714,0.8367,0.8458,0.7901,0.6489,0.5301,0.4451,0.3426,0.2045,0.0848,0.0,0.0,0.0,0.0,0.0,0.0488,0.1751,0.2224,0.2522,0.248,0.2461,0.2451,0.245,0.2737,0.2878,0.3029,0.3315,0.3456,0.3456,0.344,0.328,0.3131,0.2982,0.2834,0.2681,0.2501,0.2333,0.2334,0.2333,0.2333,0.2335,0.2349,0.236,0.236,0.2375,0.2386,0.2386,0.2386,0.239,0.2401,0.2405,0.241,0.2421,0.2424,0.2427,0.2425,0.2438,0.245,0.2453,0.2465,0.2459,0.2435,0.2424,0.2425,0.2424,0.2424,0.2424,0.2427,0.2424,0.2423,0.2425,0.244,0.245,0.2451,0.2467,0.2477,0.2478,0.2481,0.25,0.2512,0.2514,0.2507,0.8571,0.806,0.806,0.8523,0.9288,0.9288,0.9722,1.0276,0.9617,0.9273,0.9088,0.828,0.7693,0.7053,0.6548,0.6386,0.6227,0.5894,0.5887,0.6196,0.6042,0.6012,0.6118,0.5635,0.5474,0.5471,0.5755,0.606,0.6543,0.7076,0.7627,0.8203,0.8866,0.9169,0.8756,0.8851,0.8286,0.7024,0.5665,0.4668,0.3846,0.2256,0.0861,0.0,0.0,0.0,0.0,0.0,0.033,0.097,0.1933,0.2557,0.2527,0.2497,0.2636,0.279,0.2922,0.3213,0.3366,0.3659,0.3803,0.3953,0.3944,0.3784,0.3633,0.3484,0.3332,0.3176,0.2978,0.2653,0.2357,0.2357,0.2357,0.236,0.2379,0.2391,0.2393,0.2412,0.2421,0.2424,0.2417,0.2427,0.2435,0.2443,0.2451,0.2453,0.2451,0.2448,0.245,0.2467,0.2481,0.2482,0.25,0.2495,0.2457,0.2453,0.2448,0.2448,0.2453,0.2454,0.2448,0.2448,0.245,0.2467,0.2476,0.248,0.2481,0.2502,0.2511,0.2514,0.2514,0.2512,0.2514,0.2514,0.2514,0.8901,0.806,0.806,0.8562,0.9397,0.9392,0.9833,1.0547,1.0055,0.9509,0.9107,0.8617,0.828,0.777,0.721,0.6698,0.6366,0.6305,0.6278,0.6434,0.6587,0.6584,0.6261,0.6354,0.6169,0.5864,0.6274,0.6876,0.7249,0.7321,0.7562,0.8296,0.9135,0.9568,0.9269,0.9364,0.8826,0.7604,0.6246,0.491,0.3744,0.2304,0.1048,0.0,0.0,0.0,0.0,0.0,0.0,0.0,0.1634,0.2426,0.2559,0.2527,0.2667,0.3292,0.3133,0.3445,0.4222,0.434,0.4314,0.4309,0.4276,0.4091,0.3797,0.3797,0.3645,0.3637,0.3635,0.3325,0.257,0.2562,0.2412,0.2413,0.2418,0.2423,0.2421,0.2428,0.2424,0.2428,0.2432,0.2443,0.2465,0.2492,0.25,0.2503,0.2507,0.2504,0.2502,0.2507,0.2508,0.2508,0.2511,0.2512,0.251,0.2496,0.25,0.2497,0.2491,0.2503,0.2508,0.251,0.2507,0.2506,0.2504,0.2506,0.251,0.2512,0.2514,0.2514,0.2514,0.2514,0.2514,0.2514,0.2514,0.8901,0.806,0.806,0.8566,0.9407,0.9407,0.9883,1.0672,1.0175,0.9823,0.9297,0.8797,0.8466,0.7962,0.7713,0.7483,0.7267,0.7072,0.7057,0.7221,0.7381,0.7381,0.7217,0.7027,0.6854,0.6691,0.6824,0.7299,0.7648,0.7521,0.8063,0.8797,0.9366,0.9773,0.9682,0.9622,0.9067,0.798,0.6641,0.5301,0.3936,0.2842,0.1584,0.0,0.0,0.0,0.0,0.0,0.0,0.0,0.1147,0.1943,0.2402,0.253,0.2671,0.3139,0.3611,0.3927,0.4395,0.4691,0.4678,0.4831,0.4815,0.4645,0.4492,0.4338,0.4185,0.4028,0.3874,0.3564,0.34,0.306,0.2878,0.2881,0.2594,0.2453,0.2457,0.2469,0.2481,0.2481,0.2481,0.2488,0.2493,0.2507,0.2514,0.2514,0.2514,0.2514,0.2514,0.2514,0.2514,0.2514,0.2514,0.2514,0.2514,0.2514,0.2514,0.2512,0.2511,0.251,0.2512,0.2514,0.251,0.251,0.2514,0.2514,0.2512,0.2512,0.2514,0.2514,0.2514,0.2514,0.2514,0.2514,0.2514,0.8733,0.8227,0.806,0.8566,0.9407,0.9407,0.9903,1.057,1.0404,1.007,0.9574,0.9072,0.8738,0.8223,0.8003,0.7946,0.7876,0.7498,0.7471,0.7799,0.7799,0.7799,0.7799,0.7471,0.7305,0.7143,0.7143,0.7471,0.7803,0.7819,0.8358,0.924,0.9773,1.018,1.0289,0.9869,0.9112,0.8362,0.703,0.5673,0.4472,0.3386,0.2304,0.0,0.0348,0.0,0.0,0.0,0.0168,0.0499,0.0988,0.1626,0.2403,0.253,0.2828,0.3454,0.3925,0.4238,0.4554,0.4865,0.5022,0.5019,0.5022,0.5022,0.5022,0.4709,0.4552,0.4552,0.4395,0.4238,0.407,0.3869,0.368,0.3375,0.3089,0.2948,0.2949,0.2969,0.2823,0.2667,0.251,0.2512,0.2514,0.2514,0.2514,0.2514,0.2514,0.2514,0.2514,0.2514,0.2514,0.2514,0.2514,0.2514,0.2514,0.2514,0.2514,0.2514,0.2514,0.2514,0.2514,0.2514,0.2514,0.2514,0.2514,0.2514,0.2514,0.2514,0.2514,0.2514,0.2514,0.2514,0.2514,0.2514,0.2514,0.8575,0.824,0.8064,0.8742,0.9407,0.9416,0.9913,1.0586,1.0748,1.043,0.9948,0.9593,0.9105,0.8751,0.824,0.806,0.8027,0.7897,0.7827,0.7827,0.7819,0.7823,0.7823,0.7827,0.7665,0.7332,0.7317,0.7483,0.7827,0.7889,0.8263,0.9269,1.0195,1.0629,1.0916,1.0094,0.9334,0.8773,0.7413,0.6213,0.5552,0.3943,0.2856,0.2478,0.105,0.0,0.0,0.0,0.0337,0.1177,0.1331,0.1639,0.2405,0.2533,0.2987,0.3927,0.4241,0.4397,0.4865,0.5022,0.5022,0.5022,0.5022,0.5022,0.5022,0.5022,0.5022,0.4865,0.4865,0.4865,0.4865,0.4857,0.4539,0.3922,0.376,0.3603,0.3764,0.3766,0.3611,0.314,0.2826,0.2514,0.2514,0.2514,0.2514,0.2514,0.2514,0.2514,0.2514,0.2514,0.2514,0.2514,0.2514,0.2514,0.2514,0.2514,0.2514,0.2514,0.2514,0.2514,0.2514,0.2514,0.2514,0.2514,0.2514,0.2514,0.2514,0.2514,0.2514,0.2514,0.2514,0.2514,0.2514,0.2514,0.2514,0.9578,0.9187,0.9247,0.9531,0.9928,0.9988,1.0361,1.0862,1.0862,1.0567,1.0289,1.0129,0.9616,0.9085,0.8692,0.8492,0.8146,0.8036,0.7978,0.7974,0.7974,0.7974,0.7974,0.7978,0.7983,0.7813,0.7813,0.7813,0.7978,0.7999,0.8514,0.9373,1.0472,1.0878,1.0763,1.0386,0.9991,0.9162,0.7995,0.7149,0.6276,0.4485,0.3403,0.2678,0.0,0.0,0.0,0.0,0.0,0.1347,0.1333,0.1639,0.241,0.2551,0.3011,0.3774,0.4084,0.4397,0.4865,0.5022,0.5022,0.5022,0.5022,0.5022,0.5022,0.5022,0.5022,0.5022,0.5022,0.5022,0.5022,0.5022,0.4709,0.4241,0.3925,0.3925,0.3925,0.3925,0.3768,0.3454,0.2983,0.2669,0.2826,0.2669,0.2514,0.2514,0.2514,0.2514,0.2514,0.2671,0.2514,0.2514,0.2514,0.2514,0.2671,0.2828,0.2828,0.2828,0.2828,0.2671,0.2671,0.2671,0.2671,0.2514,0.2514,0.2514,0.2514,0.2514,0.2514,0.2514,0.2514,0.2514,0.2514,0.2514,0.2514,1.0189,0.9631,0.986,0.9983,1.0202,1.0274,1.0641,1.0987,1.0987,1.0859,1.0741,1.0401,1.0056,0.952,0.9265,0.9049,0.8701,0.861,0.8566,0.8566,0.8399,0.8399,0.8232,0.8227,0.806,0.806,0.806,0.8227,0.8232,0.8257,0.861,0.9647,1.0588,1.1014,1.0881,1.0667,1.0234,0.9577,0.8748,0.7706,0.6633,0.5022,0.3768,0.2866,0.1066,0.0,0.0,0.0684,0.1184,0.1683,0.1833,0.2137,0.2594,0.2572,0.2868,0.364,0.4093,0.4395,0.4865,0.5022,0.5022,0.5022,0.5022,0.5022,0.5022,0.5022,0.5022,0.5022,0.5022,0.5022,0.5022,0.5022,0.4865,0.4711,0.4395,0.4238,0.4238,0.4238,0.4241,0.4084,0.3768,0.3454,0.3297,0.314,0.2985,0.2985,0.2985,0.2985,0.2985,0.2985,0.2985,0.2828,0.2669,0.2826,0.2985,0.3142,0.314,0.314,0.314,0.314,0.3142,0.3142,0.3142,0.2985,0.2985,0.2512,0.2512,0.2512,0.2512,0.2512,0.2514,0.2514,0.2514,0.2514,0.2515,1.0244,0.9894,0.9903,1.0244,1.0386,1.0574,1.0762,1.1112,1.1112,1.1123,1.0961,1.0804,1.0442,1.0234,0.9831,0.9607,0.9559,0.9305,0.9416,0.9244,0.9072,0.8905,0.8738,0.8399,0.8403,0.8248,0.8248,0.842,0.8786,0.8505,0.8879,1.0264,1.0881,1.1156,1.1052,1.075,1.0646,1.0367,0.9313,0.8242,0.7352,0.5739,0.4124,0.287,0.0,0.0,0.0,0.1377,0.2383,0.2697,0.2501,0.2485,0.2635,0.2593,0.2889,0.3674,0.411,0.4405,0.4868,0.5022,0.5022,0.5022,0.5022,0.5022,0.5022,0.5022,0.5022,0.5022,0.5022,0.5022,0.5022,0.5022,0.5022,0.5022,0.4865,0.4865,0.5022,0.4868,0.4711,0.4554,0.4714,0.4714,0.3925,0.3768,0.3768,0.3768,0.3611,0.3611,0.3611,0.3611,0.3768,0.3454,0.314,0.314,0.3299,0.377,0.3927,0.3613,0.3611,0.3611,0.3454,0.3613,0.3613,0.3454,0.3297,0.2825,0.2668,0.2983,0.2668,0.2511,0.2512,0.2514,0.2514,0.2514,0.2522,1.1132,1.0888,1.0967,1.1084,1.095,1.1009,1.1052,1.1226,1.1226,1.1275,1.134,1.1362,1.0993,1.0636,1.0354,1.0096,0.9836,0.9569,0.9642,0.9913,0.9903,0.9574,0.924,0.9072,0.9114,0.9173,0.9183,0.9219,0.9455,0.913,0.9492,1.0366,1.1004,1.1248,1.11,1.1191,1.1245,1.1104,0.9852,0.8778,0.8063,0.6454,0.4662,0.3046,0.2325,0.1421,0.0352,0.1037,0.2043,0.2697,0.2687,0.2669,0.2649,0.263,0.2926,0.3687,0.3825,0.4275,0.4873,0.5022,0.5022,0.5022,0.5022,0.5022,0.5022,0.5022,0.5022,0.5022,0.5022,0.5022,0.5022,0.5022,0.5022,0.5022,0.5022,0.5022,0.5022,0.5022,0.5022,0.4865,0.5025,0.4711,0.4397,0.4397,0.4397,0.4081,0.3925,0.3925,0.3925,0.3925,0.4081,0.3925,0.3611,0.3611,0.3768,0.4397,0.4554,0.4241,0.4084,0.3927,0.3927,0.3768,0.3768,0.3768,0.3768,0.3452,0.3768,0.3927,0.3454,0.2982,0.2511,0.2512,0.2514,0.2515,0.253,1.1417,1.1351,1.1427,1.1378,1.1264,1.1324,1.1351,1.1351,1.1351,1.1384,1.1449,1.1455,1.1277,1.1083,1.0972,1.0714,1.0462,1.0194,1.0279,1.0403,1.0562,1.0197,0.9835,0.9676,0.9569,0.9616,0.9626,0.9831,0.9879,0.9918,1.0116,1.0677,1.1346,1.1422,1.1266,1.1542,1.1585,1.1373,1.0272,0.9361,0.8603,0.6991,0.5559,0.4122,0.3406,0.2318,0.1404,0.1726,0.2213,0.2531,0.2691,0.2683,0.2668,0.2653,0.2954,0.3707,0.3848,0.4291,0.4878,0.5022,0.5022,0.5022,0.5022,0.5022,0.5022,0.5022,0.5022,0.5022,0.5022,0.5022,0.5022,0.5022,0.5022,0.5022,0.5022,0.5022,0.5022,0.5022,0.5022,0.5022,0.5022,0.4868,0.4711,0.4868,0.4711,0.4552,0.4395,0.4395,0.4395,0.4238,0.4238,0.4238,0.4238,0.4238,0.4238,0.4711,0.4868,0.4711,0.4554,0.4397,0.4395,0.4238,0.4238,0.4238,0.4238,0.4395,0.4395,0.4554,0.4397,0.3768,0.3139,0.2511,0.2514,0.2526,0.2541,1.1471,1.1471,1.146,1.1455,1.1444,1.1455,1.1444,1.1449,1.1444,1.1449,1.1455,1.1455,1.1455,1.1449,1.1357,1.1286,1.1259,1.0988,1.094,1.1085,1.1079,1.0886,1.048,1.0169,1.0042,1.0071,0.9903,1.0264,1.0493,1.0564,1.0781,1.1196,1.1547,1.1639,1.1645,1.1743,1.1754,1.1502,1.075,0.9974,0.9007,0.7732,0.647,0.5559,0.3768,0.3023,0.2801,0.2933,0.2901,0.2868,0.2864,0.2859,0.2855,0.2664,0.3134,0.375,0.4194,0.4467,0.4886,0.503,0.5022,0.5022,0.5022,0.5022,0.5022,0.5022,0.5022,0.5022,0.5022,0.5022,0.5022,0.5022,0.5022,0.5022,0.5022,0.5022,0.5022,0.5022,0.5022,0.5022,0.5022,0.5022,0.5022,0.5022,0.5022,0.4709,0.4709,0.4709,0.4709,0.4709,0.4709,0.4709,0.4865,0.4865,0.4865,0.5022,0.5022,0.4865,0.4865,0.4865,0.4865,0.4709,0.4865,0.4865,0.4709,0.4709,0.4865,0.4868,0.4868,0.4397,0.3454,0.2826,0.2515,0.2537,0.2555,1.1596,1.159,1.1493,1.1455,1.1455,1.1455,1.146,1.1455,1.1455,1.1455,1.1455,1.1455,1.1455,1.1455,1.1417,1.1368,1.1286,1.1243,1.1194,1.1118,1.1199,1.1221,1.1004,1.0809,1.0809,1.0862,1.0883,1.1111,1.1196,1.1293,1.1373,1.158,1.1683,1.1781,1.1792,1.1819,1.1819,1.1969,1.1227,1.0623,0.9997,0.8878,0.7585,0.6464,0.4664,0.3388,0.3171,0.3659,0.3964,0.3754,0.3382,0.3365,0.3363,0.3523,0.383,0.4118,0.4399,0.4673,0.4939,0.5052,0.5022,0.5022,0.5022,0.5022,0.5022,0.5022,0.5022,0.5022,0.5022,0.5022,0.5179,0.5022,0.5022,0.5179,0.5179,0.5022,0.5022,0.5022,0.5022,0.5022,0.5022,0.5022,0.5022,0.5022,0.5022,0.5022,0.5022,0.5022,0.5022,0.5022,0.5022,0.5022,0.5022,0.5022,0.5022,0.5022,0.5022,0.5022,0.5022,0.5022,0.5022,0.5022,0.5022,0.5022,0.5022,0.5022,0.5022,0.5022,0.5022,0.4395,0.377,0.2988,0.2525,0.2547,0.2574,1.1721,1.1716,1.165,1.159,1.1547,1.1536,1.1504,1.1465,1.1455,1.1455,1.1455,1.1455,1.1455,1.1455,1.1455,1.1411,1.1373,1.1357,1.133,1.1291,1.1335,1.1357,1.1373,1.1357,1.1368,1.1378,1.1422,1.1482,1.1558,1.165,1.1716,1.1732,1.1841,1.1895,1.1917,1.1949,1.214,1.2096,1.1526,1.11,1.0638,0.9481,0.8148,0.6825,0.5378,0.4285,0.3707,0.4193,0.4498,0.462,0.4233,0.387,0.3701,0.4036,0.4347,0.4468,0.4774,0.4872,0.4968,0.5082,0.5052,0.5025,0.5022,0.5022,0.5022,0.5179,0.5335,0.5335,0.5492,0.5648,0.5645,0.5645,0.5648,0.5648,0.5648,0.5492,0.5335,0.5179,0.5022,0.5022,0.5022,0.5022,0.5022,0.5022,0.5022,0.5022,0.5022,0.5022,0.5022,0.5022,0.5022,0.5022,0.5022,0.5022,0.5022,0.5022,0.5022,0.5022,0.5022,0.5022,0.5022,0.5022,0.5022,0.5022,0.5022,0.5022,0.5022,0.5022,0.5022,0.4554,0.3929,0.2993,0.2537,0.2566,0.2594,1.1846,1.1841,1.183,1.1759,1.1672,1.1661,1.1612,1.1525,1.1509,1.1542,1.1514,1.1514,1.1547,1.1525,1.1531,1.1514,1.1514,1.152,1.152,1.152,1.152,1.1531,1.1547,1.1585,1.1596,1.1531,1.1601,1.1656,1.1694,1.1781,1.1862,1.1889,1.1993,1.2063,1.1887,1.2129,1.2134,1.2036,1.1828,1.1403,1.0926,0.9922,0.8565,0.7211,0.6279,0.5363,0.4781,0.4912,0.5033,0.5317,0.5089,0.4553,0.4374,0.4369,0.4693,0.4643,0.4967,0.5082,0.518,0.5136,0.5104,0.5049,0.5052,0.5055,0.5215,0.5542,0.5704,0.5855,0.6013,0.6171,0.6309,0.6171,0.6326,0.6319,0.6312,0.6151,0.5836,0.5361,0.5055,0.5022,0.5022,0.5022,0.5022,0.5022,0.5022,0.5022,0.5022,0.5022,0.5022,0.5022,0.5022,0.5022,0.5022,0.5022,0.5022,0.5025,0.5025,0.5033,0.503,0.5033,0.503,0.5022,0.5022,0.5022,0.5022,0.5022,0.5022,0.5022,0.4865,0.4711,0.3942,0.2851,0.2557,0.2586,0.2613,1.196,1.1955,1.1857,1.1808,1.1792,1.1792,1.177,1.1764,1.1737,1.1759,1.1748,1.1754,1.1737,1.1743,1.1759,1.1754,1.1726,1.1716,1.1732,1.1732,1.1726,1.1726,1.1732,1.1759,1.177,1.177,1.1803,1.1813,1.1813,1.19,1.202,1.2118,1.2221,1.2275,1.2281,1.2308,1.2254,1.2156,1.2129,1.1876,1.161,1.1171,0.9954,0.8352,0.7391,0.6633,0.5889,0.5842,0.5961,0.5548,0.5319,0.5266,0.5061,0.5219,0.5208,0.519,0.5158,0.5283,0.5245,0.521,0.5188,0.5175,0.5161,0.5325,0.565,0.5811,0.6117,0.6445,0.6445,0.6455,0.6462,0.6598,0.6455,0.6455,0.6609,0.6448,0.6287,0.5792,0.5277,0.5218,0.5198,0.5027,0.5193,0.519,0.5179,0.5022,0.5022,0.5022,0.5022,0.5022,0.5022,0.5022,0.5022,0.5022,0.5022,0.5027,0.5033,0.5052,0.5055,0.5055,0.5049,0.5027,0.5022,0.5055,0.5041,0.5022,0.5022,0.5022,0.5033,0.4886,0.3803,0.2709,0.274,0.2934,0.2628,1.2085,1.208,1.202,1.1966,1.1911,1.1906,1.1873,1.1824,1.1819,1.1819,1.1819,1.1819,1.1819,1.1819,1.1819,1.1819,1.1824,1.1819,1.1819,1.1819,1.1819,1.1819,1.1841,1.1879,1.19,1.1944,1.2015,1.2009,1.1938,1.2096,1.2199,1.2275,1.239,1.2444,1.2428,1.2379,1.2335,1.2265,1.2205,1.215,1.2273,1.1849,1.0761,0.9498,0.8517,0.775,0.7338,0.657,0.6168,0.5594,0.5521,0.5469,0.5433,0.5403,0.5384,0.5379,0.5354,0.5322,0.5465,0.5262,0.5237,0.5204,0.537,0.5691,0.6016,0.6334,0.6672,0.6993,0.7151,0.7151,0.7143,0.7155,0.7151,0.7151,0.7155,0.6993,0.6827,0.6661,0.6294,0.5915,0.6214,0.6039,0.5542,0.5373,0.5344,0.5179,0.5025,0.503,0.5036,0.5038,0.5046,0.5044,0.5049,0.506,0.5063,0.5068,0.5074,0.5087,0.5093,0.5093,0.5101,0.5095,0.5106,0.5131,0.5098,0.5049,0.5025,0.5027,0.5044,0.5066,0.4462,0.3693,0.3412,0.3119,0.298,1.2172,1.2172,1.2172,1.2112,1.2036,1.2025,1.1976,1.19,1.19,1.1906,1.1889,1.1895,1.19,1.1895,1.19,1.1895,1.1889,1.19,1.1911,1.1917,1.1917,1.19,1.1922,1.1971,1.2042,1.2112,1.221,1.2254,1.215,1.2275,1.2379,1.2449,1.2536,1.2569,1.2547,1.2498,1.2433,1.2357,1.2275,1.221,1.215,1.2053,1.1346,0.9867,0.9105,0.8869,0.825,0.7481,0.6375,0.5981,0.5743,0.5676,0.5472,0.5431,0.5398,0.5387,0.5384,0.5357,0.533,0.5313,0.5294,0.5429,0.5736,0.59,0.6394,0.6898,0.7538,0.7852,0.786,0.7868,0.7717,0.786,0.7864,0.7864,0.7705,0.7693,0.7545,0.7386,0.7393,0.7173,0.744,0.6919,0.6257,0.5922,0.5899,0.5737,0.5581,0.5419,0.5422,0.5093,0.5093,0.5085,0.5087,0.5104,0.5115,0.5128,0.5139,0.5313,0.5158,0.5158,0.5172,0.5183,0.5191,0.5183,0.5145,0.5095,0.5066,0.5057,0.4939,0.4968,0.4981,0.4854,0.4422,0.3968,0.3832,1.2172,1.2172,1.2172,1.2161,1.2145,1.214,1.214,1.2123,1.2112,1.2129,1.2102,1.2118,1.2112,1.2107,1.2107,1.2118,1.2118,1.2102,1.2091,1.2085,1.2091,1.2091,1.2118,1.2134,1.2199,1.2265,1.2335,1.2341,1.2341,1.2455,1.2558,1.2629,1.2656,1.2683,1.2683,1.2634,1.2613,1.2509,1.239,1.2281,1.2178,1.1689,1.1001,1.0335,0.9689,0.9067,0.8636,0.7874,0.7126,0.601,0.6171,0.5926,0.567,0.5472,0.5433,0.5403,0.5384,0.5382,0.5368,0.553,0.5527,0.5837,0.601,0.6526,0.7006,0.7501,0.7999,0.8032,0.8019,0.8007,0.7999,0.8015,0.8023,0.8011,0.7991,0.7999,0.8007,0.7793,0.7801,0.7797,0.7733,0.7355,0.6672,0.6492,0.6317,0.6152,0.5988,0.582,0.5811,0.5471,0.5142,0.5134,0.5297,0.5311,0.5175,0.5188,0.521,0.5387,0.5392,0.5395,0.5243,0.5251,0.5226,0.521,0.5183,0.518,0.5177,0.518,0.5024,0.5032,0.5207,0.524,0.5281,0.4992,0.4526,1.2172,1.2172,1.2172,1.2172,1.2172,1.2172,1.2172,1.2172,1.2172,1.2172,1.2172,1.2172,1.2172,1.2172,1.2172,1.2172,1.2172,1.2172,1.2172,1.2172,1.2172,1.2172,1.2183,1.2237,1.2319,1.2187,1.2482,1.2564,1.2574,1.2596,1.2667,1.2705,1.277,1.2808,1.2786,1.2738,1.2683,1.2591,1.246,1.2335,1.2259,1.1778,1.1283,1.043,1.0142,0.949,0.8685,0.8083,0.7877,0.7115,0.6918,0.6317,0.5885,0.5665,0.5447,0.5392,0.572,0.572,0.5549,0.572,0.5885,0.6221,0.6556,0.7219,0.7729,0.7897,0.806,0.806,0.806,0.806,0.806,0.806,0.806,0.806,0.806,0.806,0.806,0.806,0.804,0.804,0.8027,0.7635,0.7245,0.704,0.6855,0.652,0.6513,0.6344,0.6172,0.6156,0.5668,0.5183,0.5515,0.5851,0.5555,0.5251,0.5281,0.5465,0.5485,0.5319,0.5316,0.5311,0.5289,0.5294,0.53,0.53,0.5294,0.5259,0.5224,0.5245,0.5273,0.53,0.5324,0.5346,0.4873,1.2199,1.2172,1.2172,1.2172,1.2172,1.2172,1.2172,1.2172,1.2172,1.2172,1.2172,1.2172,1.2172,1.2172,1.2172,1.2172,1.2172,1.2172,1.2172,1.2172,1.2178,1.2194,1.2243,1.2319,1.2384,1.2245,1.2596,1.2694,1.2732,1.2754,1.2754,1.2754,1.283,1.2873,1.2863,1.2808,1.2743,1.2678,1.2542,1.2449,1.2384,1.2281,1.159,1.1096,1.0411,0.9739,0.8734,0.8289,0.8246,0.823,0.7481,0.6885,0.646,0.6049,0.5819,0.593,0.6243,0.6224,0.6056,0.6056,0.6221,0.6556,0.7059,0.7729,0.7893,0.806,0.806,0.806,0.806,0.806,0.806,0.806,0.806,0.806,0.806,0.806,0.806,0.806,0.806,0.8056,0.8048,0.8052,0.7821,0.7592,0.7397,0.7055,0.6884,0.6714,0.6714,0.6547,0.6397,0.5751,0.5924,0.643,0.645,0.5982,0.5852,0.5527,0.5544,0.5547,0.5363,0.5363,0.5354,0.5371,0.5384,0.5371,0.5338,0.5297,0.5262,0.5297,0.533,0.5343,0.5363,0.5379,0.5216,1.2275,1.2172,1.2178,1.2178,1.2172,1.2172,1.2172,1.2172,1.2172,1.2172,1.2172,1.2178,1.2188,1.2188,1.221,1.221,1.2188,1.2178,1.2205,1.2205,1.2183,1.2265,1.233,1.2395,1.2477,1.2623,1.2716,1.2781,1.2841,1.2841,1.2857,1.2879,1.2879,1.2884,1.2884,1.2857,1.2803,1.2743,1.2651,1.2591,1.2509,1.2395,1.208,1.138,1.064,0.9922,0.873,0.8481,0.8433,0.8611,0.8052,0.7467,0.7034,0.6628,0.6388,0.6495,0.6772,0.6755,0.6579,0.6566,0.6892,0.7227,0.7729,0.806,0.806,0.806,0.806,0.806,0.806,0.806,0.806,0.806,0.806,0.806,0.806,0.806,0.806,0.806,0.806,0.806,0.806,0.806,0.806,0.7825,0.7805,0.7462,0.7304,0.7301,0.6984,0.6988,0.6843,0.6686,0.6693,0.7038,0.7547,0.7398,0.6714,0.6208,0.6053,0.5888,0.5547,0.5552,0.5552,0.5384,0.5384,0.5384,0.5382,0.5346,0.533,0.5363,0.5382,0.5373,0.5373,0.5382,0.5216,1.2439,1.239,1.2314,1.2243,1.2172,1.2172,1.2172,1.2172,1.2172,1.2172,1.2178,1.2243,1.2286,1.2303,1.2373,1.2395,1.2395,1.2395,1.239,1.2395,1.2411,1.2428,1.2477,1.2536,1.2623,1.271,1.277,1.283,1.2879,1.289,1.289,1.289,1.289,1.289,1.289,1.289,1.2852,1.2814,1.2748,1.2678,1.2618,1.2449,1.2138,1.1508,1.0924,1.0023,0.8998,0.873,0.8668,0.8619,0.8429,0.8021,0.7607,0.703,0.6976,0.7077,0.7348,0.7311,0.7285,0.7091,0.7398,0.7729,0.8064,0.806,0.806,0.806,0.806,0.806,0.806,0.806,0.806,0.806,0.806,0.806,0.806,0.806,0.806,0.806,0.8227,0.8232,0.806,0.806,0.806,0.8052,0.8052,0.8052,0.7893,0.7729,0.7562,0.7394,0.7394,0.7394,0.7227,0.7398,0.7909,0.7737,0.723,0.7063,0.6727,0.6224,0.5885,0.5885,0.5885,0.5552,0.5384,0.5384,0.5384,0.5384,0.5384,0.5384,0.5384,0.5382,0.5384,0.5552,0.5384,1.2564,1.2526,1.2444,1.2341,1.2232,1.2183,1.2172,1.2172,1.2172,1.2199,1.2232,1.2352,1.2406,1.2433,1.2482,1.2526,1.2515,1.2515,1.2526,1.252,1.2515,1.2553,1.2607,1.2656,1.2705,1.2765,1.2825,1.289,1.289,1.289,1.289,1.289,1.289,1.289,1.289,1.289,1.289,1.2863,1.2819,1.2759,1.2727,1.258,1.2439,1.1807,1.1227,1.0473,0.9788,0.9317,0.8869,0.8815,0.8603,0.8397,0.7995,0.7772,0.7384,0.7498,0.7435,0.7723,0.7507,0.7615,0.7733,0.8064,0.806,0.806,0.806,0.806,0.806,0.806,0.806,0.806,0.806,0.806,0.806,0.806,0.806,0.806,0.806,0.806,0.8232,0.8399,0.8232,0.8399,0.8232,0.8232,0.8227,0.806,0.806,0.7897,0.7897,0.7893,0.7893,0.7897,0.7893,0.7897,0.8068,0.7897,0.7562,0.7566,0.723,0.6727,0.6389,0.6389,0.6053,0.5885,0.5717,0.5552,0.5384,0.5384,0.5384,0.5384,0.5384,0.5552,0.5888,0.5888,0.5888,1.264,1.2542,1.2536,1.2466,1.2357,1.2227,1.2188,1.221,1.2205,1.2259,1.2362,1.2477,1.2531,1.2536,1.2574,1.2596,1.2591,1.258,1.258,1.2591,1.2607,1.2629,1.2678,1.2738,1.2781,1.2863,1.289,1.289,1.289,1.289,1.289,1.289,1.289,1.289,1.289,1.289,1.289,1.289,1.2873,1.2868,1.283,1.2716,1.2607,1.2278,1.1719,1.0949,1.0742,0.9721,0.9079,0.8628,0.8611,0.8595,0.8405,0.8341,0.8129,0.7757,0.8031,0.7952,0.7525,0.7945,0.8068,0.806,0.806,0.806,0.806,0.806,0.806,0.806,0.806,0.806,0.806,0.806,0.806,0.8227,0.8232,0.8227,0.8395,0.8395,0.8566,0.8733,0.8738,0.8738,0.8571,0.8399,0.8232,0.8232,0.806,0.806,0.806,0.806,0.806,0.806,0.806,0.806,0.8064,0.8064,0.8064,0.7901,0.7733,0.723,0.6892,0.6556,0.6389,0.6053,0.5885,0.5552,0.5552,0.5384,0.5384,0.5382,0.5552,0.572,0.6224,0.6392,0.6224,1.2803,1.2759,1.2683,1.2623,1.2574,1.246,1.2411,1.2411,1.2417,1.2439,1.2493,1.2596,1.2651,1.2667,1.2721,1.2754,1.2759,1.277,1.277,1.2765,1.2748,1.2786,1.2819,1.2819,1.2841,1.2873,1.289,1.289,1.289,1.289,1.289,1.289,1.289,1.289,1.289,1.289,1.289,1.289,1.289,1.2884,1.2873,1.277,1.2656,1.2542,1.1984,1.1579,1.1494,1.0292,0.9109,0.8632,0.8607,0.8607,0.8607,0.8558,0.8377,0.8002,0.7941,0.783,0.7715,0.7784,0.8064,0.806,0.806,0.806,0.806,0.806,0.806,0.806,0.806,0.806,0.806,0.806,0.8227,0.8399,0.8566,0.8733,0.8901,0.8901,0.9068,0.9235,0.924,0.924,0.9068,0.8901,0.8733,0.8566,0.8566,0.8232,0.8232,0.8227,0.806,0.806,0.806,0.806,0.806,0.806,0.806,0.8064,0.7897,0.7729,0.7394,0.6892,0.6556,0.6389,0.6053,0.5717,0.5549,0.5382,0.5379,0.5379,0.5885,0.6224,0.656,0.6727,0.656,1.289,1.2879,1.2803,1.277,1.2743,1.2602,1.2536,1.2542,1.2574,1.2596,1.2618,1.2716,1.277,1.2792,1.2846,1.289,1.289,1.2884,1.2884,1.289,1.2884,1.2873,1.2879,1.289,1.2879,1.289,1.289,1.289,1.289,1.289,1.289,1.289,1.289,1.289,1.289,1.289,1.289,1.289,1.289,1.289,1.2868,1.2803,1.2694,1.2564,1.2224,1.2053,1.1578,1.0683,0.9152,0.884,0.8607,0.8607,0.8607,0.8607,0.825,0.7866,0.742,0.7324,0.7574,0.7615,0.7909,0.806,0.806,0.806,0.806,0.806,0.806,0.806,0.806,0.806,0.806,0.806,0.8399,0.8738,0.8905,0.9072,0.924,0.9402,0.9569,0.9569,0.9574,0.9569,0.9569,0.9407,0.924,0.9068,0.8901,0.8733,0.8566,0.8399,0.8395,0.8227,0.8227,0.806,0.806,0.806,0.806,0.806,0.806,0.8064,0.7729,0.7394,0.7059,0.6724,0.6389,0.6053,0.5549,0.5379,0.5714,0.6221,0.6895,0.7063,0.723,0.7063,0.6895,1.2884,1.289,1.2884,1.3079,1.2846,1.2852,1.2564,1.2564,1.2661,1.271,1.2716,1.283,1.2863,1.2879,1.289,1.289,1.289,1.289,1.289,1.289,1.289,1.289,1.289,1.289,1.289,1.289,1.289,1.289,1.289,1.289,1.289,1.289,1.289,1.289,1.289,1.289,1.289,1.289,1.289,1.289,1.2873,1.2873,1.2748,1.2618,1.2498,1.2275,1.1833,1.1095,0.9867,0.9037,0.8607,0.8607,0.8607,0.8607,0.8071,0.7314,0.6686,0.6983,0.7266,0.7484,0.7749,0.8068,0.806,0.806,0.806,0.806,0.806,0.806,0.806,0.806,0.8227,0.8399,0.8738,0.8905,0.924,0.9407,0.9574,0.9741,0.9736,0.9903,1.007,1.007,1.007,0.9903,0.9751,0.9736,0.9569,0.9569,0.9402,0.9072,0.8901,0.8562,0.8395,0.8227,0.8227,0.8227,0.8227,0.8232,0.8232,0.8232,0.7897,0.7729,0.7394,0.7059,0.6892,0.6556,0.6053,0.6053,0.6389,0.7059,0.757,0.7733,0.7566,0.7562,0.7394,1.4083,1.4083,1.4077,1.4077,1.4065,1.4,1.3574,1.2781,1.3217,1.3228,1.283,1.2868,1.289,1.289,1.289,1.289,1.289,1.289,1.289,1.289,1.289,1.289,1.289,1.289,1.289,1.289,1.289,1.289,1.289,1.289,1.289,1.289,1.289,1.289,1.289,1.289,1.2895,1.2901,1.2906,1.2906,1.2901,1.2906,1.2786,1.2683,1.2564,1.2341,1.1935,1.171,1.0456,0.889,0.8636,0.8611,0.8607,0.8607,0.8071,0.6984,0.6728,0.7006,0.7118,0.7711,0.7961,0.8076,0.806,0.806,0.806,0.806,0.806,0.8227,0.8232,0.8232,0.8566,0.8738,0.9072,0.9407,0.9741,0.9908,1.007,1.007,1.0237,1.0237,1.0404,1.0425,1.0419,1.043,1.0268,1.0247,1.0247,1.0263,1.008,0.9751,0.9574,0.923,0.9063,0.8901,0.8733,0.8729,0.8566,0.8399,0.8399,0.8399,0.8232,0.7897,0.7729,0.7562,0.7227,0.6895,0.656,0.6727,0.723,0.7402,0.7909,0.8068,0.8064,0.7905,0.7909,1.4881,1.4881,1.4875,1.4875,1.5074,1.5273,1.4669,1.3661,1.3872,1.3878,1.3478,1.3284,1.329,1.329,1.309,1.289,1.289,1.289,1.289,1.289,1.289,1.289,1.289,1.289,1.289,1.289,1.289,1.289,1.2895,1.289,1.289,1.289,1.289,1.289,1.2901,1.2939,1.2971,1.2971,1.2966,1.296,1.296,1.295,1.2857,1.2727,1.2607,1.2417,1.2199,1.1966,1.0861,0.9092,0.8648,0.8607,0.8607,0.8429,0.8067,0.7156,0.6921,0.7195,0.7299,0.7563,0.7989,0.8093,0.8068,0.8232,0.8232,0.8232,0.8232,0.8399,0.8399,0.8566,0.8901,0.924,0.9574,1.007,1.0237,1.0404,1.057,1.0737,1.0737,1.0737,1.0748,1.0775,1.0786,1.0797,1.084,1.0725,1.0758,1.0758,1.053,1.0294,1.0263,1.007,0.9903,0.9741,0.9579,0.9431,0.9431,0.9095,0.8738,0.8571,0.8399,0.8236,0.7909,0.7737,0.7562,0.7245,0.7106,0.7581,0.7909,0.8101,0.8311,0.8492,0.848,0.8437,0.8446,1.5479,1.5479,1.5472,1.587,1.6261,1.6864,1.6241,1.4818,1.5055,1.4676,1.4676,1.4089,1.3889,1.349,1.329,1.309,1.289,1.289,1.289,1.289,1.289,1.289,1.289,1.289,1.289,1.289,1.2895,1.2906,1.2917,1.295,1.2977,1.2917,1.2939,1.2955,1.295,1.3037,1.308,1.3086,1.3102,1.3113,1.308,1.3047,1.2966,1.2776,1.2618,1.2449,1.2221,1.1812,1.1232,0.9658,0.8668,0.8624,0.8429,0.8246,0.7885,0.7695,0.7293,0.7406,0.7512,0.7788,0.7874,0.7977,0.8085,0.8437,0.845,0.8412,0.8399,0.8733,0.8733,0.9072,0.9407,0.9569,0.9903,1.0237,1.0404,1.057,1.057,1.0737,1.0737,1.0748,1.0786,1.0813,1.0867,1.0884,1.0944,1.1041,1.1063,1.1058,1.1014,1.0731,1.0699,1.0651,1.0498,1.0351,1.0346,1.0187,1.0504,1.0146,0.9459,0.9137,0.9009,0.864,0.8261,0.8125,0.7997,0.8001,0.8013,0.8162,0.8174,0.8228,0.8427,0.895,0.9085,0.9031,0.9022,1.707,1.707,1.7665,1.7855,1.8053,1.8449,1.8023,1.7005,1.7444,1.6864,1.5877,1.5081,1.4482,1.3889,1.369,1.349,1.3084,1.309,1.289,1.289,1.289,1.289,1.289,1.289,1.289,1.289,1.2901,1.2944,1.3004,1.308,1.3145,1.3145,1.3129,1.3091,1.302,1.3129,1.3194,1.3183,1.3276,1.327,1.3221,1.3124,1.3015,1.2906,1.2786,1.2602,1.2395,1.221,1.1801,1.0881,0.9291,0.8673,0.8611,0.8071,0.7889,0.7702,0.7684,0.7802,0.7743,0.8039,0.8157,0.8285,0.8586,0.8727,0.8853,0.861,0.8742,0.9077,0.924,0.9574,0.9741,1.007,1.0237,1.0404,1.057,1.0737,1.0737,1.0737,1.0737,1.078,1.0656,1.0878,1.0933,1.0998,1.1058,1.1085,1.1096,1.1096,1.1118,1.1058,1.1069,1.1036,1.0843,1.0849,1.0822,1.0971,1.0949,1.0795,1.0289,0.9787,0.9626,0.9085,0.8718,0.8595,0.8457,0.8272,0.8268,0.8457,0.8482,0.8354,0.887,0.9385,0.973,0.986,0.9845,1.8655,1.8853,1.905,1.9248,1.9635,1.9832,1.9626,1.9421,1.9437,1.905,1.7863,1.6672,1.5479,1.4682,1.4488,1.4083,1.3684,1.3284,1.329,1.329,1.3084,1.289,1.289,1.289,1.289,1.2895,1.2955,1.302,1.3096,1.3167,1.3227,1.3249,1.3238,1.32,1.3124,1.3216,1.3292,1.3243,1.3406,1.3439,1.3363,1.3249,1.3118,1.3026,1.2857,1.2694,1.2547,1.2357,1.214,1.1372,0.9931,0.9054,0.8628,0.8429,0.8246,0.8067,0.8234,0.8207,0.8148,0.8289,0.8611,0.8731,0.8857,0.8968,0.964,0.9569,0.9483,0.981,0.9751,0.9908,1.0237,1.0404,1.0404,1.057,1.0737,1.0737,1.0737,1.0737,1.078,1.0851,1.0905,1.0806,1.1041,1.1312,1.1378,1.1286,1.1264,1.1248,1.1243,1.1215,1.1226,1.1221,1.1183,1.1123,1.1063,1.1058,1.1235,1.109,1.0778,1.0224,0.986,0.9525,0.9362,0.9212,0.8874,0.8342,0.8346,0.8718,0.8594,0.8464,0.9145,0.9991,1.0344,1.0534,1.0534,2.0012,2.0038,2.0235,2.0432,2.0826,2.1013,2.1219,2.1434,2.1022,2.0629,2.0038,1.8251,1.707,1.6275,1.5678,1.5081,1.4682,1.4083,1.3889,1.369,1.3484,1.3484,1.3284,1.329,1.3307,1.3162,1.3037,1.3096,1.3162,1.3265,1.3336,1.3292,1.3471,1.3443,1.3216,1.3292,1.3401,1.3368,1.345,1.3575,1.3504,1.3385,1.3232,1.3058,1.289,1.2754,1.2814,1.2648,1.2254,1.1486,1.0557,0.9662,0.8848,0.8644,0.8619,0.8441,0.8429,0.8566,0.8522,0.8682,0.8807,0.91,0.907,0.9572,1.0259,1.0376,1.0289,1.0218,1.0325,1.0294,1.0629,1.0797,1.0791,1.0791,1.0791,1.0791,1.0791,1.0791,1.0862,1.0938,1.1003,1.1074,1.1156,1.1428,1.1516,1.1427,1.1455,1.1455,1.1433,1.1378,1.1351,1.133,1.1291,1.1226,1.1177,1.1177,1.1378,1.1395,1.1068,1.0483,1.0111,0.9986,1.0,0.9797,0.9453,0.8948,0.8957,0.9324,0.903,0.9082,0.9773,1.0621,1.0822,1.1015,1.1051,2.0489,2.0629,2.1022,2.1415,2.1406,2.1799,2.2201,2.2201,2.1612,2.1406,2.1013,2.0423,1.924,1.7459,1.6275,1.5678,1.5479,1.4881,1.4476,1.4277,1.4283,1.4277,1.4089,1.4113,1.3954,1.3638,1.3344,1.3249,1.3292,1.3428,1.3526,1.351,1.3515,1.3466,1.339,1.3461,1.3504,1.3461,1.3488,1.3607,1.3575,1.3461,1.3336,1.32,1.3075,1.2895,1.2919,1.2759,1.2565,1.1972,1.1006,1.01,0.9467,0.8886,0.8681,0.8819,0.8807,0.8782,0.893,0.9091,0.9224,0.9759,0.9911,1.0244,1.075,1.0888,1.0804,1.0741,1.0859,1.0843,1.1009,1.0998,1.0992,1.0992,1.0992,1.0992,1.0992,1.0822,1.0849,1.1085,1.1145,1.1199,1.1243,1.133,1.14,1.1455,1.1455,1.1455,1.1455,1.1455,1.1455,1.1422,1.1384,1.1411,1.1389,1.1351,1.1539,1.1368,1.1362,1.0967,1.0791,1.0672,1.0495,1.0434,1.0278,0.9782,0.9964,1.0102,1.0323,1.055,1.0916,1.1271,1.1465,1.146,1.1282]}]]